<?xml version="1.0" encoding="UTF-8" standalone="no" ?>
<gpx xmlns="http://www.topografix.com/GPX/1/1" xmlns:xsi="http://www.w3.org/2001/XMLSchema-instance" xsi:schemaLocation="http://www.topografix.com/GPX/1/1 http://www.topografix.com/GPX/1/1/gpx.xsd" version="1.1" creator="VisuGPX - https://www.visugpx.com">
  <metadata>
    <name>GR 53 Climbach - Obersteinbach</name>
    <desc><![CDATA[Fast nur durch den Wald. Viele bizarre Felsen und Burgruinen.]]></desc>
  </metadata>
  <trk>
    <name><![CDATA[Tag 2 - GR 53 - Climbach bis Obersteinbach]]></name>
    <trkseg>
      <trkpt lat="49.01905" lon="7.85137">
        <ele>364.4769287</ele>
        <time>2013-05-09T07:14:13Z</time>
      </trkpt>
      <trkpt lat="49.01928" lon="7.85138">
        <ele>365.9189453</ele>
        <time>2013-05-09T07:14:36Z</time>
      </trkpt>
      <trkpt lat="49.01947" lon="7.85144">
        <ele>362.5543213</ele>
        <time>2013-05-09T07:14:54Z</time>
      </trkpt>
      <trkpt lat="49.01963" lon="7.85146">
        <ele>359.1896973</ele>
        <time>2013-05-09T07:15:09Z</time>
      </trkpt>
      <trkpt lat="49.02003" lon="7.85144">
        <ele>356.786377</ele>
        <time>2013-05-09T07:15:44Z</time>
      </trkpt>
      <trkpt lat="49.02028" lon="7.85138">
        <ele>356.3057861</ele>
        <time>2013-05-09T07:16:07Z</time>
      </trkpt>
      <trkpt lat="49.02033" lon="7.85137">
        <ele>355.8251953</ele>
        <time>2013-05-09T07:16:11Z</time>
      </trkpt>
      <trkpt lat="49.02051" lon="7.8513">
        <ele>356.786377</ele>
        <time>2013-05-09T07:16:27Z</time>
      </trkpt>
      <trkpt lat="49.02071" lon="7.85124">
        <ele>357.7478027</ele>
        <time>2013-05-09T07:16:43Z</time>
      </trkpt>
      <trkpt lat="49.02093" lon="7.85114">
        <ele>359.1896973</ele>
        <time>2013-05-09T07:17:01Z</time>
      </trkpt>
      <trkpt lat="49.02115" lon="7.85099">
        <ele>360.151123</ele>
        <time>2013-05-09T07:17:21Z</time>
      </trkpt>
      <trkpt lat="49.02136" lon="7.85081">
        <ele>361.1124268</ele>
        <time>2013-05-09T07:17:39Z</time>
      </trkpt>
      <trkpt lat="49.02158" lon="7.85059">
        <ele>360.151123</ele>
        <time>2013-05-09T07:17:59Z</time>
      </trkpt>
      <trkpt lat="49.02181" lon="7.85034">
        <ele>359.1896973</ele>
        <time>2013-05-09T07:18:20Z</time>
      </trkpt>
      <trkpt lat="49.02208" lon="7.85006">
        <ele>358.2283936</ele>
        <time>2013-05-09T07:18:44Z</time>
      </trkpt>
      <trkpt lat="49.02243" lon="7.84973">
        <ele>358.2283936</ele>
        <time>2013-05-09T07:19:15Z</time>
      </trkpt>
      <trkpt lat="49.02262" lon="7.84945">
        <ele>357.7478027</ele>
        <time>2013-05-09T07:19:36Z</time>
      </trkpt>
      <trkpt lat="49.02267" lon="7.84921">
        <ele>358.7089844</ele>
        <time>2013-05-09T07:19:50Z</time>
      </trkpt>
      <trkpt lat="49.02281" lon="7.84873">
        <ele>358.7089844</ele>
        <time>2013-05-09T07:20:17Z</time>
      </trkpt>
      <trkpt lat="49.02299" lon="7.84797">
        <ele>358.7089844</ele>
        <time>2013-05-09T07:20:55Z</time>
      </trkpt>
      <trkpt lat="49.02315" lon="7.84732">
        <ele>359.6704102</ele>
        <time>2013-05-09T07:21:29Z</time>
      </trkpt>
      <trkpt lat="49.02331" lon="7.84676">
        <ele>361.1124268</ele>
        <time>2013-05-09T07:22:01Z</time>
      </trkpt>
      <trkpt lat="49.02343" lon="7.84623">
        <ele>362.0737305</ele>
        <time>2013-05-09T07:22:30Z</time>
      </trkpt>
      <trkpt lat="49.02349" lon="7.84589">
        <ele>362.0737305</ele>
        <time>2013-05-09T07:22:48Z</time>
      </trkpt>
      <trkpt lat="49.02358" lon="7.8454">
        <ele>360.6317139</ele>
        <time>2013-05-09T07:23:12Z</time>
      </trkpt>
      <trkpt lat="49.0236" lon="7.84531">
        <ele>359.1896973</ele>
        <time>2013-05-09T07:23:26Z</time>
      </trkpt>
      <trkpt lat="49.0236" lon="7.84532">
        <ele>359.1896973</ele>
        <time>2013-05-09T07:23:30Z</time>
      </trkpt>
      <trkpt lat="49.0236" lon="7.84526">
        <ele>359.1896973</ele>
        <time>2013-05-09T07:23:33Z</time>
      </trkpt>
      <trkpt lat="49.02362" lon="7.84517">
        <ele>360.151123</ele>
        <time>2013-05-09T07:23:37Z</time>
      </trkpt>
      <trkpt lat="49.02365" lon="7.84504">
        <ele>358.7089844</ele>
        <time>2013-05-09T07:23:43Z</time>
      </trkpt>
      <trkpt lat="49.02364" lon="7.84499">
        <ele>358.2283936</ele>
        <time>2013-05-09T07:23:46Z</time>
      </trkpt>
      <trkpt lat="49.02369" lon="7.84478">
        <ele>357.2670898</ele>
        <time>2013-05-09T07:23:56Z</time>
      </trkpt>
      <trkpt lat="49.02379" lon="7.84445">
        <ele>355.8251953</ele>
        <time>2013-05-09T07:24:14Z</time>
      </trkpt>
      <trkpt lat="49.02384" lon="7.84423">
        <ele>355.3444824</ele>
        <time>2013-05-09T07:24:25Z</time>
      </trkpt>
      <trkpt lat="49.02386" lon="7.84412">
        <ele>354.3831787</ele>
        <time>2013-05-09T07:24:31Z</time>
      </trkpt>
      <trkpt lat="49.02388" lon="7.84401">
        <ele>353.421875</ele>
        <time>2013-05-09T07:24:37Z</time>
      </trkpt>
      <trkpt lat="49.02392" lon="7.84394">
        <ele>353.421875</ele>
        <time>2013-05-09T07:24:41Z</time>
      </trkpt>
      <trkpt lat="49.02396" lon="7.84381">
        <ele>352.4605713</ele>
        <time>2013-05-09T07:24:48Z</time>
      </trkpt>
      <trkpt lat="49.02403" lon="7.84343">
        <ele>351.0184326</ele>
        <time>2013-05-09T07:25:08Z</time>
      </trkpt>
      <trkpt lat="49.02408" lon="7.84325">
        <ele>349.5765381</ele>
        <time>2013-05-09T07:25:18Z</time>
      </trkpt>
      <trkpt lat="49.02411" lon="7.84317">
        <ele>349.0958252</ele>
        <time>2013-05-09T07:25:22Z</time>
      </trkpt>
      <trkpt lat="49.02415" lon="7.84295">
        <ele>348.1346436</ele>
        <time>2013-05-09T07:25:34Z</time>
      </trkpt>
      <trkpt lat="49.0242" lon="7.8426">
        <ele>346.692627</ele>
        <time>2013-05-09T07:25:54Z</time>
      </trkpt>
      <trkpt lat="49.02424" lon="7.84237">
        <ele>345.7313232</ele>
        <time>2013-05-09T07:26:06Z</time>
      </trkpt>
      <trkpt lat="49.02424" lon="7.84233">
        <ele>345.7313232</ele>
        <time>2013-05-09T07:26:08Z</time>
      </trkpt>
      <trkpt lat="49.02432" lon="7.84192">
        <ele>344.2894287</ele>
        <time>2013-05-09T07:26:29Z</time>
      </trkpt>
      <trkpt lat="49.02448" lon="7.84137">
        <ele>342.3666992</ele>
        <time>2013-05-09T07:26:59Z</time>
      </trkpt>
      <trkpt lat="49.02452" lon="7.84127">
        <ele>342.3666992</ele>
        <time>2013-05-09T07:27:05Z</time>
      </trkpt>
      <trkpt lat="49.02458" lon="7.84094">
        <ele>341.4052734</ele>
        <time>2013-05-09T07:27:32Z</time>
      </trkpt>
      <trkpt lat="49.02468" lon="7.84064">
        <ele>340.9246826</ele>
        <time>2013-05-09T07:27:50Z</time>
      </trkpt>
      <trkpt lat="49.02489" lon="7.84015">
        <ele>339.9633789</ele>
        <time>2013-05-09T07:28:21Z</time>
      </trkpt>
      <trkpt lat="49.02508" lon="7.83973">
        <ele>338.0407715</ele>
        <time>2013-05-09T07:28:47Z</time>
      </trkpt>
      <trkpt lat="49.02523" lon="7.83934">
        <ele>336.598877</ele>
        <time>2013-05-09T07:29:10Z</time>
      </trkpt>
      <trkpt lat="49.02525" lon="7.83926">
        <ele>335.6373291</ele>
        <time>2013-05-09T07:29:15Z</time>
      </trkpt>
      <trkpt lat="49.02527" lon="7.83921">
        <ele>336.598877</ele>
        <time>2013-05-09T07:29:18Z</time>
      </trkpt>
      <trkpt lat="49.02536" lon="7.8391">
        <ele>334.6761475</ele>
        <time>2013-05-09T07:29:28Z</time>
      </trkpt>
      <trkpt lat="49.02538" lon="7.83909">
        <ele>334.1954346</ele>
        <time>2013-05-09T07:29:30Z</time>
      </trkpt>
      <trkpt lat="49.02548" lon="7.83898">
        <ele>330.8309326</ele>
        <time>2013-05-09T07:29:43Z</time>
      </trkpt>
      <trkpt lat="49.02559" lon="7.83875">
        <ele>328.9083252</ele>
        <time>2013-05-09T07:30:00Z</time>
      </trkpt>
      <trkpt lat="49.0256" lon="7.83873">
        <ele>328.4276123</ele>
        <time>2013-05-09T07:30:01Z</time>
      </trkpt>
      <trkpt lat="49.02579" lon="7.83847">
        <ele>326.0241699</ele>
        <time>2013-05-09T07:30:20Z</time>
      </trkpt>
      <trkpt lat="49.02589" lon="7.83824">
        <ele>325.0629883</ele>
        <time>2013-05-09T07:30:33Z</time>
      </trkpt>
      <trkpt lat="49.02593" lon="7.83809">
        <ele>324.5822754</ele>
        <time>2013-05-09T07:30:39Z</time>
      </trkpt>
      <trkpt lat="49.02595" lon="7.83806">
        <ele>324.5822754</ele>
        <time>2013-05-09T07:30:41Z</time>
      </trkpt>
      <trkpt lat="49.02595" lon="7.83802">
        <ele>324.1015625</ele>
        <time>2013-05-09T07:30:43Z</time>
      </trkpt>
      <trkpt lat="49.02599" lon="7.83789">
        <ele>323.1403809</ele>
        <time>2013-05-09T07:30:50Z</time>
      </trkpt>
      <trkpt lat="49.02599" lon="7.83785">
        <ele>322.659668</ele>
        <time>2013-05-09T07:30:53Z</time>
      </trkpt>
      <trkpt lat="49.02602" lon="7.83775">
        <ele>321.6983643</ele>
        <time>2013-05-09T07:31:00Z</time>
      </trkpt>
      <trkpt lat="49.02605" lon="7.8375">
        <ele>319.7756348</ele>
        <time>2013-05-09T07:31:15Z</time>
      </trkpt>
      <trkpt lat="49.02606" lon="7.83749">
        <ele>319.7756348</ele>
        <time>2013-05-09T07:31:16Z</time>
      </trkpt>
      <trkpt lat="49.02608" lon="7.8374">
        <ele>318.8143311</ele>
        <time>2013-05-09T07:31:22Z</time>
      </trkpt>
      <trkpt lat="49.0261" lon="7.83733">
        <ele>318.8143311</ele>
        <time>2013-05-09T07:31:26Z</time>
      </trkpt>
      <trkpt lat="49.02611" lon="7.83731">
        <ele>318.3336182</ele>
        <time>2013-05-09T07:31:28Z</time>
      </trkpt>
      <trkpt lat="49.02614" lon="7.8372">
        <ele>317.8530273</ele>
        <time>2013-05-09T07:31:35Z</time>
      </trkpt>
      <trkpt lat="49.02614" lon="7.83715">
        <ele>317.3724365</ele>
        <time>2013-05-09T07:31:38Z</time>
      </trkpt>
      <trkpt lat="49.02613" lon="7.83711">
        <ele>317.3724365</ele>
        <time>2013-05-09T07:31:41Z</time>
      </trkpt>
      <trkpt lat="49.02611" lon="7.83705">
        <ele>316.8917236</ele>
        <time>2013-05-09T07:31:45Z</time>
      </trkpt>
      <trkpt lat="49.02612" lon="7.83702">
        <ele>316.4110107</ele>
        <time>2013-05-09T07:31:47Z</time>
      </trkpt>
      <trkpt lat="49.02614" lon="7.83691">
        <ele>315.4498291</ele>
        <time>2013-05-09T07:31:55Z</time>
      </trkpt>
      <trkpt lat="49.02616" lon="7.83688">
        <ele>315.4498291</ele>
        <time>2013-05-09T07:31:57Z</time>
      </trkpt>
      <trkpt lat="49.0262" lon="7.83682">
        <ele>314.9691162</ele>
        <time>2013-05-09T07:32:02Z</time>
      </trkpt>
      <trkpt lat="49.02622" lon="7.83674">
        <ele>314.4884033</ele>
        <time>2013-05-09T07:32:09Z</time>
      </trkpt>
      <trkpt lat="49.02624" lon="7.8366">
        <ele>313.5272217</ele>
        <time>2013-05-09T07:32:17Z</time>
      </trkpt>
      <trkpt lat="49.02627" lon="7.83638">
        <ele>311.6044922</ele>
        <time>2013-05-09T07:32:30Z</time>
      </trkpt>
      <trkpt lat="49.02626" lon="7.83622">
        <ele>310.1624756</ele>
        <time>2013-05-09T07:32:40Z</time>
      </trkpt>
      <trkpt lat="49.02627" lon="7.83618">
        <ele>309.6818848</ele>
        <time>2013-05-09T07:32:42Z</time>
      </trkpt>
      <trkpt lat="49.02628" lon="7.83612">
        <ele>309.2011719</ele>
        <time>2013-05-09T07:32:45Z</time>
      </trkpt>
      <trkpt lat="49.02629" lon="7.83606">
        <ele>309.2011719</ele>
        <time>2013-05-09T07:32:48Z</time>
      </trkpt>
      <trkpt lat="49.0263" lon="7.836">
        <ele>308.720459</ele>
        <time>2013-05-09T07:32:52Z</time>
      </trkpt>
      <trkpt lat="49.02629" lon="7.83594">
        <ele>308.2398682</ele>
        <time>2013-05-09T07:32:56Z</time>
      </trkpt>
      <trkpt lat="49.02628" lon="7.8359">
        <ele>307.7592773</ele>
        <time>2013-05-09T07:32:59Z</time>
      </trkpt>
      <trkpt lat="49.0263" lon="7.83584">
        <ele>307.2785645</ele>
        <time>2013-05-09T07:33:03Z</time>
      </trkpt>
      <trkpt lat="49.02629" lon="7.83576">
        <ele>306.7978516</ele>
        <time>2013-05-09T07:33:09Z</time>
      </trkpt>
      <trkpt lat="49.02635" lon="7.83553">
        <ele>305.355957</ele>
        <time>2013-05-09T07:33:24Z</time>
      </trkpt>
      <trkpt lat="49.02637" lon="7.83548">
        <ele>304.3946533</ele>
        <time>2013-05-09T07:33:27Z</time>
      </trkpt>
      <trkpt lat="49.02638" lon="7.83538">
        <ele>303.9139404</ele>
        <time>2013-05-09T07:33:33Z</time>
      </trkpt>
      <trkpt lat="49.02643" lon="7.83525">
        <ele>302.4719238</ele>
        <time>2013-05-09T07:33:43Z</time>
      </trkpt>
      <trkpt lat="49.02644" lon="7.83515">
        <ele>301.5106201</ele>
        <time>2013-05-09T07:33:49Z</time>
      </trkpt>
      <trkpt lat="49.02644" lon="7.8351">
        <ele>300.5493164</ele>
        <time>2013-05-09T07:33:54Z</time>
      </trkpt>
      <trkpt lat="49.02643" lon="7.83486">
        <ele>298.626709</ele>
        <time>2013-05-09T07:34:09Z</time>
      </trkpt>
      <trkpt lat="49.02642" lon="7.83481">
        <ele>297.6654053</ele>
        <time>2013-05-09T07:34:12Z</time>
      </trkpt>
      <trkpt lat="49.02643" lon="7.83466">
        <ele>296.7041016</ele>
        <time>2013-05-09T07:34:20Z</time>
      </trkpt>
      <trkpt lat="49.02643" lon="7.83444">
        <ele>294.7813721</ele>
        <time>2013-05-09T07:34:32Z</time>
      </trkpt>
      <trkpt lat="49.02644" lon="7.83421">
        <ele>292.8587646</ele>
        <time>2013-05-09T07:34:46Z</time>
      </trkpt>
      <trkpt lat="49.02642" lon="7.83409">
        <ele>291.416748</ele>
        <time>2013-05-09T07:34:54Z</time>
      </trkpt>
      <trkpt lat="49.0264" lon="7.83406">
        <ele>290.9361572</ele>
        <time>2013-05-09T07:34:57Z</time>
      </trkpt>
      <trkpt lat="49.02636" lon="7.8339">
        <ele>288.532959</ele>
        <time>2013-05-09T07:35:11Z</time>
      </trkpt>
      <trkpt lat="49.02639" lon="7.8338">
        <ele>287.5714111</ele>
        <time>2013-05-09T07:35:17Z</time>
      </trkpt>
      <trkpt lat="49.02638" lon="7.83375">
        <ele>287.0908203</ele>
        <time>2013-05-09T07:35:20Z</time>
      </trkpt>
      <trkpt lat="49.02639" lon="7.83366">
        <ele>286.1295166</ele>
        <time>2013-05-09T07:35:26Z</time>
      </trkpt>
      <trkpt lat="49.02638" lon="7.83363">
        <ele>285.6488037</ele>
        <time>2013-05-09T07:35:29Z</time>
      </trkpt>
      <trkpt lat="49.02642" lon="7.83337">
        <ele>282.7650146</ele>
        <time>2013-05-09T07:35:46Z</time>
      </trkpt>
      <trkpt lat="49.02639" lon="7.8333">
        <ele>281.8035889</ele>
        <time>2013-05-09T07:35:51Z</time>
      </trkpt>
      <trkpt lat="49.02637" lon="7.83325">
        <ele>281.322998</ele>
        <time>2013-05-09T07:35:54Z</time>
      </trkpt>
      <trkpt lat="49.0264" lon="7.83311">
        <ele>279.4002686</ele>
        <time>2013-05-09T07:36:05Z</time>
      </trkpt>
      <trkpt lat="49.02642" lon="7.83287">
        <ele>276.5163574</ele>
        <time>2013-05-09T07:36:23Z</time>
      </trkpt>
      <trkpt lat="49.02639" lon="7.83278">
        <ele>275.5550537</ele>
        <time>2013-05-09T07:36:39Z</time>
      </trkpt>
      <trkpt lat="49.02637" lon="7.83259">
        <ele>273.1518555</ele>
        <time>2013-05-09T07:36:57Z</time>
      </trkpt>
      <trkpt lat="49.02634" lon="7.83246">
        <ele>272.6711426</ele>
        <time>2013-05-09T07:37:06Z</time>
      </trkpt>
      <trkpt lat="49.02634" lon="7.8324">
        <ele>272.1904297</ele>
        <time>2013-05-09T07:37:10Z</time>
      </trkpt>
      <trkpt lat="49.02634" lon="7.83223">
        <ele>272.1904297</ele>
        <time>2013-05-09T07:37:21Z</time>
      </trkpt>
      <trkpt lat="49.02634" lon="7.83213">
        <ele>272.1904297</ele>
        <time>2013-05-09T07:37:25Z</time>
      </trkpt>
      <trkpt lat="49.02634" lon="7.83206">
        <ele>272.1904297</ele>
        <time>2013-05-09T07:37:28Z</time>
      </trkpt>
      <trkpt lat="49.02635" lon="7.83199">
        <ele>272.1904297</ele>
        <time>2013-05-09T07:37:33Z</time>
      </trkpt>
      <trkpt lat="49.02637" lon="7.83193">
        <ele>272.6711426</ele>
        <time>2013-05-09T07:37:37Z</time>
      </trkpt>
      <trkpt lat="49.02631" lon="7.83178">
        <ele>274.1130371</ele>
        <time>2013-05-09T07:37:50Z</time>
      </trkpt>
      <trkpt lat="49.02628" lon="7.83175">
        <ele>274.59375</ele>
        <time>2013-05-09T07:37:52Z</time>
      </trkpt>
      <trkpt lat="49.02624" lon="7.8316">
        <ele>275.5550537</ele>
        <time>2013-05-09T07:38:03Z</time>
      </trkpt>
      <trkpt lat="49.02622" lon="7.8315">
        <ele>276.0356445</ele>
        <time>2013-05-09T07:38:11Z</time>
      </trkpt>
      <trkpt lat="49.02619" lon="7.83133">
        <ele>276.5163574</ele>
        <time>2013-05-09T07:38:23Z</time>
      </trkpt>
      <trkpt lat="49.02619" lon="7.83102">
        <ele>278.4389648</ele>
        <time>2013-05-09T07:38:39Z</time>
      </trkpt>
      <trkpt lat="49.02621" lon="7.83095">
        <ele>279.4002686</ele>
        <time>2013-05-09T07:38:45Z</time>
      </trkpt>
      <trkpt lat="49.02625" lon="7.83085">
        <ele>280.3616943</ele>
        <time>2013-05-09T07:38:51Z</time>
      </trkpt>
      <trkpt lat="49.02633" lon="7.83075">
        <ele>282.2843018</ele>
        <time>2013-05-09T07:39:05Z</time>
      </trkpt>
      <trkpt lat="49.02637" lon="7.83073">
        <ele>282.7650146</ele>
        <time>2013-05-09T07:39:10Z</time>
      </trkpt>
      <trkpt lat="49.0264" lon="7.83071">
        <ele>282.7650146</ele>
        <time>2013-05-09T07:39:13Z</time>
      </trkpt>
      <trkpt lat="49.02643" lon="7.8307">
        <ele>283.2456055</ele>
        <time>2013-05-09T07:39:16Z</time>
      </trkpt>
      <trkpt lat="49.02645" lon="7.83069">
        <ele>282.7650146</ele>
        <time>2013-05-09T07:39:19Z</time>
      </trkpt>
      <trkpt lat="49.02655" lon="7.83066">
        <ele>281.8035889</ele>
        <time>2013-05-09T07:39:32Z</time>
      </trkpt>
      <trkpt lat="49.02656" lon="7.83066">
        <ele>281.322998</ele>
        <time>2013-05-09T07:39:34Z</time>
      </trkpt>
      <trkpt lat="49.0266" lon="7.83062">
        <ele>280.8424072</ele>
        <time>2013-05-09T07:39:37Z</time>
      </trkpt>
      <trkpt lat="49.02669" lon="7.83057">
        <ele>279.8808594</ele>
        <time>2013-05-09T07:39:45Z</time>
      </trkpt>
      <trkpt lat="49.0268" lon="7.83048">
        <ele>279.4002686</ele>
        <time>2013-05-09T07:39:55Z</time>
      </trkpt>
      <trkpt lat="49.02692" lon="7.83046">
        <ele>278.9196777</ele>
        <time>2013-05-09T07:40:08Z</time>
      </trkpt>
      <trkpt lat="49.02703" lon="7.8303">
        <ele>278.9196777</ele>
        <time>2013-05-09T07:40:22Z</time>
      </trkpt>
      <trkpt lat="49.02708" lon="7.83022">
        <ele>278.4389648</ele>
        <time>2013-05-09T07:40:37Z</time>
      </trkpt>
      <trkpt lat="49.02721" lon="7.83005">
        <ele>278.4389648</ele>
        <time>2013-05-09T07:41:05Z</time>
      </trkpt>
      <trkpt lat="49.02723" lon="7.8299">
        <ele>277.958252</ele>
        <time>2013-05-09T07:41:13Z</time>
      </trkpt>
      <trkpt lat="49.02724" lon="7.82976">
        <ele>276.9970703</ele>
        <time>2013-05-09T07:41:22Z</time>
      </trkpt>
      <trkpt lat="49.02727" lon="7.82931">
        <ele>275.5550537</ele>
        <time>2013-05-09T07:41:45Z</time>
      </trkpt>
      <trkpt lat="49.02729" lon="7.82897">
        <ele>274.1130371</ele>
        <time>2013-05-09T07:42:05Z</time>
      </trkpt>
      <trkpt lat="49.0273" lon="7.82884">
        <ele>273.6324463</ele>
        <time>2013-05-09T07:42:22Z</time>
      </trkpt>
      <trkpt lat="49.02732" lon="7.82868">
        <ele>273.1518555</ele>
        <time>2013-05-09T07:42:36Z</time>
      </trkpt>
      <trkpt lat="49.02738" lon="7.8283">
        <ele>271.7097168</ele>
        <time>2013-05-09T07:42:56Z</time>
      </trkpt>
      <trkpt lat="49.02745" lon="7.8279">
        <ele>269.3065186</ele>
        <time>2013-05-09T07:43:18Z</time>
      </trkpt>
      <trkpt lat="49.02751" lon="7.8276">
        <ele>267.3839111</ele>
        <time>2013-05-09T07:43:36Z</time>
      </trkpt>
      <trkpt lat="49.02759" lon="7.82714">
        <ele>264.4998779</ele>
        <time>2013-05-09T07:44:03Z</time>
      </trkpt>
      <trkpt lat="49.02761" lon="7.82689">
        <ele>262.5771484</ele>
        <time>2013-05-09T07:44:18Z</time>
      </trkpt>
      <trkpt lat="49.02765" lon="7.82674">
        <ele>261.6159668</ele>
        <time>2013-05-09T07:44:37Z</time>
      </trkpt>
      <trkpt lat="49.02768" lon="7.82668">
        <ele>261.1352539</ele>
        <time>2013-05-09T07:45:03Z</time>
      </trkpt>
      <trkpt lat="49.0277" lon="7.82657">
        <ele>260.1739502</ele>
        <time>2013-05-09T07:45:22Z</time>
      </trkpt>
      <trkpt lat="49.02771" lon="7.82654">
        <ele>259.6933594</ele>
        <time>2013-05-09T07:45:24Z</time>
      </trkpt>
      <trkpt lat="49.02776" lon="7.82617">
        <ele>256.3287354</ele>
        <time>2013-05-09T07:45:45Z</time>
      </trkpt>
      <trkpt lat="49.02782" lon="7.82599">
        <ele>255.3673096</ele>
        <time>2013-05-09T07:45:58Z</time>
      </trkpt>
      <trkpt lat="49.02794" lon="7.82582">
        <ele>253.925415</ele>
        <time>2013-05-09T07:46:11Z</time>
      </trkpt>
      <trkpt lat="49.02805" lon="7.82565">
        <ele>253.925415</ele>
        <time>2013-05-09T07:46:24Z</time>
      </trkpt>
      <trkpt lat="49.02809" lon="7.82566">
        <ele>253.925415</ele>
        <time>2013-05-09T07:46:28Z</time>
      </trkpt>
      <trkpt lat="49.02827" lon="7.82587">
        <ele>254.4060059</ele>
        <time>2013-05-09T07:46:48Z</time>
      </trkpt>
      <trkpt lat="49.02854" lon="7.82604">
        <ele>255.8480225</ele>
        <time>2013-05-09T07:47:15Z</time>
      </trkpt>
      <trkpt lat="49.02876" lon="7.82597">
        <ele>257.2900391</ele>
        <time>2013-05-09T07:47:34Z</time>
      </trkpt>
      <trkpt lat="49.02906" lon="7.82582">
        <ele>259.2126465</ele>
        <time>2013-05-09T07:48:00Z</time>
      </trkpt>
      <trkpt lat="49.02928" lon="7.82569">
        <ele>261.6159668</ele>
        <time>2013-05-09T07:48:21Z</time>
      </trkpt>
      <trkpt lat="49.02939" lon="7.82559">
        <ele>263.0578613</ele>
        <time>2013-05-09T07:48:33Z</time>
      </trkpt>
      <trkpt lat="49.02942" lon="7.82556">
        <ele>263.5385742</ele>
        <time>2013-05-09T07:48:36Z</time>
      </trkpt>
      <trkpt lat="49.02967" lon="7.82531">
        <ele>264.9805908</ele>
        <time>2013-05-09T07:49:01Z</time>
      </trkpt>
      <trkpt lat="49.02979" lon="7.82518">
        <ele>266.4224854</ele>
        <time>2013-05-09T07:49:15Z</time>
      </trkpt>
      <trkpt lat="49.03" lon="7.82492">
        <ele>268.3450928</ele>
        <time>2013-05-09T07:49:40Z</time>
      </trkpt>
      <trkpt lat="49.03011" lon="7.82476">
        <ele>269.3065186</ele>
        <time>2013-05-09T07:49:56Z</time>
      </trkpt>
      <trkpt lat="49.03029" lon="7.82438">
        <ele>270.7484131</ele>
        <time>2013-05-09T07:50:22Z</time>
      </trkpt>
      <trkpt lat="49.03052" lon="7.82399">
        <ele>271.7097168</ele>
        <time>2013-05-09T07:50:51Z</time>
      </trkpt>
      <trkpt lat="49.03071" lon="7.82362">
        <ele>271.229126</ele>
        <time>2013-05-09T07:51:18Z</time>
      </trkpt>
      <trkpt lat="49.03094" lon="7.82326">
        <ele>269.7871094</ele>
        <time>2013-05-09T07:51:44Z</time>
      </trkpt>
      <trkpt lat="49.03111" lon="7.82313">
        <ele>268.8258057</ele>
        <time>2013-05-09T07:52:03Z</time>
      </trkpt>
      <trkpt lat="49.03112" lon="7.82312">
        <ele>268.8258057</ele>
        <time>2013-05-09T07:52:05Z</time>
      </trkpt>
      <trkpt lat="49.03134" lon="7.82303">
        <ele>267.864502</ele>
        <time>2013-05-09T07:52:26Z</time>
      </trkpt>
      <trkpt lat="49.03152" lon="7.82303">
        <ele>266.9031982</ele>
        <time>2013-05-09T07:52:43Z</time>
      </trkpt>
      <trkpt lat="49.03158" lon="7.82304">
        <ele>266.9031982</ele>
        <time>2013-05-09T07:52:49Z</time>
      </trkpt>
      <trkpt lat="49.03161" lon="7.82307">
        <ele>266.4224854</ele>
        <time>2013-05-09T07:52:52Z</time>
      </trkpt>
      <trkpt lat="49.03172" lon="7.82305">
        <ele>262.0965576</ele>
        <time>2013-05-09T07:53:00Z</time>
      </trkpt>
      <trkpt lat="49.03173" lon="7.82306">
        <ele>264.4998779</ele>
        <time>2013-05-09T07:53:01Z</time>
      </trkpt>
      <trkpt lat="49.03174" lon="7.82305">
        <ele>260.1739502</ele>
        <time>2013-05-09T07:53:02Z</time>
      </trkpt>
      <trkpt lat="49.03178" lon="7.82306">
        <ele>260.654541</ele>
        <time>2013-05-09T07:53:05Z</time>
      </trkpt>
      <trkpt lat="49.03179" lon="7.82307">
        <ele>266.4224854</ele>
        <time>2013-05-09T07:53:06Z</time>
      </trkpt>
      <trkpt lat="49.03179" lon="7.82309">
        <ele>265.4613037</ele>
        <time>2013-05-09T07:53:08Z</time>
      </trkpt>
      <trkpt lat="49.03184" lon="7.8231">
        <ele>264.9805908</ele>
        <time>2013-05-09T07:53:10Z</time>
      </trkpt>
      <trkpt lat="49.03189" lon="7.82317">
        <ele>264.4998779</ele>
        <time>2013-05-09T07:53:16Z</time>
      </trkpt>
      <trkpt lat="49.03212" lon="7.82335">
        <ele>263.5385742</ele>
        <time>2013-05-09T07:53:35Z</time>
      </trkpt>
      <trkpt lat="49.03243" lon="7.82329">
        <ele>262.5771484</ele>
        <time>2013-05-09T07:54:01Z</time>
      </trkpt>
      <trkpt lat="49.03282" lon="7.82289">
        <ele>263.0578613</ele>
        <time>2013-05-09T07:54:38Z</time>
      </trkpt>
      <trkpt lat="49.03318" lon="7.82269">
        <ele>264.4998779</ele>
        <time>2013-05-09T07:55:11Z</time>
      </trkpt>
      <trkpt lat="49.03354" lon="7.82239">
        <ele>264.4998779</ele>
        <time>2013-05-09T07:55:45Z</time>
      </trkpt>
      <trkpt lat="49.03368" lon="7.82215">
        <ele>264.4998779</ele>
        <time>2013-05-09T07:56:02Z</time>
      </trkpt>
      <trkpt lat="49.0339" lon="7.82203">
        <ele>264.9805908</ele>
        <time>2013-05-09T07:56:21Z</time>
      </trkpt>
      <trkpt lat="49.03413" lon="7.82186">
        <ele>265.4613037</ele>
        <time>2013-05-09T07:56:42Z</time>
      </trkpt>
      <trkpt lat="49.03433" lon="7.82164">
        <ele>265.4613037</ele>
        <time>2013-05-09T07:57:03Z</time>
      </trkpt>
      <trkpt lat="49.03435" lon="7.82158">
        <ele>265.4613037</ele>
        <time>2013-05-09T07:57:07Z</time>
      </trkpt>
      <trkpt lat="49.03445" lon="7.8214">
        <ele>264.4998779</ele>
        <time>2013-05-09T07:57:20Z</time>
      </trkpt>
      <trkpt lat="49.03448" lon="7.82137">
        <ele>264.4998779</ele>
        <time>2013-05-09T07:57:23Z</time>
      </trkpt>
      <trkpt lat="49.0345" lon="7.82135">
        <ele>264.9805908</ele>
        <time>2013-05-09T07:57:25Z</time>
      </trkpt>
      <trkpt lat="49.03461" lon="7.82124">
        <ele>264.4998779</ele>
        <time>2013-05-09T07:57:38Z</time>
      </trkpt>
      <trkpt lat="49.03464" lon="7.8212">
        <ele>264.4998779</ele>
        <time>2013-05-09T07:57:42Z</time>
      </trkpt>
      <trkpt lat="49.03474" lon="7.82093">
        <ele>264.0192871</ele>
        <time>2013-05-09T07:57:59Z</time>
      </trkpt>
      <trkpt lat="49.03482" lon="7.82062">
        <ele>264.4998779</ele>
        <time>2013-05-09T07:58:16Z</time>
      </trkpt>
      <trkpt lat="49.03493" lon="7.82035">
        <ele>264.4998779</ele>
        <time>2013-05-09T07:58:28Z</time>
      </trkpt>
      <trkpt lat="49.03499" lon="7.8202">
        <ele>264.9805908</ele>
        <time>2013-05-09T07:58:40Z</time>
      </trkpt>
      <trkpt lat="49.03505" lon="7.8199">
        <ele>265.4613037</ele>
        <time>2013-05-09T07:58:59Z</time>
      </trkpt>
      <trkpt lat="49.03508" lon="7.81961">
        <ele>265.9418945</ele>
        <time>2013-05-09T07:59:17Z</time>
      </trkpt>
      <trkpt lat="49.03517" lon="7.81932">
        <ele>266.9031982</ele>
        <time>2013-05-09T07:59:34Z</time>
      </trkpt>
      <trkpt lat="49.03517" lon="7.81927">
        <ele>266.9031982</ele>
        <time>2013-05-09T07:59:36Z</time>
      </trkpt>
      <trkpt lat="49.03531" lon="7.81885">
        <ele>267.3839111</ele>
        <time>2013-05-09T07:59:55Z</time>
      </trkpt>
      <trkpt lat="49.03535" lon="7.81879">
        <ele>267.3839111</ele>
        <time>2013-05-09T08:00:01Z</time>
      </trkpt>
      <trkpt lat="49.03546" lon="7.8186">
        <ele>269.3065186</ele>
        <time>2013-05-09T08:00:17Z</time>
      </trkpt>
      <trkpt lat="49.03565" lon="7.81832">
        <ele>268.3450928</ele>
        <time>2013-05-09T08:00:33Z</time>
      </trkpt>
      <trkpt lat="49.03579" lon="7.81812">
        <ele>267.864502</ele>
        <time>2013-05-09T08:00:48Z</time>
      </trkpt>
      <trkpt lat="49.03596" lon="7.81789">
        <ele>267.3839111</ele>
        <time>2013-05-09T08:01:05Z</time>
      </trkpt>
      <trkpt lat="49.03596" lon="7.81787">
        <ele>267.3839111</ele>
        <time>2013-05-09T08:01:07Z</time>
      </trkpt>
      <trkpt lat="49.03601" lon="7.81782">
        <ele>267.3839111</ele>
        <time>2013-05-09T08:01:11Z</time>
      </trkpt>
      <trkpt lat="49.03603" lon="7.81777">
        <ele>267.3839111</ele>
        <time>2013-05-09T08:01:14Z</time>
      </trkpt>
      <trkpt lat="49.0361" lon="7.81765">
        <ele>267.864502</ele>
        <time>2013-05-09T08:01:31Z</time>
      </trkpt>
      <trkpt lat="49.03611" lon="7.81765">
        <ele>268.3450928</ele>
        <time>2013-05-09T08:01:48Z</time>
      </trkpt>
      <trkpt lat="49.0361" lon="7.81767">
        <ele>268.8258057</ele>
        <time>2013-05-09T08:02:19Z</time>
      </trkpt>
      <trkpt lat="49.03614" lon="7.81756">
        <ele>267.3839111</ele>
        <time>2013-05-09T08:02:35Z</time>
      </trkpt>
      <trkpt lat="49.03611" lon="7.81756">
        <ele>267.864502</ele>
        <time>2013-05-09T08:03:16Z</time>
      </trkpt>
      <trkpt lat="49.0362" lon="7.81747">
        <ele>268.8258057</ele>
        <time>2013-05-09T08:05:20Z</time>
      </trkpt>
      <trkpt lat="49.03633" lon="7.81742">
        <ele>269.7871094</ele>
        <time>2013-05-09T08:05:28Z</time>
      </trkpt>
      <trkpt lat="49.03641" lon="7.81743">
        <ele>270.2677002</ele>
        <time>2013-05-09T08:05:35Z</time>
      </trkpt>
      <trkpt lat="49.03654" lon="7.8173">
        <ele>270.7484131</ele>
        <time>2013-05-09T08:05:47Z</time>
      </trkpt>
      <trkpt lat="49.0366" lon="7.81725">
        <ele>271.229126</ele>
        <time>2013-05-09T08:05:51Z</time>
      </trkpt>
      <trkpt lat="49.03674" lon="7.81723">
        <ele>271.7097168</ele>
        <time>2013-05-09T08:06:05Z</time>
      </trkpt>
      <trkpt lat="49.03682" lon="7.81715">
        <ele>271.7097168</ele>
        <time>2013-05-09T08:06:12Z</time>
      </trkpt>
      <trkpt lat="49.03686" lon="7.81709">
        <ele>271.7097168</ele>
        <time>2013-05-09T08:06:17Z</time>
      </trkpt>
      <trkpt lat="49.03697" lon="7.81699">
        <ele>271.7097168</ele>
        <time>2013-05-09T08:06:29Z</time>
      </trkpt>
      <trkpt lat="49.03699" lon="7.81693">
        <ele>272.1904297</ele>
        <time>2013-05-09T08:06:33Z</time>
      </trkpt>
      <trkpt lat="49.03702" lon="7.81695">
        <ele>272.1904297</ele>
        <time>2013-05-09T08:06:36Z</time>
      </trkpt>
      <trkpt lat="49.03708" lon="7.81697">
        <ele>272.6711426</ele>
        <time>2013-05-09T08:06:40Z</time>
      </trkpt>
      <trkpt lat="49.03713" lon="7.81692">
        <ele>272.6711426</ele>
        <time>2013-05-09T08:06:46Z</time>
      </trkpt>
      <trkpt lat="49.03716" lon="7.81688">
        <ele>272.6711426</ele>
        <time>2013-05-09T08:06:49Z</time>
      </trkpt>
      <trkpt lat="49.03722" lon="7.81687">
        <ele>272.6711426</ele>
        <time>2013-05-09T08:06:54Z</time>
      </trkpt>
      <trkpt lat="49.03723" lon="7.81685">
        <ele>273.1518555</ele>
        <time>2013-05-09T08:06:56Z</time>
      </trkpt>
      <trkpt lat="49.03729" lon="7.81684">
        <ele>273.1518555</ele>
        <time>2013-05-09T08:07:01Z</time>
      </trkpt>
      <trkpt lat="49.03733" lon="7.8168">
        <ele>273.1518555</ele>
        <time>2013-05-09T08:07:08Z</time>
      </trkpt>
      <trkpt lat="49.03755" lon="7.81668">
        <ele>274.1130371</ele>
        <time>2013-05-09T08:07:28Z</time>
      </trkpt>
      <trkpt lat="49.03756" lon="7.81667">
        <ele>274.1130371</ele>
        <time>2013-05-09T08:07:30Z</time>
      </trkpt>
      <trkpt lat="49.03768" lon="7.81664">
        <ele>274.59375</ele>
        <time>2013-05-09T08:07:43Z</time>
      </trkpt>
      <trkpt lat="49.03769" lon="7.81665">
        <ele>274.59375</ele>
        <time>2013-05-09T08:07:45Z</time>
      </trkpt>
      <trkpt lat="49.03775" lon="7.81665">
        <ele>274.59375</ele>
        <time>2013-05-09T08:07:50Z</time>
      </trkpt>
      <trkpt lat="49.0378" lon="7.81665">
        <ele>274.59375</ele>
        <time>2013-05-09T08:07:55Z</time>
      </trkpt>
      <trkpt lat="49.03785" lon="7.81663">
        <ele>275.0744629</ele>
        <time>2013-05-09T08:07:59Z</time>
      </trkpt>
      <trkpt lat="49.03796" lon="7.81659">
        <ele>275.0744629</ele>
        <time>2013-05-09T08:08:09Z</time>
      </trkpt>
      <trkpt lat="49.03811" lon="7.81661">
        <ele>275.5550537</ele>
        <time>2013-05-09T08:08:23Z</time>
      </trkpt>
      <trkpt lat="49.03813" lon="7.81661">
        <ele>275.5550537</ele>
        <time>2013-05-09T08:08:25Z</time>
      </trkpt>
      <trkpt lat="49.03815" lon="7.8166">
        <ele>275.5550537</ele>
        <time>2013-05-09T08:08:27Z</time>
      </trkpt>
      <trkpt lat="49.03823" lon="7.81664">
        <ele>276.5163574</ele>
        <time>2013-05-09T08:08:33Z</time>
      </trkpt>
      <trkpt lat="49.03831" lon="7.81664">
        <ele>276.5163574</ele>
        <time>2013-05-09T08:08:41Z</time>
      </trkpt>
      <trkpt lat="49.03849" lon="7.81676">
        <ele>277.4776611</ele>
        <time>2013-05-09T08:08:55Z</time>
      </trkpt>
      <trkpt lat="49.03864" lon="7.81683">
        <ele>277.958252</ele>
        <time>2013-05-09T08:09:07Z</time>
      </trkpt>
      <trkpt lat="49.03874" lon="7.81688">
        <ele>278.4389648</ele>
        <time>2013-05-09T08:09:16Z</time>
      </trkpt>
      <trkpt lat="49.03877" lon="7.81688">
        <ele>278.9196777</ele>
        <time>2013-05-09T08:09:19Z</time>
      </trkpt>
      <trkpt lat="49.03879" lon="7.81693">
        <ele>277.958252</ele>
        <time>2013-05-09T08:09:30Z</time>
      </trkpt>
      <trkpt lat="49.03905" lon="7.81665">
        <ele>278.9196777</ele>
        <time>2013-05-09T08:09:42Z</time>
      </trkpt>
      <trkpt lat="49.03909" lon="7.81661">
        <ele>278.9196777</ele>
        <time>2013-05-09T08:09:44Z</time>
      </trkpt>
      <trkpt lat="49.03916" lon="7.81651">
        <ele>278.9196777</ele>
        <time>2013-05-09T08:09:49Z</time>
      </trkpt>
      <trkpt lat="49.03918" lon="7.81647">
        <ele>278.9196777</ele>
        <time>2013-05-09T08:09:51Z</time>
      </trkpt>
      <trkpt lat="49.03925" lon="7.81628">
        <ele>276.9970703</ele>
        <time>2013-05-09T08:10:02Z</time>
      </trkpt>
      <trkpt lat="49.03931" lon="7.81624">
        <ele>276.5163574</ele>
        <time>2013-05-09T08:10:07Z</time>
      </trkpt>
      <trkpt lat="49.03933" lon="7.81622">
        <ele>276.0356445</ele>
        <time>2013-05-09T08:10:09Z</time>
      </trkpt>
      <trkpt lat="49.03941" lon="7.81612">
        <ele>276.0356445</ele>
        <time>2013-05-09T08:10:18Z</time>
      </trkpt>
      <trkpt lat="49.03943" lon="7.8161">
        <ele>276.0356445</ele>
        <time>2013-05-09T08:10:20Z</time>
      </trkpt>
      <trkpt lat="49.03944" lon="7.81606">
        <ele>276.5163574</ele>
        <time>2013-05-09T08:10:23Z</time>
      </trkpt>
      <trkpt lat="49.03946" lon="7.81604">
        <ele>276.5163574</ele>
        <time>2013-05-09T08:10:25Z</time>
      </trkpt>
      <trkpt lat="49.03949" lon="7.81601">
        <ele>276.5163574</ele>
        <time>2013-05-09T08:10:28Z</time>
      </trkpt>
      <trkpt lat="49.03957" lon="7.81594">
        <ele>276.5163574</ele>
        <time>2013-05-09T08:10:35Z</time>
      </trkpt>
      <trkpt lat="49.0396" lon="7.81587">
        <ele>276.9970703</ele>
        <time>2013-05-09T08:10:39Z</time>
      </trkpt>
      <trkpt lat="49.0397" lon="7.81575">
        <ele>277.4776611</ele>
        <time>2013-05-09T08:10:49Z</time>
      </trkpt>
      <trkpt lat="49.03979" lon="7.81568">
        <ele>276.9970703</ele>
        <time>2013-05-09T08:10:57Z</time>
      </trkpt>
      <trkpt lat="49.03988" lon="7.8156">
        <ele>277.958252</ele>
        <time>2013-05-09T08:11:06Z</time>
      </trkpt>
      <trkpt lat="49.0399" lon="7.8156">
        <ele>278.4389648</ele>
        <time>2013-05-09T08:11:08Z</time>
      </trkpt>
      <trkpt lat="49.03996" lon="7.81554">
        <ele>278.9196777</ele>
        <time>2013-05-09T08:11:14Z</time>
      </trkpt>
      <trkpt lat="49.04" lon="7.81548">
        <ele>278.9196777</ele>
        <time>2013-05-09T08:11:19Z</time>
      </trkpt>
      <trkpt lat="49.04011" lon="7.81535">
        <ele>279.4002686</ele>
        <time>2013-05-09T08:11:31Z</time>
      </trkpt>
      <trkpt lat="49.04012" lon="7.81527">
        <ele>279.4002686</ele>
        <time>2013-05-09T08:11:36Z</time>
      </trkpt>
      <trkpt lat="49.04015" lon="7.81522">
        <ele>279.4002686</ele>
        <time>2013-05-09T08:11:39Z</time>
      </trkpt>
      <trkpt lat="49.04015" lon="7.81517">
        <ele>279.4002686</ele>
        <time>2013-05-09T08:11:42Z</time>
      </trkpt>
      <trkpt lat="49.04017" lon="7.81506">
        <ele>279.8808594</ele>
        <time>2013-05-09T08:12:01Z</time>
      </trkpt>
      <trkpt lat="49.04029" lon="7.81484">
        <ele>280.3616943</ele>
        <time>2013-05-09T08:12:19Z</time>
      </trkpt>
      <trkpt lat="49.04031" lon="7.81482">
        <ele>280.3616943</ele>
        <time>2013-05-09T08:12:21Z</time>
      </trkpt>
      <trkpt lat="49.04038" lon="7.8147">
        <ele>279.8808594</ele>
        <time>2013-05-09T08:12:30Z</time>
      </trkpt>
      <trkpt lat="49.04041" lon="7.81467">
        <ele>280.3616943</ele>
        <time>2013-05-09T08:12:33Z</time>
      </trkpt>
      <trkpt lat="49.04044" lon="7.81462">
        <ele>280.8424072</ele>
        <time>2013-05-09T08:12:37Z</time>
      </trkpt>
      <trkpt lat="49.04048" lon="7.81458">
        <ele>281.322998</ele>
        <time>2013-05-09T08:12:40Z</time>
      </trkpt>
      <trkpt lat="49.04059" lon="7.81444">
        <ele>281.8035889</ele>
        <time>2013-05-09T08:12:53Z</time>
      </trkpt>
      <trkpt lat="49.04066" lon="7.81441">
        <ele>282.2843018</ele>
        <time>2013-05-09T08:12:59Z</time>
      </trkpt>
      <trkpt lat="49.04069" lon="7.81438">
        <ele>281.8035889</ele>
        <time>2013-05-09T08:13:03Z</time>
      </trkpt>
      <trkpt lat="49.04083" lon="7.81428">
        <ele>283.2456055</ele>
        <time>2013-05-09T08:13:15Z</time>
      </trkpt>
      <trkpt lat="49.04086" lon="7.81427">
        <ele>283.2456055</ele>
        <time>2013-05-09T08:13:17Z</time>
      </trkpt>
      <trkpt lat="49.04089" lon="7.81422">
        <ele>283.2456055</ele>
        <time>2013-05-09T08:13:21Z</time>
      </trkpt>
      <trkpt lat="49.04092" lon="7.81418">
        <ele>283.2456055</ele>
        <time>2013-05-09T08:13:25Z</time>
      </trkpt>
      <trkpt lat="49.04103" lon="7.81415">
        <ele>284.2069092</ele>
        <time>2013-05-09T08:13:34Z</time>
      </trkpt>
      <trkpt lat="49.04105" lon="7.81412">
        <ele>284.2069092</ele>
        <time>2013-05-09T08:13:36Z</time>
      </trkpt>
      <trkpt lat="49.04118" lon="7.81401">
        <ele>284.2069092</ele>
        <time>2013-05-09T08:13:46Z</time>
      </trkpt>
      <trkpt lat="49.04124" lon="7.81397">
        <ele>284.2069092</ele>
        <time>2013-05-09T08:13:51Z</time>
      </trkpt>
      <trkpt lat="49.04142" lon="7.81385">
        <ele>285.1682129</ele>
        <time>2013-05-09T08:14:10Z</time>
      </trkpt>
      <trkpt lat="49.04145" lon="7.81384">
        <ele>285.6488037</ele>
        <time>2013-05-09T08:14:15Z</time>
      </trkpt>
      <trkpt lat="49.04148" lon="7.81382">
        <ele>285.6488037</ele>
        <time>2013-05-09T08:14:19Z</time>
      </trkpt>
      <trkpt lat="49.04151" lon="7.81382">
        <ele>285.6488037</ele>
        <time>2013-05-09T08:14:22Z</time>
      </trkpt>
      <trkpt lat="49.04155" lon="7.81382">
        <ele>285.6488037</ele>
        <time>2013-05-09T08:14:27Z</time>
      </trkpt>
      <trkpt lat="49.04172" lon="7.81381">
        <ele>285.1682129</ele>
        <time>2013-05-09T08:14:42Z</time>
      </trkpt>
      <trkpt lat="49.04181" lon="7.81376">
        <ele>285.1682129</ele>
        <time>2013-05-09T08:14:51Z</time>
      </trkpt>
      <trkpt lat="49.04194" lon="7.81376">
        <ele>285.6488037</ele>
        <time>2013-05-09T08:15:05Z</time>
      </trkpt>
      <trkpt lat="49.04202" lon="7.81378">
        <ele>285.6488037</ele>
        <time>2013-05-09T08:15:10Z</time>
      </trkpt>
      <trkpt lat="49.04206" lon="7.81379">
        <ele>285.6488037</ele>
        <time>2013-05-09T08:15:14Z</time>
      </trkpt>
      <trkpt lat="49.04216" lon="7.81384">
        <ele>285.6488037</ele>
        <time>2013-05-09T08:15:21Z</time>
      </trkpt>
      <trkpt lat="49.04219" lon="7.81383">
        <ele>285.6488037</ele>
        <time>2013-05-09T08:15:24Z</time>
      </trkpt>
      <trkpt lat="49.04232" lon="7.81389">
        <ele>285.6488037</ele>
        <time>2013-05-09T08:15:35Z</time>
      </trkpt>
      <trkpt lat="49.04248" lon="7.81396">
        <ele>286.1295166</ele>
        <time>2013-05-09T08:15:46Z</time>
      </trkpt>
      <trkpt lat="49.04255" lon="7.81399">
        <ele>286.1295166</ele>
        <time>2013-05-09T08:15:52Z</time>
      </trkpt>
      <trkpt lat="49.04258" lon="7.81399">
        <ele>286.1295166</ele>
        <time>2013-05-09T08:15:55Z</time>
      </trkpt>
      <trkpt lat="49.0426" lon="7.81399">
        <ele>286.1295166</ele>
        <time>2013-05-09T08:15:57Z</time>
      </trkpt>
      <trkpt lat="49.04264" lon="7.81401">
        <ele>286.1295166</ele>
        <time>2013-05-09T08:16:01Z</time>
      </trkpt>
      <trkpt lat="49.04268" lon="7.81402">
        <ele>286.1295166</ele>
        <time>2013-05-09T08:16:03Z</time>
      </trkpt>
      <trkpt lat="49.04272" lon="7.81401">
        <ele>286.1295166</ele>
        <time>2013-05-09T08:16:06Z</time>
      </trkpt>
      <trkpt lat="49.04282" lon="7.81399">
        <ele>286.1295166</ele>
        <time>2013-05-09T08:16:12Z</time>
      </trkpt>
      <trkpt lat="49.04294" lon="7.81394">
        <ele>286.6102295</ele>
        <time>2013-05-09T08:16:21Z</time>
      </trkpt>
      <trkpt lat="49.04298" lon="7.81393">
        <ele>287.0908203</ele>
        <time>2013-05-09T08:16:25Z</time>
      </trkpt>
      <trkpt lat="49.04313" lon="7.81388">
        <ele>287.0908203</ele>
        <time>2013-05-09T08:16:35Z</time>
      </trkpt>
      <trkpt lat="49.04328" lon="7.81387">
        <ele>288.0522461</ele>
        <time>2013-05-09T08:16:50Z</time>
      </trkpt>
      <trkpt lat="49.04335" lon="7.81383">
        <ele>287.5714111</ele>
        <time>2013-05-09T08:16:55Z</time>
      </trkpt>
      <trkpt lat="49.04347" lon="7.81365">
        <ele>288.0522461</ele>
        <time>2013-05-09T08:17:09Z</time>
      </trkpt>
      <trkpt lat="49.04349" lon="7.81361">
        <ele>287.5714111</ele>
        <time>2013-05-09T08:17:12Z</time>
      </trkpt>
      <trkpt lat="49.04351" lon="7.81357">
        <ele>287.5714111</ele>
        <time>2013-05-09T08:17:15Z</time>
      </trkpt>
      <trkpt lat="49.0436" lon="7.81345">
        <ele>288.0522461</ele>
        <time>2013-05-09T08:17:29Z</time>
      </trkpt>
      <trkpt lat="49.04366" lon="7.81345">
        <ele>290.4555664</ele>
        <time>2013-05-09T08:17:43Z</time>
      </trkpt>
      <trkpt lat="49.04376" lon="7.81345">
        <ele>290.9361572</ele>
        <time>2013-05-09T08:17:55Z</time>
      </trkpt>
      <trkpt lat="49.04394" lon="7.81349">
        <ele>291.416748</ele>
        <time>2013-05-09T08:18:18Z</time>
      </trkpt>
      <trkpt lat="49.04411" lon="7.81354">
        <ele>291.8974609</ele>
        <time>2013-05-09T08:18:34Z</time>
      </trkpt>
      <trkpt lat="49.04427" lon="7.81348">
        <ele>292.8587646</ele>
        <time>2013-05-09T08:18:49Z</time>
      </trkpt>
      <trkpt lat="49.04438" lon="7.81353">
        <ele>293.8200684</ele>
        <time>2013-05-09T08:19:02Z</time>
      </trkpt>
      <trkpt lat="49.04451" lon="7.81358">
        <ele>294.7813721</ele>
        <time>2013-05-09T08:19:17Z</time>
      </trkpt>
      <trkpt lat="49.04473" lon="7.81358">
        <ele>295.2619629</ele>
        <time>2013-05-09T08:19:30Z</time>
      </trkpt>
      <trkpt lat="49.04477" lon="7.81355">
        <ele>295.7426758</ele>
        <time>2013-05-09T08:19:34Z</time>
      </trkpt>
      <trkpt lat="49.04492" lon="7.81348">
        <ele>295.2619629</ele>
        <time>2013-05-09T08:19:47Z</time>
      </trkpt>
      <trkpt lat="49.04499" lon="7.81347">
        <ele>295.2619629</ele>
        <time>2013-05-09T08:20:06Z</time>
      </trkpt>
      <trkpt lat="49.04508" lon="7.81345">
        <ele>296.2235107</ele>
        <time>2013-05-09T08:20:17Z</time>
      </trkpt>
      <trkpt lat="49.0451" lon="7.81344">
        <ele>295.2619629</ele>
        <time>2013-05-09T08:20:19Z</time>
      </trkpt>
      <trkpt lat="49.04528" lon="7.81338">
        <ele>295.2619629</ele>
        <time>2013-05-09T08:20:35Z</time>
      </trkpt>
      <trkpt lat="49.04552" lon="7.81334">
        <ele>295.7426758</ele>
        <time>2013-05-09T08:20:52Z</time>
      </trkpt>
      <trkpt lat="49.04558" lon="7.81333">
        <ele>295.7426758</ele>
        <time>2013-05-09T08:21:15Z</time>
      </trkpt>
      <trkpt lat="49.04564" lon="7.8133">
        <ele>295.7426758</ele>
        <time>2013-05-09T08:21:19Z</time>
      </trkpt>
      <trkpt lat="49.0457" lon="7.81332">
        <ele>295.7426758</ele>
        <time>2013-05-09T08:21:24Z</time>
      </trkpt>
      <trkpt lat="49.04595" lon="7.81313">
        <ele>297.1846924</ele>
        <time>2013-05-09T08:21:48Z</time>
      </trkpt>
      <trkpt lat="49.04613" lon="7.81306">
        <ele>297.6654053</ele>
        <time>2013-05-09T08:22:06Z</time>
      </trkpt>
      <trkpt lat="49.04631" lon="7.81296">
        <ele>297.6654053</ele>
        <time>2013-05-09T08:22:22Z</time>
      </trkpt>
      <trkpt lat="49.04646" lon="7.81283">
        <ele>297.6654053</ele>
        <time>2013-05-09T08:22:37Z</time>
      </trkpt>
      <trkpt lat="49.04658" lon="7.81283">
        <ele>298.1461182</ele>
        <time>2013-05-09T08:22:50Z</time>
      </trkpt>
      <trkpt lat="49.04666" lon="7.81287">
        <ele>298.1461182</ele>
        <time>2013-05-09T08:22:58Z</time>
      </trkpt>
      <trkpt lat="49.0467" lon="7.81291">
        <ele>299.1072998</ele>
        <time>2013-05-09T08:23:06Z</time>
      </trkpt>
      <trkpt lat="49.04677" lon="7.81299">
        <ele>298.626709</ele>
        <time>2013-05-09T08:23:16Z</time>
      </trkpt>
      <trkpt lat="49.04683" lon="7.81302">
        <ele>299.1072998</ele>
        <time>2013-05-09T08:23:20Z</time>
      </trkpt>
      <trkpt lat="49.04688" lon="7.81304">
        <ele>299.1072998</ele>
        <time>2013-05-09T08:23:24Z</time>
      </trkpt>
      <trkpt lat="49.04719" lon="7.813">
        <ele>300.5493164</ele>
        <time>2013-05-09T08:23:50Z</time>
      </trkpt>
      <trkpt lat="49.04736" lon="7.81295">
        <ele>301.991333</ele>
        <time>2013-05-09T08:24:05Z</time>
      </trkpt>
      <trkpt lat="49.0476" lon="7.8129">
        <ele>302.9525146</ele>
        <time>2013-05-09T08:24:26Z</time>
      </trkpt>
      <trkpt lat="49.04777" lon="7.81284">
        <ele>304.3946533</ele>
        <time>2013-05-09T08:24:39Z</time>
      </trkpt>
      <trkpt lat="49.04789" lon="7.81279">
        <ele>305.8366699</ele>
        <time>2013-05-09T08:24:52Z</time>
      </trkpt>
      <trkpt lat="49.048" lon="7.81273">
        <ele>307.2785645</ele>
        <time>2013-05-09T08:25:02Z</time>
      </trkpt>
      <trkpt lat="49.04817" lon="7.81262">
        <ele>308.2398682</ele>
        <time>2013-05-09T08:25:16Z</time>
      </trkpt>
      <trkpt lat="49.04831" lon="7.81258">
        <ele>309.6818848</ele>
        <time>2013-05-09T08:25:28Z</time>
      </trkpt>
      <trkpt lat="49.04845" lon="7.81251">
        <ele>311.1237793</ele>
        <time>2013-05-09T08:25:43Z</time>
      </trkpt>
      <trkpt lat="49.04856" lon="7.8124">
        <ele>313.0465088</ele>
        <time>2013-05-09T08:25:58Z</time>
      </trkpt>
      <trkpt lat="49.04869" lon="7.8123">
        <ele>313.5272217</ele>
        <time>2013-05-09T08:26:12Z</time>
      </trkpt>
      <trkpt lat="49.04886" lon="7.81218">
        <ele>315.4498291</ele>
        <time>2013-05-09T08:26:28Z</time>
      </trkpt>
      <trkpt lat="49.04895" lon="7.8121">
        <ele>316.4110107</ele>
        <time>2013-05-09T08:26:37Z</time>
      </trkpt>
      <trkpt lat="49.04904" lon="7.81193">
        <ele>317.3724365</ele>
        <time>2013-05-09T08:26:49Z</time>
      </trkpt>
      <trkpt lat="49.0491" lon="7.8118">
        <ele>318.8143311</ele>
        <time>2013-05-09T08:26:59Z</time>
      </trkpt>
      <trkpt lat="49.0491" lon="7.81149">
        <ele>319.7756348</ele>
        <time>2013-05-09T08:27:14Z</time>
      </trkpt>
      <trkpt lat="49.04912" lon="7.81138">
        <ele>320.7370605</ele>
        <time>2013-05-09T08:27:20Z</time>
      </trkpt>
      <trkpt lat="49.04912" lon="7.81133">
        <ele>320.7370605</ele>
        <time>2013-05-09T08:27:23Z</time>
      </trkpt>
      <trkpt lat="49.04921" lon="7.81115">
        <ele>322.1789551</ele>
        <time>2013-05-09T08:27:37Z</time>
      </trkpt>
      <trkpt lat="49.04935" lon="7.81098">
        <ele>324.1015625</ele>
        <time>2013-05-09T08:27:52Z</time>
      </trkpt>
      <trkpt lat="49.04946" lon="7.81077">
        <ele>325.5435791</ele>
        <time>2013-05-09T08:28:09Z</time>
      </trkpt>
      <trkpt lat="49.0495" lon="7.81057">
        <ele>326.9855957</ele>
        <time>2013-05-09T08:28:22Z</time>
      </trkpt>
      <trkpt lat="49.04951" lon="7.81049">
        <ele>327.4661865</ele>
        <time>2013-05-09T08:28:28Z</time>
      </trkpt>
      <trkpt lat="49.04955" lon="7.81039">
        <ele>327.9467773</ele>
        <time>2013-05-09T08:28:40Z</time>
      </trkpt>
      <trkpt lat="49.04957" lon="7.81023">
        <ele>328.9083252</ele>
        <time>2013-05-09T08:28:51Z</time>
      </trkpt>
      <trkpt lat="49.04957" lon="7.8102">
        <ele>328.9083252</ele>
        <time>2013-05-09T08:28:53Z</time>
      </trkpt>
      <trkpt lat="49.04959" lon="7.81014">
        <ele>329.388916</ele>
        <time>2013-05-09T08:28:57Z</time>
      </trkpt>
      <trkpt lat="49.04956" lon="7.81006">
        <ele>329.8695068</ele>
        <time>2013-05-09T08:29:15Z</time>
      </trkpt>
      <trkpt lat="49.04959" lon="7.80987">
        <ele>330.8309326</ele>
        <time>2013-05-09T08:29:33Z</time>
      </trkpt>
      <trkpt lat="49.0496" lon="7.80968">
        <ele>331.7921143</ele>
        <time>2013-05-09T08:29:42Z</time>
      </trkpt>
      <trkpt lat="49.04962" lon="7.80959">
        <ele>332.75354</ele>
        <time>2013-05-09T08:29:50Z</time>
      </trkpt>
      <trkpt lat="49.04964" lon="7.80941">
        <ele>334.1954346</ele>
        <time>2013-05-09T08:30:04Z</time>
      </trkpt>
      <trkpt lat="49.04969" lon="7.80922">
        <ele>334.6761475</ele>
        <time>2013-05-09T08:30:17Z</time>
      </trkpt>
      <trkpt lat="49.04978" lon="7.80897">
        <ele>336.598877</ele>
        <time>2013-05-09T08:30:33Z</time>
      </trkpt>
      <trkpt lat="49.04996" lon="7.80884">
        <ele>338.5214844</ele>
        <time>2013-05-09T08:30:50Z</time>
      </trkpt>
      <trkpt lat="49.05009" lon="7.80877">
        <ele>339.482666</ele>
        <time>2013-05-09T08:31:06Z</time>
      </trkpt>
      <trkpt lat="49.05012" lon="7.80874">
        <ele>339.9633789</ele>
        <time>2013-05-09T08:31:10Z</time>
      </trkpt>
      <trkpt lat="49.05026" lon="7.80856">
        <ele>341.4052734</ele>
        <time>2013-05-09T08:31:25Z</time>
      </trkpt>
      <trkpt lat="49.05029" lon="7.80849">
        <ele>341.8859863</ele>
        <time>2013-05-09T08:31:29Z</time>
      </trkpt>
      <trkpt lat="49.0503" lon="7.80846">
        <ele>342.3666992</ele>
        <time>2013-05-09T08:31:32Z</time>
      </trkpt>
      <trkpt lat="49.05033" lon="7.8084">
        <ele>342.84729</ele>
        <time>2013-05-09T08:31:36Z</time>
      </trkpt>
      <trkpt lat="49.05036" lon="7.80837">
        <ele>342.84729</ele>
        <time>2013-05-09T08:31:38Z</time>
      </trkpt>
      <trkpt lat="49.05037" lon="7.80834">
        <ele>342.84729</ele>
        <time>2013-05-09T08:31:40Z</time>
      </trkpt>
      <trkpt lat="49.0504" lon="7.80822">
        <ele>343.8085938</ele>
        <time>2013-05-09T08:31:50Z</time>
      </trkpt>
      <trkpt lat="49.05043" lon="7.80805">
        <ele>345.2506104</ele>
        <time>2013-05-09T08:32:03Z</time>
      </trkpt>
      <trkpt lat="49.05044" lon="7.80796">
        <ele>345.7313232</ele>
        <time>2013-05-09T08:32:08Z</time>
      </trkpt>
      <trkpt lat="49.05042" lon="7.80785">
        <ele>346.2120361</ele>
        <time>2013-05-09T08:32:14Z</time>
      </trkpt>
      <trkpt lat="49.05042" lon="7.80778">
        <ele>346.692627</ele>
        <time>2013-05-09T08:32:18Z</time>
      </trkpt>
      <trkpt lat="49.05037" lon="7.80757">
        <ele>347.6539307</ele>
        <time>2013-05-09T08:32:30Z</time>
      </trkpt>
      <trkpt lat="49.05036" lon="7.80741">
        <ele>348.6152344</ele>
        <time>2013-05-09T08:32:40Z</time>
      </trkpt>
      <trkpt lat="49.05029" lon="7.8071">
        <ele>350.5378418</ele>
        <time>2013-05-09T08:32:59Z</time>
      </trkpt>
      <trkpt lat="49.05028" lon="7.80702">
        <ele>351.0184326</ele>
        <time>2013-05-09T08:33:04Z</time>
      </trkpt>
      <trkpt lat="49.05023" lon="7.80682">
        <ele>351.9798584</ele>
        <time>2013-05-09T08:33:17Z</time>
      </trkpt>
      <trkpt lat="49.05021" lon="7.80674">
        <ele>352.4605713</ele>
        <time>2013-05-09T08:33:22Z</time>
      </trkpt>
      <trkpt lat="49.05015" lon="7.80636">
        <ele>354.8637695</ele>
        <time>2013-05-09T08:33:41Z</time>
      </trkpt>
      <trkpt lat="49.05011" lon="7.80613">
        <ele>356.3057861</ele>
        <time>2013-05-09T08:33:50Z</time>
      </trkpt>
      <trkpt lat="49.05012" lon="7.8061">
        <ele>356.786377</ele>
        <time>2013-05-09T08:33:52Z</time>
      </trkpt>
      <trkpt lat="49.05009" lon="7.80586">
        <ele>358.7089844</ele>
        <time>2013-05-09T08:34:07Z</time>
      </trkpt>
      <trkpt lat="49.05009" lon="7.80571">
        <ele>359.1896973</ele>
        <time>2013-05-09T08:34:17Z</time>
      </trkpt>
      <trkpt lat="49.05004" lon="7.80574">
        <ele>359.1896973</ele>
        <time>2013-05-09T08:34:52Z</time>
      </trkpt>
      <trkpt lat="49.05004" lon="7.80573">
        <ele>359.1896973</ele>
        <time>2013-05-09T08:35:00Z</time>
      </trkpt>
      <trkpt lat="49.05005" lon="7.80567">
        <ele>359.6704102</ele>
        <time>2013-05-09T08:35:04Z</time>
      </trkpt>
      <trkpt lat="49.05005" lon="7.80558">
        <ele>360.151123</ele>
        <time>2013-05-09T08:35:10Z</time>
      </trkpt>
      <trkpt lat="49.05006" lon="7.80553">
        <ele>360.151123</ele>
        <time>2013-05-09T08:35:12Z</time>
      </trkpt>
      <trkpt lat="49.05014" lon="7.80532">
        <ele>362.0737305</ele>
        <time>2013-05-09T08:35:28Z</time>
      </trkpt>
      <trkpt lat="49.05021" lon="7.80538">
        <ele>363.5157471</ele>
        <time>2013-05-09T08:35:41Z</time>
      </trkpt>
      <trkpt lat="49.05033" lon="7.80542">
        <ele>364.9576416</ele>
        <time>2013-05-09T08:35:53Z</time>
      </trkpt>
      <trkpt lat="49.05051" lon="7.80529">
        <ele>366.3995361</ele>
        <time>2013-05-09T08:36:05Z</time>
      </trkpt>
      <trkpt lat="49.05055" lon="7.80525">
        <ele>366.880249</ele>
        <time>2013-05-09T08:36:09Z</time>
      </trkpt>
      <trkpt lat="49.05058" lon="7.8051">
        <ele>367.8415527</ele>
        <time>2013-05-09T08:36:19Z</time>
      </trkpt>
      <trkpt lat="49.05054" lon="7.80493">
        <ele>368.8029785</ele>
        <time>2013-05-09T08:36:30Z</time>
      </trkpt>
      <trkpt lat="49.05052" lon="7.80484">
        <ele>369.2836914</ele>
        <time>2013-05-09T08:36:36Z</time>
      </trkpt>
      <trkpt lat="49.05052" lon="7.80469">
        <ele>369.7642822</ele>
        <time>2013-05-09T08:36:46Z</time>
      </trkpt>
      <trkpt lat="49.05051" lon="7.80447">
        <ele>370.7255859</ele>
        <time>2013-05-09T08:36:59Z</time>
      </trkpt>
      <trkpt lat="49.05052" lon="7.80441">
        <ele>370.7255859</ele>
        <time>2013-05-09T08:37:02Z</time>
      </trkpt>
      <trkpt lat="49.05063" lon="7.80406">
        <ele>372.1674805</ele>
        <time>2013-05-09T08:37:24Z</time>
      </trkpt>
      <trkpt lat="49.05072" lon="7.80389">
        <ele>372.6481934</ele>
        <time>2013-05-09T08:37:37Z</time>
      </trkpt>
      <trkpt lat="49.05085" lon="7.80372">
        <ele>373.6094971</ele>
        <time>2013-05-09T08:37:51Z</time>
      </trkpt>
      <trkpt lat="49.0509" lon="7.80354">
        <ele>374.5708008</ele>
        <time>2013-05-09T08:38:02Z</time>
      </trkpt>
      <trkpt lat="49.05089" lon="7.80312">
        <ele>375.5321045</ele>
        <time>2013-05-09T08:38:26Z</time>
      </trkpt>
      <trkpt lat="49.05092" lon="7.80283">
        <ele>376.4935303</ele>
        <time>2013-05-09T08:38:43Z</time>
      </trkpt>
      <trkpt lat="49.05096" lon="7.80233">
        <ele>377.454834</ele>
        <time>2013-05-09T08:39:12Z</time>
      </trkpt>
      <trkpt lat="49.05094" lon="7.80195">
        <ele>378.4161377</ele>
        <time>2013-05-09T08:39:34Z</time>
      </trkpt>
      <trkpt lat="49.05095" lon="7.80188">
        <ele>377.9354248</ele>
        <time>2013-05-09T08:39:56Z</time>
      </trkpt>
      <trkpt lat="49.05092" lon="7.80164">
        <ele>378.4161377</ele>
        <time>2013-05-09T08:40:53Z</time>
      </trkpt>
      <trkpt lat="49.05085" lon="7.80116">
        <ele>379.3774414</ele>
        <time>2013-05-09T08:41:22Z</time>
      </trkpt>
      <trkpt lat="49.05079" lon="7.80071">
        <ele>380.819458</ele>
        <time>2013-05-09T08:41:49Z</time>
      </trkpt>
      <trkpt lat="49.05078" lon="7.80055">
        <ele>380.819458</ele>
        <time>2013-05-09T08:41:58Z</time>
      </trkpt>
      <trkpt lat="49.05087" lon="7.80027">
        <ele>381.7806396</ele>
        <time>2013-05-09T08:42:18Z</time>
      </trkpt>
      <trkpt lat="49.05097" lon="7.80018">
        <ele>381.7806396</ele>
        <time>2013-05-09T08:42:28Z</time>
      </trkpt>
      <trkpt lat="49.05108" lon="7.80027">
        <ele>382.7420654</ele>
        <time>2013-05-09T08:42:42Z</time>
      </trkpt>
      <trkpt lat="49.0512" lon="7.80035">
        <ele>382.2613525</ele>
        <time>2013-05-09T08:42:52Z</time>
      </trkpt>
      <trkpt lat="49.05131" lon="7.80037">
        <ele>380.819458</ele>
        <time>2013-05-09T08:43:03Z</time>
      </trkpt>
      <trkpt lat="49.05134" lon="7.80036">
        <ele>380.819458</ele>
        <time>2013-05-09T08:43:05Z</time>
      </trkpt>
      <trkpt lat="49.05151" lon="7.80038">
        <ele>378.4161377</ele>
        <time>2013-05-09T08:43:20Z</time>
      </trkpt>
      <trkpt lat="49.05168" lon="7.80041">
        <ele>375.5321045</ele>
        <time>2013-05-09T08:43:37Z</time>
      </trkpt>
      <trkpt lat="49.05183" lon="7.80052">
        <ele>373.1289063</ele>
        <time>2013-05-09T08:43:55Z</time>
      </trkpt>
      <trkpt lat="49.05197" lon="7.80055">
        <ele>370.7255859</ele>
        <time>2013-05-09T08:44:09Z</time>
      </trkpt>
      <trkpt lat="49.05218" lon="7.80044">
        <ele>370.244873</ele>
        <time>2013-05-09T08:44:26Z</time>
      </trkpt>
      <trkpt lat="49.05222" lon="7.80042">
        <ele>369.2836914</ele>
        <time>2013-05-09T08:44:29Z</time>
      </trkpt>
      <trkpt lat="49.05238" lon="7.80026">
        <ele>367.8415527</ele>
        <time>2013-05-09T08:44:43Z</time>
      </trkpt>
      <trkpt lat="49.05257" lon="7.80003">
        <ele>365.9189453</ele>
        <time>2013-05-09T08:45:00Z</time>
      </trkpt>
      <trkpt lat="49.05262" lon="7.79994">
        <ele>364.9576416</ele>
        <time>2013-05-09T08:45:08Z</time>
      </trkpt>
      <trkpt lat="49.05272" lon="7.79986">
        <ele>363.9963379</ele>
        <time>2013-05-09T08:45:17Z</time>
      </trkpt>
      <trkpt lat="49.05275" lon="7.79981">
        <ele>363.5157471</ele>
        <time>2013-05-09T08:45:21Z</time>
      </trkpt>
      <trkpt lat="49.05274" lon="7.79977">
        <ele>363.9963379</ele>
        <time>2013-05-09T08:45:23Z</time>
      </trkpt>
      <trkpt lat="49.05277" lon="7.79974">
        <ele>363.0350342</ele>
        <time>2013-05-09T08:45:29Z</time>
      </trkpt>
      <trkpt lat="49.05278" lon="7.7997">
        <ele>363.0350342</ele>
        <time>2013-05-09T08:45:32Z</time>
      </trkpt>
      <trkpt lat="49.05289" lon="7.79953">
        <ele>361.1124268</ele>
        <time>2013-05-09T08:45:46Z</time>
      </trkpt>
      <trkpt lat="49.05295" lon="7.79937">
        <ele>359.1896973</ele>
        <time>2013-05-09T08:46:00Z</time>
      </trkpt>
      <trkpt lat="49.0531" lon="7.79927">
        <ele>357.2670898</ele>
        <time>2013-05-09T08:46:17Z</time>
      </trkpt>
      <trkpt lat="49.05312" lon="7.79927">
        <ele>356.3057861</ele>
        <time>2013-05-09T08:46:21Z</time>
      </trkpt>
      <trkpt lat="49.05331" lon="7.7992">
        <ele>354.8637695</ele>
        <time>2013-05-09T08:46:38Z</time>
      </trkpt>
      <trkpt lat="49.05344" lon="7.79916">
        <ele>353.9025879</ele>
        <time>2013-05-09T08:46:49Z</time>
      </trkpt>
      <trkpt lat="49.05357" lon="7.79906">
        <ele>353.421875</ele>
        <time>2013-05-09T08:47:02Z</time>
      </trkpt>
      <trkpt lat="49.05371" lon="7.79893">
        <ele>353.9025879</ele>
        <time>2013-05-09T08:47:13Z</time>
      </trkpt>
      <trkpt lat="49.05389" lon="7.79859">
        <ele>354.3831787</ele>
        <time>2013-05-09T08:47:35Z</time>
      </trkpt>
      <trkpt lat="49.0539" lon="7.79856">
        <ele>353.9025879</ele>
        <time>2013-05-09T08:47:38Z</time>
      </trkpt>
      <trkpt lat="49.05392" lon="7.7985">
        <ele>353.421875</ele>
        <time>2013-05-09T08:47:42Z</time>
      </trkpt>
      <trkpt lat="49.05395" lon="7.79841">
        <ele>353.9025879</ele>
        <time>2013-05-09T08:47:47Z</time>
      </trkpt>
      <trkpt lat="49.05396" lon="7.79831">
        <ele>353.421875</ele>
        <time>2013-05-09T08:47:53Z</time>
      </trkpt>
      <trkpt lat="49.05398" lon="7.79817">
        <ele>352.9411621</ele>
        <time>2013-05-09T08:48:02Z</time>
      </trkpt>
      <trkpt lat="49.05399" lon="7.7981">
        <ele>352.9411621</ele>
        <time>2013-05-09T08:48:06Z</time>
      </trkpt>
      <trkpt lat="49.05402" lon="7.79765">
        <ele>351.4991455</ele>
        <time>2013-05-09T08:48:34Z</time>
      </trkpt>
      <trkpt lat="49.05405" lon="7.79745">
        <ele>350.5378418</ele>
        <time>2013-05-09T08:48:59Z</time>
      </trkpt>
      <trkpt lat="49.05402" lon="7.7972">
        <ele>348.6152344</ele>
        <time>2013-05-09T08:49:20Z</time>
      </trkpt>
      <trkpt lat="49.05401" lon="7.79716">
        <ele>348.6152344</ele>
        <time>2013-05-09T08:49:23Z</time>
      </trkpt>
      <trkpt lat="49.05399" lon="7.79697">
        <ele>347.1732178</ele>
        <time>2013-05-09T08:49:34Z</time>
      </trkpt>
      <trkpt lat="49.054" lon="7.7969">
        <ele>347.1732178</ele>
        <time>2013-05-09T08:49:38Z</time>
      </trkpt>
      <trkpt lat="49.054" lon="7.79673">
        <ele>346.692627</ele>
        <time>2013-05-09T08:49:47Z</time>
      </trkpt>
      <trkpt lat="49.05391" lon="7.79653">
        <ele>347.1732178</ele>
        <time>2013-05-09T08:50:01Z</time>
      </trkpt>
      <trkpt lat="49.05381" lon="7.79635">
        <ele>348.1346436</ele>
        <time>2013-05-09T08:50:15Z</time>
      </trkpt>
      <trkpt lat="49.05371" lon="7.79618">
        <ele>350.057251</ele>
        <time>2013-05-09T08:50:29Z</time>
      </trkpt>
      <trkpt lat="49.0537" lon="7.79612">
        <ele>350.057251</ele>
        <time>2013-05-09T08:50:33Z</time>
      </trkpt>
      <trkpt lat="49.05367" lon="7.79586">
        <ele>348.6152344</ele>
        <time>2013-05-09T08:50:51Z</time>
      </trkpt>
      <trkpt lat="49.05367" lon="7.79584">
        <ele>348.6152344</ele>
        <time>2013-05-09T08:50:52Z</time>
      </trkpt>
      <trkpt lat="49.05366" lon="7.79576">
        <ele>348.6152344</ele>
        <time>2013-05-09T08:50:57Z</time>
      </trkpt>
      <trkpt lat="49.05364" lon="7.79552">
        <ele>348.6152344</ele>
        <time>2013-05-09T08:51:12Z</time>
      </trkpt>
      <trkpt lat="49.05359" lon="7.79538">
        <ele>348.6152344</ele>
        <time>2013-05-09T08:51:19Z</time>
      </trkpt>
      <trkpt lat="49.0536" lon="7.79518">
        <ele>347.1732178</ele>
        <time>2013-05-09T08:51:34Z</time>
      </trkpt>
      <trkpt lat="49.05356" lon="7.79492">
        <ele>346.2120361</ele>
        <time>2013-05-09T08:51:47Z</time>
      </trkpt>
      <trkpt lat="49.0535" lon="7.79472">
        <ele>346.2120361</ele>
        <time>2013-05-09T08:52:01Z</time>
      </trkpt>
      <trkpt lat="49.05346" lon="7.79458">
        <ele>346.2120361</ele>
        <time>2013-05-09T08:52:11Z</time>
      </trkpt>
      <trkpt lat="49.05342" lon="7.79454">
        <ele>346.2120361</ele>
        <time>2013-05-09T08:52:15Z</time>
      </trkpt>
      <trkpt lat="49.05338" lon="7.7943">
        <ele>345.7313232</ele>
        <time>2013-05-09T08:52:30Z</time>
      </trkpt>
      <trkpt lat="49.0533" lon="7.7941">
        <ele>345.2506104</ele>
        <time>2013-05-09T08:52:45Z</time>
      </trkpt>
      <trkpt lat="49.05329" lon="7.79408">
        <ele>345.2506104</ele>
        <time>2013-05-09T08:52:46Z</time>
      </trkpt>
      <trkpt lat="49.05321" lon="7.79398">
        <ele>344.2894287</ele>
        <time>2013-05-09T08:52:58Z</time>
      </trkpt>
      <trkpt lat="49.05316" lon="7.7939">
        <ele>343.3278809</ele>
        <time>2013-05-09T08:53:09Z</time>
      </trkpt>
      <trkpt lat="49.05316" lon="7.79386">
        <ele>342.3666992</ele>
        <time>2013-05-09T08:53:12Z</time>
      </trkpt>
      <trkpt lat="49.05313" lon="7.79376">
        <ele>342.3666992</ele>
        <time>2013-05-09T08:53:18Z</time>
      </trkpt>
      <trkpt lat="49.05312" lon="7.79363">
        <ele>341.8859863</ele>
        <time>2013-05-09T08:53:28Z</time>
      </trkpt>
      <trkpt lat="49.05315" lon="7.79352">
        <ele>341.8859863</ele>
        <time>2013-05-09T08:53:35Z</time>
      </trkpt>
      <trkpt lat="49.05319" lon="7.79335">
        <ele>342.3666992</ele>
        <time>2013-05-09T08:53:45Z</time>
      </trkpt>
      <trkpt lat="49.05322" lon="7.79325">
        <ele>342.3666992</ele>
        <time>2013-05-09T08:53:55Z</time>
      </trkpt>
      <trkpt lat="49.05321" lon="7.79324">
        <ele>342.3666992</ele>
        <time>2013-05-09T08:54:24Z</time>
      </trkpt>
      <trkpt lat="49.05321" lon="7.79324">
        <ele>336.598877</ele>
        <time>2013-05-09T08:54:40Z</time>
      </trkpt>
      <trkpt lat="49.05321" lon="7.79324">
        <ele>336.598877</ele>
        <time>2013-05-09T08:54:41Z</time>
      </trkpt>
      <trkpt lat="49.05321" lon="7.79324">
        <ele>332.75354</ele>
        <time>2013-05-09T08:54:43Z</time>
      </trkpt>
      <trkpt lat="49.05321" lon="7.79322">
        <ele>333.7147217</ele>
        <time>2013-05-09T08:54:56Z</time>
      </trkpt>
      <trkpt lat="49.0532" lon="7.79321">
        <ele>334.1954346</ele>
        <time>2013-05-09T08:54:58Z</time>
      </trkpt>
      <trkpt lat="49.05318" lon="7.79314">
        <ele>334.1954346</ele>
        <time>2013-05-09T08:55:03Z</time>
      </trkpt>
      <trkpt lat="49.05318" lon="7.79311">
        <ele>334.1954346</ele>
        <time>2013-05-09T08:55:05Z</time>
      </trkpt>
      <trkpt lat="49.05318" lon="7.79307">
        <ele>334.1954346</ele>
        <time>2013-05-09T08:55:07Z</time>
      </trkpt>
      <trkpt lat="49.05317" lon="7.79293">
        <ele>334.6761475</ele>
        <time>2013-05-09T08:55:17Z</time>
      </trkpt>
      <trkpt lat="49.05318" lon="7.79289">
        <ele>335.1567383</ele>
        <time>2013-05-09T08:55:19Z</time>
      </trkpt>
      <trkpt lat="49.05312" lon="7.79261">
        <ele>336.598877</ele>
        <time>2013-05-09T08:55:36Z</time>
      </trkpt>
      <trkpt lat="49.05311" lon="7.79246">
        <ele>337.5600586</ele>
        <time>2013-05-09T08:55:48Z</time>
      </trkpt>
      <trkpt lat="49.05309" lon="7.79239">
        <ele>338.0407715</ele>
        <time>2013-05-09T08:55:53Z</time>
      </trkpt>
      <trkpt lat="49.05311" lon="7.79237">
        <ele>338.5214844</ele>
        <time>2013-05-09T08:55:56Z</time>
      </trkpt>
      <trkpt lat="49.05318" lon="7.79225">
        <ele>339.482666</ele>
        <time>2013-05-09T08:56:09Z</time>
      </trkpt>
      <trkpt lat="49.05318" lon="7.79215">
        <ele>341.4052734</ele>
        <time>2013-05-09T08:56:17Z</time>
      </trkpt>
      <trkpt lat="49.05317" lon="7.79197">
        <ele>343.3278809</ele>
        <time>2013-05-09T08:56:30Z</time>
      </trkpt>
      <trkpt lat="49.05316" lon="7.79183">
        <ele>345.2506104</ele>
        <time>2013-05-09T08:56:43Z</time>
      </trkpt>
      <trkpt lat="49.05315" lon="7.79169">
        <ele>347.1732178</ele>
        <time>2013-05-09T08:56:58Z</time>
      </trkpt>
      <trkpt lat="49.05321" lon="7.79145">
        <ele>350.057251</ele>
        <time>2013-05-09T08:57:16Z</time>
      </trkpt>
      <trkpt lat="49.0531" lon="7.79116">
        <ele>351.9798584</ele>
        <time>2013-05-09T08:57:36Z</time>
      </trkpt>
      <trkpt lat="49.05302" lon="7.79101">
        <ele>354.3831787</ele>
        <time>2013-05-09T08:57:55Z</time>
      </trkpt>
      <trkpt lat="49.05289" lon="7.7908">
        <ele>357.2670898</ele>
        <time>2013-05-09T08:58:13Z</time>
      </trkpt>
      <trkpt lat="49.05275" lon="7.79061">
        <ele>359.6704102</ele>
        <time>2013-05-09T08:58:29Z</time>
      </trkpt>
      <trkpt lat="49.05263" lon="7.79046">
        <ele>362.0737305</ele>
        <time>2013-05-09T08:58:47Z</time>
      </trkpt>
      <trkpt lat="49.05245" lon="7.79026">
        <ele>364.9576416</ele>
        <time>2013-05-09T08:59:08Z</time>
      </trkpt>
      <trkpt lat="49.05244" lon="7.79026">
        <ele>365.4383545</ele>
        <time>2013-05-09T08:59:09Z</time>
      </trkpt>
      <trkpt lat="49.05237" lon="7.79014">
        <ele>366.880249</ele>
        <time>2013-05-09T08:59:23Z</time>
      </trkpt>
      <trkpt lat="49.0523" lon="7.79005">
        <ele>369.2836914</ele>
        <time>2013-05-09T08:59:39Z</time>
      </trkpt>
      <trkpt lat="49.05222" lon="7.78993">
        <ele>372.1674805</ele>
        <time>2013-05-09T08:59:59Z</time>
      </trkpt>
      <trkpt lat="49.05215" lon="7.78987">
        <ele>373.6094971</ele>
        <time>2013-05-09T09:00:11Z</time>
      </trkpt>
      <trkpt lat="49.05196" lon="7.78971">
        <ele>376.0128174</ele>
        <time>2013-05-09T09:00:30Z</time>
      </trkpt>
      <trkpt lat="49.05184" lon="7.78961">
        <ele>377.9354248</ele>
        <time>2013-05-09T09:00:46Z</time>
      </trkpt>
      <trkpt lat="49.05175" lon="7.78948">
        <ele>381.3000488</ele>
        <time>2013-05-09T09:01:02Z</time>
      </trkpt>
      <trkpt lat="49.05163" lon="7.78931">
        <ele>382.7420654</ele>
        <time>2013-05-09T09:01:17Z</time>
      </trkpt>
      <trkpt lat="49.05152" lon="7.78919">
        <ele>384.6647949</ele>
        <time>2013-05-09T09:01:33Z</time>
      </trkpt>
      <trkpt lat="49.05142" lon="7.78901">
        <ele>387.548584</ele>
        <time>2013-05-09T09:01:51Z</time>
      </trkpt>
      <trkpt lat="49.05136" lon="7.78888">
        <ele>389.4711914</ele>
        <time>2013-05-09T09:02:04Z</time>
      </trkpt>
      <trkpt lat="49.05132" lon="7.78885">
        <ele>390.4326172</ele>
        <time>2013-05-09T09:02:09Z</time>
      </trkpt>
      <trkpt lat="49.05123" lon="7.78871">
        <ele>392.8359375</ele>
        <time>2013-05-09T09:02:24Z</time>
      </trkpt>
      <trkpt lat="49.05117" lon="7.78856">
        <ele>395.2391357</ele>
        <time>2013-05-09T09:02:42Z</time>
      </trkpt>
      <trkpt lat="49.05105" lon="7.78849">
        <ele>396.6811523</ele>
        <time>2013-05-09T09:02:57Z</time>
      </trkpt>
      <trkpt lat="49.05104" lon="7.78849">
        <ele>397.1617432</ele>
        <time>2013-05-09T09:02:59Z</time>
      </trkpt>
      <trkpt lat="49.05098" lon="7.78836">
        <ele>399.0843506</ele>
        <time>2013-05-09T09:03:11Z</time>
      </trkpt>
      <trkpt lat="49.05089" lon="7.78821">
        <ele>401.0070801</ele>
        <time>2013-05-09T09:03:26Z</time>
      </trkpt>
      <trkpt lat="49.05073" lon="7.78792">
        <ele>403.8911133</ele>
        <time>2013-05-09T09:03:51Z</time>
      </trkpt>
      <trkpt lat="49.05069" lon="7.78772">
        <ele>406.2943115</ele>
        <time>2013-05-09T09:04:08Z</time>
      </trkpt>
      <trkpt lat="49.05065" lon="7.78748">
        <ele>408.6976318</ele>
        <time>2013-05-09T09:04:26Z</time>
      </trkpt>
      <trkpt lat="49.05066" lon="7.78734">
        <ele>409.6590576</ele>
        <time>2013-05-09T09:04:39Z</time>
      </trkpt>
      <trkpt lat="49.05069" lon="7.78715">
        <ele>412.0622559</ele>
        <time>2013-05-09T09:04:55Z</time>
      </trkpt>
      <trkpt lat="49.05073" lon="7.78707">
        <ele>413.5042725</ele>
        <time>2013-05-09T09:05:04Z</time>
      </trkpt>
      <trkpt lat="49.05077" lon="7.78693">
        <ele>415.4268799</ele>
        <time>2013-05-09T09:05:18Z</time>
      </trkpt>
      <trkpt lat="49.05086" lon="7.78674">
        <ele>417.3496094</ele>
        <time>2013-05-09T09:05:34Z</time>
      </trkpt>
      <trkpt lat="49.05091" lon="7.78659">
        <ele>420.2333984</ele>
        <time>2013-05-09T09:05:51Z</time>
      </trkpt>
      <trkpt lat="49.05094" lon="7.78654">
        <ele>420.7141113</ele>
        <time>2013-05-09T09:05:55Z</time>
      </trkpt>
      <trkpt lat="49.05101" lon="7.78641">
        <ele>421.1948242</ele>
        <time>2013-05-09T09:06:08Z</time>
      </trkpt>
      <trkpt lat="49.05103" lon="7.7863">
        <ele>423.1174316</ele>
        <time>2013-05-09T09:06:24Z</time>
      </trkpt>
      <trkpt lat="49.05107" lon="7.78629">
        <ele>425.0401611</ele>
        <time>2013-05-09T09:06:34Z</time>
      </trkpt>
      <trkpt lat="49.05119" lon="7.78621">
        <ele>427.9239502</ele>
        <time>2013-05-09T09:06:49Z</time>
      </trkpt>
      <trkpt lat="49.05127" lon="7.78615">
        <ele>430.3272705</ele>
        <time>2013-05-09T09:07:01Z</time>
      </trkpt>
      <trkpt lat="49.05135" lon="7.78612">
        <ele>430.8079834</ele>
        <time>2013-05-09T09:07:12Z</time>
      </trkpt>
      <trkpt lat="49.05148" lon="7.78602">
        <ele>432.25</ele>
        <time>2013-05-09T09:07:27Z</time>
      </trkpt>
      <trkpt lat="49.05148" lon="7.78601">
        <ele>432.25</ele>
        <time>2013-05-09T09:07:28Z</time>
      </trkpt>
      <trkpt lat="49.05149" lon="7.78599">
        <ele>432.25</ele>
        <time>2013-05-09T09:07:30Z</time>
      </trkpt>
      <trkpt lat="49.05164" lon="7.78592">
        <ele>433.6918945</ele>
        <time>2013-05-09T09:07:47Z</time>
      </trkpt>
      <trkpt lat="49.05174" lon="7.7858">
        <ele>434.1726074</ele>
        <time>2013-05-09T09:08:01Z</time>
      </trkpt>
      <trkpt lat="49.05178" lon="7.78576">
        <ele>434.6533203</ele>
        <time>2013-05-09T09:08:07Z</time>
      </trkpt>
      <trkpt lat="49.0519" lon="7.78568">
        <ele>435.614502</ele>
        <time>2013-05-09T09:08:21Z</time>
      </trkpt>
      <trkpt lat="49.052" lon="7.78559">
        <ele>436.0952148</ele>
        <time>2013-05-09T09:08:58Z</time>
      </trkpt>
      <trkpt lat="49.05203" lon="7.78555">
        <ele>435.614502</ele>
        <time>2013-05-09T09:09:02Z</time>
      </trkpt>
      <trkpt lat="49.05208" lon="7.78551">
        <ele>436.0952148</ele>
        <time>2013-05-09T09:09:08Z</time>
      </trkpt>
      <trkpt lat="49.05221" lon="7.78533">
        <ele>437.0565186</ele>
        <time>2013-05-09T09:09:25Z</time>
      </trkpt>
      <trkpt lat="49.05224" lon="7.78528">
        <ele>437.0565186</ele>
        <time>2013-05-09T09:09:28Z</time>
      </trkpt>
      <trkpt lat="49.05228" lon="7.78522">
        <ele>437.5371094</ele>
        <time>2013-05-09T09:09:43Z</time>
      </trkpt>
      <trkpt lat="49.05232" lon="7.78515">
        <ele>437.0565186</ele>
        <time>2013-05-09T09:10:43Z</time>
      </trkpt>
      <trkpt lat="49.05246" lon="7.78495">
        <ele>438.0178223</ele>
        <time>2013-05-09T09:11:00Z</time>
      </trkpt>
      <trkpt lat="49.05257" lon="7.78481">
        <ele>439.9404297</ele>
        <time>2013-05-09T09:11:16Z</time>
      </trkpt>
      <trkpt lat="49.05269" lon="7.78468">
        <ele>441.3824463</ele>
        <time>2013-05-09T09:11:31Z</time>
      </trkpt>
      <trkpt lat="49.05283" lon="7.78451">
        <ele>442.3438721</ele>
        <time>2013-05-09T09:11:49Z</time>
      </trkpt>
      <trkpt lat="49.05298" lon="7.78447">
        <ele>445.2276611</ele>
        <time>2013-05-09T09:12:06Z</time>
      </trkpt>
      <trkpt lat="49.05308" lon="7.78441">
        <ele>446.1890869</ele>
        <time>2013-05-09T09:12:18Z</time>
      </trkpt>
      <trkpt lat="49.0531" lon="7.78442">
        <ele>446.6696777</ele>
        <time>2013-05-09T09:12:21Z</time>
      </trkpt>
      <trkpt lat="49.0532" lon="7.78431">
        <ele>447.6309814</ele>
        <time>2013-05-09T09:12:31Z</time>
      </trkpt>
      <trkpt lat="49.05333" lon="7.78419">
        <ele>448.5924072</ele>
        <time>2013-05-09T09:12:45Z</time>
      </trkpt>
      <trkpt lat="49.05346" lon="7.784">
        <ele>450.5150146</ele>
        <time>2013-05-09T09:13:00Z</time>
      </trkpt>
      <trkpt lat="49.05351" lon="7.78394">
        <ele>450.5150146</ele>
        <time>2013-05-09T09:13:05Z</time>
      </trkpt>
      <trkpt lat="49.05357" lon="7.78383">
        <ele>451.4763184</ele>
        <time>2013-05-09T09:13:14Z</time>
      </trkpt>
      <trkpt lat="49.0536" lon="7.78376">
        <ele>451.9570313</ele>
        <time>2013-05-09T09:13:19Z</time>
      </trkpt>
      <trkpt lat="49.05368" lon="7.78362">
        <ele>452.9182129</ele>
        <time>2013-05-09T09:13:32Z</time>
      </trkpt>
      <trkpt lat="49.05376" lon="7.78339">
        <ele>454.3602295</ele>
        <time>2013-05-09T09:13:47Z</time>
      </trkpt>
      <trkpt lat="49.05379" lon="7.78332">
        <ele>454.8408203</ele>
        <time>2013-05-09T09:13:53Z</time>
      </trkpt>
      <trkpt lat="49.05385" lon="7.78318">
        <ele>456.282959</ele>
        <time>2013-05-09T09:14:03Z</time>
      </trkpt>
      <trkpt lat="49.05388" lon="7.78315">
        <ele>456.7635498</ele>
        <time>2013-05-09T09:14:07Z</time>
      </trkpt>
      <trkpt lat="49.05391" lon="7.78309">
        <ele>457.2442627</ele>
        <time>2013-05-09T09:14:12Z</time>
      </trkpt>
      <trkpt lat="49.05395" lon="7.78304">
        <ele>458.2055664</ele>
        <time>2013-05-09T09:14:17Z</time>
      </trkpt>
      <trkpt lat="49.05397" lon="7.78298">
        <ele>458.2055664</ele>
        <time>2013-05-09T09:14:21Z</time>
      </trkpt>
      <trkpt lat="49.05403" lon="7.78295">
        <ele>459.647583</ele>
        <time>2013-05-09T09:14:27Z</time>
      </trkpt>
      <trkpt lat="49.05404" lon="7.78286">
        <ele>460.1281738</ele>
        <time>2013-05-09T09:14:31Z</time>
      </trkpt>
      <trkpt lat="49.05407" lon="7.78278">
        <ele>461.0894775</ele>
        <time>2013-05-09T09:14:37Z</time>
      </trkpt>
      <trkpt lat="49.05419" lon="7.78257">
        <ele>463.012085</ele>
        <time>2013-05-09T09:14:54Z</time>
      </trkpt>
      <trkpt lat="49.05423" lon="7.7825">
        <ele>463.9733887</ele>
        <time>2013-05-09T09:15:01Z</time>
      </trkpt>
      <trkpt lat="49.05429" lon="7.78229">
        <ele>465.4155273</ele>
        <time>2013-05-09T09:15:17Z</time>
      </trkpt>
      <trkpt lat="49.05434" lon="7.78212">
        <ele>466.8574219</ele>
        <time>2013-05-09T09:15:29Z</time>
      </trkpt>
      <trkpt lat="49.05434" lon="7.78202">
        <ele>467.3381348</ele>
        <time>2013-05-09T09:15:41Z</time>
      </trkpt>
      <trkpt lat="49.05432" lon="7.78195">
        <ele>468.2993164</ele>
        <time>2013-05-09T09:16:14Z</time>
      </trkpt>
      <trkpt lat="49.05441" lon="7.78188">
        <ele>469.741333</ele>
        <time>2013-05-09T09:16:31Z</time>
      </trkpt>
      <trkpt lat="49.0545" lon="7.78161">
        <ele>472.1446533</ele>
        <time>2013-05-09T09:16:53Z</time>
      </trkpt>
      <trkpt lat="49.05452" lon="7.78132">
        <ele>475.0286865</ele>
        <time>2013-05-09T09:17:13Z</time>
      </trkpt>
      <trkpt lat="49.05452" lon="7.78128">
        <ele>475.0286865</ele>
        <time>2013-05-09T09:17:15Z</time>
      </trkpt>
      <trkpt lat="49.05453" lon="7.78104">
        <ele>475.5092773</ele>
        <time>2013-05-09T09:17:36Z</time>
      </trkpt>
      <trkpt lat="49.05453" lon="7.78106">
        <ele>475.9898682</ele>
        <time>2013-05-09T09:17:39Z</time>
      </trkpt>
      <trkpt lat="49.05455" lon="7.78106">
        <ele>475.9898682</ele>
        <time>2013-05-09T09:17:54Z</time>
      </trkpt>
      <trkpt lat="49.05449" lon="7.78098">
        <ele>475.5092773</ele>
        <time>2013-05-09T09:18:01Z</time>
      </trkpt>
      <trkpt lat="49.05444" lon="7.78091">
        <ele>474.5479736</ele>
        <time>2013-05-09T09:18:10Z</time>
      </trkpt>
      <trkpt lat="49.05436" lon="7.78076">
        <ele>473.5866699</ele>
        <time>2013-05-09T09:18:23Z</time>
      </trkpt>
      <trkpt lat="49.05428" lon="7.78067">
        <ele>471.6639404</ele>
        <time>2013-05-09T09:18:39Z</time>
      </trkpt>
      <trkpt lat="49.05423" lon="7.78067">
        <ele>471.6639404</ele>
        <time>2013-05-09T09:18:57Z</time>
      </trkpt>
      <trkpt lat="49.0542" lon="7.78063">
        <ele>471.6639404</ele>
        <time>2013-05-09T09:19:10Z</time>
      </trkpt>
      <trkpt lat="49.05409" lon="7.78049">
        <ele>472.6253662</ele>
        <time>2013-05-09T09:19:25Z</time>
      </trkpt>
      <trkpt lat="49.05395" lon="7.78035">
        <ele>473.1060791</ele>
        <time>2013-05-09T09:19:38Z</time>
      </trkpt>
      <trkpt lat="49.05382" lon="7.78025">
        <ele>470.2219238</ele>
        <time>2013-05-09T09:19:54Z</time>
      </trkpt>
      <trkpt lat="49.05372" lon="7.78014">
        <ele>467.8187256</ele>
        <time>2013-05-09T09:20:08Z</time>
      </trkpt>
      <trkpt lat="49.05356" lon="7.77998">
        <ele>465.4155273</ele>
        <time>2013-05-09T09:20:25Z</time>
      </trkpt>
      <trkpt lat="49.05353" lon="7.77997">
        <ele>464.9348145</ele>
        <time>2013-05-09T09:20:27Z</time>
      </trkpt>
      <trkpt lat="49.05347" lon="7.77995">
        <ele>463.9733887</ele>
        <time>2013-05-09T09:20:31Z</time>
      </trkpt>
      <trkpt lat="49.0534" lon="7.77987">
        <ele>462.5313721</ele>
        <time>2013-05-09T09:20:44Z</time>
      </trkpt>
      <trkpt lat="49.05325" lon="7.77977">
        <ele>462.0507813</ele>
        <time>2013-05-09T09:20:57Z</time>
      </trkpt>
      <trkpt lat="49.05309" lon="7.77972">
        <ele>459.1668701</ele>
        <time>2013-05-09T09:21:14Z</time>
      </trkpt>
      <trkpt lat="49.05302" lon="7.77959">
        <ele>457.7249756</ele>
        <time>2013-05-09T09:21:28Z</time>
      </trkpt>
      <trkpt lat="49.05294" lon="7.77951">
        <ele>455.8022461</ele>
        <time>2013-05-09T09:21:40Z</time>
      </trkpt>
      <trkpt lat="49.05287" lon="7.77943">
        <ele>453.8796387</ele>
        <time>2013-05-09T09:21:54Z</time>
      </trkpt>
      <trkpt lat="49.05286" lon="7.77931">
        <ele>453.8796387</ele>
        <time>2013-05-09T09:22:08Z</time>
      </trkpt>
      <trkpt lat="49.05278" lon="7.77924">
        <ele>453.3989258</ele>
        <time>2013-05-09T09:22:18Z</time>
      </trkpt>
      <trkpt lat="49.05265" lon="7.77913">
        <ele>451.9570313</ele>
        <time>2013-05-09T09:22:32Z</time>
      </trkpt>
      <trkpt lat="49.05252" lon="7.77905">
        <ele>449.072998</ele>
        <time>2013-05-09T09:22:49Z</time>
      </trkpt>
      <trkpt lat="49.05239" lon="7.77894">
        <ele>447.6309814</ele>
        <time>2013-05-09T09:23:43Z</time>
      </trkpt>
      <trkpt lat="49.05231" lon="7.7788">
        <ele>445.2276611</ele>
        <time>2013-05-09T09:23:55Z</time>
      </trkpt>
      <trkpt lat="49.05224" lon="7.77873">
        <ele>443.3050537</ele>
        <time>2013-05-09T09:24:05Z</time>
      </trkpt>
      <trkpt lat="49.05221" lon="7.77871">
        <ele>442.8244629</ele>
        <time>2013-05-09T09:24:08Z</time>
      </trkpt>
      <trkpt lat="49.05207" lon="7.77868">
        <ele>441.8631592</ele>
        <time>2013-05-09T09:24:22Z</time>
      </trkpt>
      <trkpt lat="49.05196" lon="7.77853">
        <ele>441.8631592</ele>
        <time>2013-05-09T09:24:34Z</time>
      </trkpt>
      <trkpt lat="49.05184" lon="7.77846">
        <ele>441.3824463</ele>
        <time>2013-05-09T09:24:47Z</time>
      </trkpt>
      <trkpt lat="49.05171" lon="7.77835">
        <ele>439.9404297</ele>
        <time>2013-05-09T09:25:01Z</time>
      </trkpt>
      <trkpt lat="49.05159" lon="7.77825">
        <ele>436.5759277</ele>
        <time>2013-05-09T09:25:19Z</time>
      </trkpt>
      <trkpt lat="49.05157" lon="7.77822">
        <ele>435.1339111</ele>
        <time>2013-05-09T09:25:25Z</time>
      </trkpt>
      <trkpt lat="49.05148" lon="7.77814">
        <ele>433.2113037</ele>
        <time>2013-05-09T09:25:39Z</time>
      </trkpt>
      <trkpt lat="49.05143" lon="7.77811">
        <ele>432.25</ele>
        <time>2013-05-09T09:26:00Z</time>
      </trkpt>
      <trkpt lat="49.05135" lon="7.77806">
        <ele>433.2113037</ele>
        <time>2013-05-09T09:26:33Z</time>
      </trkpt>
      <trkpt lat="49.05131" lon="7.77801">
        <ele>433.2113037</ele>
        <time>2013-05-09T09:26:46Z</time>
      </trkpt>
      <trkpt lat="49.05129" lon="7.77789">
        <ele>432.7307129</ele>
        <time>2013-05-09T09:27:02Z</time>
      </trkpt>
      <trkpt lat="49.05122" lon="7.77783">
        <ele>432.7307129</ele>
        <time>2013-05-09T09:27:18Z</time>
      </trkpt>
      <trkpt lat="49.05119" lon="7.77778">
        <ele>432.25</ele>
        <time>2013-05-09T09:27:42Z</time>
      </trkpt>
      <trkpt lat="49.05107" lon="7.77766">
        <ele>432.25</ele>
        <time>2013-05-09T09:28:32Z</time>
      </trkpt>
      <trkpt lat="49.05104" lon="7.77763">
        <ele>431.769165</ele>
        <time>2013-05-09T09:28:34Z</time>
      </trkpt>
      <trkpt lat="49.05089" lon="7.77756">
        <ele>432.25</ele>
        <time>2013-05-09T09:28:47Z</time>
      </trkpt>
      <trkpt lat="49.05084" lon="7.77749">
        <ele>431.769165</ele>
        <time>2013-05-09T09:28:55Z</time>
      </trkpt>
      <trkpt lat="49.05077" lon="7.77738">
        <ele>430.8079834</ele>
        <time>2013-05-09T09:29:09Z</time>
      </trkpt>
      <trkpt lat="49.0507" lon="7.77733">
        <ele>432.7307129</ele>
        <time>2013-05-09T09:29:28Z</time>
      </trkpt>
      <trkpt lat="49.0506" lon="7.77727">
        <ele>432.25</ele>
        <time>2013-05-09T09:30:15Z</time>
      </trkpt>
      <trkpt lat="49.05053" lon="7.77726">
        <ele>432.25</ele>
        <time>2013-05-09T09:30:31Z</time>
      </trkpt>
      <trkpt lat="49.05052" lon="7.77725">
        <ele>431.769165</ele>
        <time>2013-05-09T09:30:46Z</time>
      </trkpt>
      <trkpt lat="49.05051" lon="7.77722">
        <ele>431.2885742</ele>
        <time>2013-05-09T09:31:07Z</time>
      </trkpt>
      <trkpt lat="49.05048" lon="7.77718">
        <ele>428.4046631</ele>
        <time>2013-05-09T09:31:25Z</time>
      </trkpt>
      <trkpt lat="49.05048" lon="7.77717">
        <ele>427.9239502</ele>
        <time>2013-05-09T09:31:26Z</time>
      </trkpt>
      <trkpt lat="49.0504" lon="7.77704">
        <ele>427.4433594</ele>
        <time>2013-05-09T09:31:38Z</time>
      </trkpt>
      <trkpt lat="49.05038" lon="7.777">
        <ele>426.9627686</ele>
        <time>2013-05-09T09:31:54Z</time>
      </trkpt>
      <trkpt lat="49.0503" lon="7.77689">
        <ele>425.0401611</ele>
        <time>2013-05-09T09:32:10Z</time>
      </trkpt>
      <trkpt lat="49.05025" lon="7.77683">
        <ele>425.0401611</ele>
        <time>2013-05-09T09:32:25Z</time>
      </trkpt>
      <trkpt lat="49.05014" lon="7.77678">
        <ele>426.4820557</ele>
        <time>2013-05-09T09:32:38Z</time>
      </trkpt>
      <trkpt lat="49.05009" lon="7.77674">
        <ele>426.9627686</ele>
        <time>2013-05-09T09:32:53Z</time>
      </trkpt>
      <trkpt lat="49.05004" lon="7.77669">
        <ele>426.0013428</ele>
        <time>2013-05-09T09:33:07Z</time>
      </trkpt>
      <trkpt lat="49.04998" lon="7.77666">
        <ele>426.4820557</ele>
        <time>2013-05-09T09:33:22Z</time>
      </trkpt>
      <trkpt lat="49.04987" lon="7.77666">
        <ele>427.4433594</ele>
        <time>2013-05-09T09:33:39Z</time>
      </trkpt>
      <trkpt lat="49.04985" lon="7.77662">
        <ele>427.9239502</ele>
        <time>2013-05-09T09:33:52Z</time>
      </trkpt>
      <trkpt lat="49.04984" lon="7.77664">
        <ele>426.0013428</ele>
        <time>2013-05-09T09:34:10Z</time>
      </trkpt>
      <trkpt lat="49.04985" lon="7.77664">
        <ele>426.0013428</ele>
        <time>2013-05-09T09:35:39Z</time>
      </trkpt>
      <trkpt lat="49.04982" lon="7.77667">
        <ele>426.0013428</ele>
        <time>2013-05-09T09:42:12Z</time>
      </trkpt>
      <trkpt lat="49.04983" lon="7.77664">
        <ele>426.4820557</ele>
        <time>2013-05-09T09:58:46Z</time>
      </trkpt>
      <trkpt lat="49.04983" lon="7.77664">
        <ele>425.520752</ele>
        <time>2013-05-09T09:58:58Z</time>
      </trkpt>
      <trkpt lat="49.04984" lon="7.77664">
        <ele>421.1948242</ele>
        <time>2013-05-09T10:00:47Z</time>
      </trkpt>
      <trkpt lat="49.04984" lon="7.77664">
        <ele>423.5980225</ele>
        <time>2013-05-09T10:00:48Z</time>
      </trkpt>
      <trkpt lat="49.04984" lon="7.77664">
        <ele>425.0401611</ele>
        <time>2013-05-09T10:00:50Z</time>
      </trkpt>
      <trkpt lat="49.04982" lon="7.77664">
        <ele>426.0013428</ele>
        <time>2013-05-09T10:04:34Z</time>
      </trkpt>
      <trkpt lat="49.04987" lon="7.77665">
        <ele>425.520752</ele>
        <time>2013-05-09T10:04:46Z</time>
      </trkpt>
      <trkpt lat="49.04988" lon="7.77667">
        <ele>425.0401611</ele>
        <time>2013-05-09T10:05:17Z</time>
      </trkpt>
      <trkpt lat="49.04989" lon="7.77669">
        <ele>425.0401611</ele>
        <time>2013-05-09T10:05:31Z</time>
      </trkpt>
      <trkpt lat="49.04992" lon="7.77667">
        <ele>424.0787354</ele>
        <time>2013-05-09T10:05:44Z</time>
      </trkpt>
      <trkpt lat="49.04992" lon="7.77662">
        <ele>422.1560059</ele>
        <time>2013-05-09T10:05:57Z</time>
      </trkpt>
      <trkpt lat="49.0499" lon="7.77658">
        <ele>420.7141113</ele>
        <time>2013-05-09T10:06:04Z</time>
      </trkpt>
      <trkpt lat="49.04979" lon="7.77652">
        <ele>418.310791</ele>
        <time>2013-05-09T10:06:18Z</time>
      </trkpt>
      <trkpt lat="49.04977" lon="7.7765">
        <ele>416.8688965</ele>
        <time>2013-05-09T10:06:22Z</time>
      </trkpt>
      <trkpt lat="49.04975" lon="7.77646">
        <ele>415.9074707</ele>
        <time>2013-05-09T10:06:28Z</time>
      </trkpt>
      <trkpt lat="49.04969" lon="7.77639">
        <ele>416.3881836</ele>
        <time>2013-05-09T10:06:40Z</time>
      </trkpt>
      <trkpt lat="49.04964" lon="7.77636">
        <ele>416.3881836</ele>
        <time>2013-05-09T10:06:44Z</time>
      </trkpt>
      <trkpt lat="49.0496" lon="7.77634">
        <ele>416.3881836</ele>
        <time>2013-05-09T10:06:47Z</time>
      </trkpt>
      <trkpt lat="49.04958" lon="7.77634">
        <ele>417.3496094</ele>
        <time>2013-05-09T10:07:02Z</time>
      </trkpt>
      <trkpt lat="49.04959" lon="7.77631">
        <ele>416.3881836</ele>
        <time>2013-05-09T10:07:08Z</time>
      </trkpt>
      <trkpt lat="49.04953" lon="7.77621">
        <ele>413.5042725</ele>
        <time>2013-05-09T10:07:19Z</time>
      </trkpt>
      <trkpt lat="49.04949" lon="7.77619">
        <ele>410.6202393</ele>
        <time>2013-05-09T10:07:31Z</time>
      </trkpt>
      <trkpt lat="49.04943" lon="7.77616">
        <ele>409.1783447</ele>
        <time>2013-05-09T10:07:51Z</time>
      </trkpt>
      <trkpt lat="49.04936" lon="7.77613">
        <ele>408.217041</ele>
        <time>2013-05-09T10:08:02Z</time>
      </trkpt>
      <trkpt lat="49.04932" lon="7.77601">
        <ele>405.3330078</ele>
        <time>2013-05-09T10:08:13Z</time>
      </trkpt>
      <trkpt lat="49.04928" lon="7.77594">
        <ele>403.4104004</ele>
        <time>2013-05-09T10:08:20Z</time>
      </trkpt>
      <trkpt lat="49.04915" lon="7.7759">
        <ele>400.0458984</ele>
        <time>2013-05-09T10:08:32Z</time>
      </trkpt>
      <trkpt lat="49.04898" lon="7.77588">
        <ele>397.6424561</ele>
        <time>2013-05-09T10:08:49Z</time>
      </trkpt>
      <trkpt lat="49.0489" lon="7.77591">
        <ele>396.2005615</ele>
        <time>2013-05-09T10:09:05Z</time>
      </trkpt>
      <trkpt lat="49.04887" lon="7.7759">
        <ele>396.2005615</ele>
        <time>2013-05-09T10:09:16Z</time>
      </trkpt>
      <trkpt lat="49.0488" lon="7.7758">
        <ele>394.2779541</ele>
        <time>2013-05-09T10:09:34Z</time>
      </trkpt>
      <trkpt lat="49.04871" lon="7.7757">
        <ele>392.3553467</ele>
        <time>2013-05-09T10:09:51Z</time>
      </trkpt>
      <trkpt lat="49.04865" lon="7.77561">
        <ele>391.8745117</ele>
        <time>2013-05-09T10:10:00Z</time>
      </trkpt>
      <trkpt lat="49.04858" lon="7.77557">
        <ele>390.4326172</ele>
        <time>2013-05-09T10:10:07Z</time>
      </trkpt>
      <trkpt lat="49.04846" lon="7.77551">
        <ele>387.0679932</ele>
        <time>2013-05-09T10:10:24Z</time>
      </trkpt>
      <trkpt lat="49.04841" lon="7.77541">
        <ele>384.184082</ele>
        <time>2013-05-09T10:10:36Z</time>
      </trkpt>
      <trkpt lat="49.04825" lon="7.77537">
        <ele>381.3000488</ele>
        <time>2013-05-09T10:10:56Z</time>
      </trkpt>
      <trkpt lat="49.04817" lon="7.77526">
        <ele>378.4161377</ele>
        <time>2013-05-09T10:11:06Z</time>
      </trkpt>
      <trkpt lat="49.04816" lon="7.77525">
        <ele>377.9354248</ele>
        <time>2013-05-09T10:11:07Z</time>
      </trkpt>
      <trkpt lat="49.04811" lon="7.77523">
        <ele>374.5708008</ele>
        <time>2013-05-09T10:11:19Z</time>
      </trkpt>
      <trkpt lat="49.04808" lon="7.77516">
        <ele>372.1674805</ele>
        <time>2013-05-09T10:11:40Z</time>
      </trkpt>
      <trkpt lat="49.04807" lon="7.77513">
        <ele>370.7255859</ele>
        <time>2013-05-09T10:12:06Z</time>
      </trkpt>
      <trkpt lat="49.04803" lon="7.77509">
        <ele>367.3609619</ele>
        <time>2013-05-09T10:12:20Z</time>
      </trkpt>
      <trkpt lat="49.04794" lon="7.77511">
        <ele>364.9576416</ele>
        <time>2013-05-09T10:12:32Z</time>
      </trkpt>
      <trkpt lat="49.04787" lon="7.77517">
        <ele>362.0737305</ele>
        <time>2013-05-09T10:12:44Z</time>
      </trkpt>
      <trkpt lat="49.04786" lon="7.77509">
        <ele>361.5931396</ele>
        <time>2013-05-09T10:12:58Z</time>
      </trkpt>
      <trkpt lat="49.04785" lon="7.77509">
        <ele>362.0737305</ele>
        <time>2013-05-09T10:13:16Z</time>
      </trkpt>
      <trkpt lat="49.04784" lon="7.77509">
        <ele>361.5931396</ele>
        <time>2013-05-09T10:13:23Z</time>
      </trkpt>
      <trkpt lat="49.04779" lon="7.77501">
        <ele>359.1896973</ele>
        <time>2013-05-09T10:13:38Z</time>
      </trkpt>
      <trkpt lat="49.04775" lon="7.77496">
        <ele>356.3057861</ele>
        <time>2013-05-09T10:13:51Z</time>
      </trkpt>
      <trkpt lat="49.0477" lon="7.77489">
        <ele>353.9025879</ele>
        <time>2013-05-09T10:14:01Z</time>
      </trkpt>
      <trkpt lat="49.04763" lon="7.77483">
        <ele>351.4991455</ele>
        <time>2013-05-09T10:14:11Z</time>
      </trkpt>
      <trkpt lat="49.04762" lon="7.77477">
        <ele>350.5378418</ele>
        <time>2013-05-09T10:14:14Z</time>
      </trkpt>
      <trkpt lat="49.04761" lon="7.77472">
        <ele>349.5765381</ele>
        <time>2013-05-09T10:14:17Z</time>
      </trkpt>
      <trkpt lat="49.04758" lon="7.77464">
        <ele>348.6152344</ele>
        <time>2013-05-09T10:14:22Z</time>
      </trkpt>
      <trkpt lat="49.04754" lon="7.77461">
        <ele>347.1732178</ele>
        <time>2013-05-09T10:14:29Z</time>
      </trkpt>
      <trkpt lat="49.04752" lon="7.7746">
        <ele>346.692627</ele>
        <time>2013-05-09T10:14:32Z</time>
      </trkpt>
      <trkpt lat="49.04744" lon="7.77461">
        <ele>345.2506104</ele>
        <time>2013-05-09T10:14:48Z</time>
      </trkpt>
      <trkpt lat="49.04743" lon="7.77462">
        <ele>345.2506104</ele>
        <time>2013-05-09T10:14:50Z</time>
      </trkpt>
      <trkpt lat="49.04742" lon="7.77469">
        <ele>344.7700195</ele>
        <time>2013-05-09T10:14:56Z</time>
      </trkpt>
      <trkpt lat="49.04729" lon="7.77483">
        <ele>342.84729</ele>
        <time>2013-05-09T10:15:13Z</time>
      </trkpt>
      <trkpt lat="49.04725" lon="7.77485">
        <ele>342.84729</ele>
        <time>2013-05-09T10:15:16Z</time>
      </trkpt>
      <trkpt lat="49.0471" lon="7.77472">
        <ele>342.84729</ele>
        <time>2013-05-09T10:15:35Z</time>
      </trkpt>
      <trkpt lat="49.04706" lon="7.77462">
        <ele>341.8859863</ele>
        <time>2013-05-09T10:16:11Z</time>
      </trkpt>
      <trkpt lat="49.04684" lon="7.77446">
        <ele>341.8859863</ele>
        <time>2013-05-09T10:16:34Z</time>
      </trkpt>
      <trkpt lat="49.0468" lon="7.77445">
        <ele>341.8859863</ele>
        <time>2013-05-09T10:16:39Z</time>
      </trkpt>
      <trkpt lat="49.04677" lon="7.77445">
        <ele>341.8859863</ele>
        <time>2013-05-09T10:16:42Z</time>
      </trkpt>
      <trkpt lat="49.04675" lon="7.77445">
        <ele>340.9246826</ele>
        <time>2013-05-09T10:16:44Z</time>
      </trkpt>
      <trkpt lat="49.04661" lon="7.77422">
        <ele>341.4052734</ele>
        <time>2013-05-09T10:17:03Z</time>
      </trkpt>
      <trkpt lat="49.04656" lon="7.77416">
        <ele>340.9246826</ele>
        <time>2013-05-09T10:17:10Z</time>
      </trkpt>
      <trkpt lat="49.04641" lon="7.77398">
        <ele>340.4440918</ele>
        <time>2013-05-09T10:17:30Z</time>
      </trkpt>
      <trkpt lat="49.0463" lon="7.77384">
        <ele>341.4052734</ele>
        <time>2013-05-09T10:17:53Z</time>
      </trkpt>
      <trkpt lat="49.04616" lon="7.77368">
        <ele>340.9246826</ele>
        <time>2013-05-09T10:19:21Z</time>
      </trkpt>
      <trkpt lat="49.04596" lon="7.77354">
        <ele>340.9246826</ele>
        <time>2013-05-09T10:19:40Z</time>
      </trkpt>
      <trkpt lat="49.04576" lon="7.77341">
        <ele>341.8859863</ele>
        <time>2013-05-09T10:20:00Z</time>
      </trkpt>
      <trkpt lat="49.04561" lon="7.77328">
        <ele>342.84729</ele>
        <time>2013-05-09T10:20:18Z</time>
      </trkpt>
      <trkpt lat="49.0456" lon="7.77325">
        <ele>343.3278809</ele>
        <time>2013-05-09T10:20:20Z</time>
      </trkpt>
      <trkpt lat="49.04555" lon="7.77323">
        <ele>343.8085938</ele>
        <time>2013-05-09T10:20:38Z</time>
      </trkpt>
      <trkpt lat="49.04555" lon="7.77323">
        <ele>343.8085938</ele>
        <time>2013-05-09T10:21:19Z</time>
      </trkpt>
      <trkpt lat="49.04558" lon="7.77321">
        <ele>343.8085938</ele>
        <time>2013-05-09T10:21:36Z</time>
      </trkpt>
      <trkpt lat="49.04558" lon="7.77327">
        <ele>343.3278809</ele>
        <time>2013-05-09T10:21:44Z</time>
      </trkpt>
      <trkpt lat="49.04551" lon="7.77334">
        <ele>342.3666992</ele>
        <time>2013-05-09T10:21:58Z</time>
      </trkpt>
      <trkpt lat="49.04544" lon="7.77333">
        <ele>342.3666992</ele>
        <time>2013-05-09T10:22:08Z</time>
      </trkpt>
      <trkpt lat="49.04542" lon="7.77332">
        <ele>342.3666992</ele>
        <time>2013-05-09T10:22:10Z</time>
      </trkpt>
      <trkpt lat="49.04531" lon="7.77332">
        <ele>341.8859863</ele>
        <time>2013-05-09T10:22:19Z</time>
      </trkpt>
      <trkpt lat="49.04525" lon="7.77331">
        <ele>341.4052734</ele>
        <time>2013-05-09T10:22:24Z</time>
      </trkpt>
      <trkpt lat="49.04513" lon="7.77331">
        <ele>340.4440918</ele>
        <time>2013-05-09T10:22:35Z</time>
      </trkpt>
      <trkpt lat="49.04491" lon="7.7734">
        <ele>339.0020752</ele>
        <time>2013-05-09T10:22:50Z</time>
      </trkpt>
      <trkpt lat="49.04483" lon="7.77342">
        <ele>338.0407715</ele>
        <time>2013-05-09T10:23:00Z</time>
      </trkpt>
      <trkpt lat="49.04459" lon="7.77337">
        <ele>336.598877</ele>
        <time>2013-05-09T10:23:17Z</time>
      </trkpt>
      <trkpt lat="49.04449" lon="7.77331">
        <ele>336.1181641</ele>
        <time>2013-05-09T10:23:26Z</time>
      </trkpt>
      <trkpt lat="49.04447" lon="7.77327">
        <ele>335.6373291</ele>
        <time>2013-05-09T10:23:29Z</time>
      </trkpt>
      <trkpt lat="49.04444" lon="7.77325">
        <ele>335.1567383</ele>
        <time>2013-05-09T10:23:32Z</time>
      </trkpt>
      <trkpt lat="49.04436" lon="7.77314">
        <ele>334.1954346</ele>
        <time>2013-05-09T10:23:45Z</time>
      </trkpt>
      <trkpt lat="49.04435" lon="7.77313">
        <ele>333.7147217</ele>
        <time>2013-05-09T10:23:46Z</time>
      </trkpt>
      <trkpt lat="49.04433" lon="7.7731">
        <ele>333.2341309</ele>
        <time>2013-05-09T10:23:49Z</time>
      </trkpt>
      <trkpt lat="49.04429" lon="7.77297">
        <ele>331.3115234</ele>
        <time>2013-05-09T10:24:00Z</time>
      </trkpt>
      <trkpt lat="49.04419" lon="7.77289">
        <ele>329.8695068</ele>
        <time>2013-05-09T10:24:11Z</time>
      </trkpt>
      <trkpt lat="49.04398" lon="7.77288">
        <ele>327.4661865</ele>
        <time>2013-05-09T10:24:27Z</time>
      </trkpt>
      <trkpt lat="49.04397" lon="7.77288">
        <ele>326.9855957</ele>
        <time>2013-05-09T10:24:28Z</time>
      </trkpt>
      <trkpt lat="49.04385" lon="7.77293">
        <ele>325.5435791</ele>
        <time>2013-05-09T10:24:39Z</time>
      </trkpt>
      <trkpt lat="49.04381" lon="7.77292">
        <ele>325.0629883</ele>
        <time>2013-05-09T10:24:43Z</time>
      </trkpt>
      <trkpt lat="49.04364" lon="7.77287">
        <ele>323.1403809</ele>
        <time>2013-05-09T10:24:58Z</time>
      </trkpt>
      <trkpt lat="49.04356" lon="7.77283">
        <ele>321.6983643</ele>
        <time>2013-05-09T10:25:06Z</time>
      </trkpt>
      <trkpt lat="49.04348" lon="7.77281">
        <ele>320.7370605</ele>
        <time>2013-05-09T10:25:13Z</time>
      </trkpt>
      <trkpt lat="49.04344" lon="7.77279">
        <ele>320.7370605</ele>
        <time>2013-05-09T10:25:16Z</time>
      </trkpt>
      <trkpt lat="49.04335" lon="7.77269">
        <ele>318.3336182</ele>
        <time>2013-05-09T10:25:28Z</time>
      </trkpt>
      <trkpt lat="49.04329" lon="7.77257">
        <ele>316.8917236</ele>
        <time>2013-05-09T10:25:39Z</time>
      </trkpt>
      <trkpt lat="49.04316" lon="7.77247">
        <ele>314.9691162</ele>
        <time>2013-05-09T10:25:52Z</time>
      </trkpt>
      <trkpt lat="49.04311" lon="7.77244">
        <ele>314.0078125</ele>
        <time>2013-05-09T10:25:57Z</time>
      </trkpt>
      <trkpt lat="49.04305" lon="7.77245">
        <ele>313.0465088</ele>
        <time>2013-05-09T10:26:03Z</time>
      </trkpt>
      <trkpt lat="49.04298" lon="7.77235">
        <ele>311.6044922</ele>
        <time>2013-05-09T10:26:12Z</time>
      </trkpt>
      <trkpt lat="49.04291" lon="7.77226">
        <ele>310.1624756</ele>
        <time>2013-05-09T10:26:20Z</time>
      </trkpt>
      <trkpt lat="49.04284" lon="7.77215">
        <ele>308.720459</ele>
        <time>2013-05-09T10:26:28Z</time>
      </trkpt>
      <trkpt lat="49.04274" lon="7.772">
        <ele>307.7592773</ele>
        <time>2013-05-09T10:26:40Z</time>
      </trkpt>
      <trkpt lat="49.04267" lon="7.7719">
        <ele>306.7978516</ele>
        <time>2013-05-09T10:26:48Z</time>
      </trkpt>
      <trkpt lat="49.04261" lon="7.7718">
        <ele>306.3172607</ele>
        <time>2013-05-09T10:26:56Z</time>
      </trkpt>
      <trkpt lat="49.04258" lon="7.77174">
        <ele>305.8366699</ele>
        <time>2013-05-09T10:27:00Z</time>
      </trkpt>
      <trkpt lat="49.0425" lon="7.77167">
        <ele>305.355957</ele>
        <time>2013-05-09T10:27:15Z</time>
      </trkpt>
      <trkpt lat="49.04246" lon="7.7715">
        <ele>302.4719238</ele>
        <time>2013-05-09T10:27:36Z</time>
      </trkpt>
      <trkpt lat="49.04239" lon="7.77132">
        <ele>299.1072998</ele>
        <time>2013-05-09T10:27:49Z</time>
      </trkpt>
      <trkpt lat="49.04237" lon="7.77127">
        <ele>298.626709</ele>
        <time>2013-05-09T10:27:52Z</time>
      </trkpt>
      <trkpt lat="49.04237" lon="7.77119">
        <ele>297.6654053</ele>
        <time>2013-05-09T10:27:56Z</time>
      </trkpt>
      <trkpt lat="49.04235" lon="7.77108">
        <ele>295.7426758</ele>
        <time>2013-05-09T10:28:04Z</time>
      </trkpt>
      <trkpt lat="49.04232" lon="7.77102">
        <ele>294.7813721</ele>
        <time>2013-05-09T10:28:09Z</time>
      </trkpt>
      <trkpt lat="49.04227" lon="7.77088">
        <ele>292.3781738</ele>
        <time>2013-05-09T10:28:19Z</time>
      </trkpt>
      <trkpt lat="49.04226" lon="7.7707">
        <ele>289.0135498</ele>
        <time>2013-05-09T10:28:32Z</time>
      </trkpt>
      <trkpt lat="49.04226" lon="7.77064">
        <ele>288.0522461</ele>
        <time>2013-05-09T10:28:36Z</time>
      </trkpt>
      <trkpt lat="49.04221" lon="7.77058">
        <ele>287.5714111</ele>
        <time>2013-05-09T10:28:40Z</time>
      </trkpt>
      <trkpt lat="49.04217" lon="7.77046">
        <ele>286.1295166</ele>
        <time>2013-05-09T10:28:48Z</time>
      </trkpt>
      <trkpt lat="49.0421" lon="7.77034">
        <ele>283.7261963</ele>
        <time>2013-05-09T10:29:00Z</time>
      </trkpt>
      <trkpt lat="49.04204" lon="7.77015">
        <ele>280.3616943</ele>
        <time>2013-05-09T10:29:17Z</time>
      </trkpt>
      <trkpt lat="49.04202" lon="7.77">
        <ele>278.4389648</ele>
        <time>2013-05-09T10:29:29Z</time>
      </trkpt>
      <trkpt lat="49.04197" lon="7.76983">
        <ele>275.0744629</ele>
        <time>2013-05-09T10:29:46Z</time>
      </trkpt>
      <trkpt lat="49.04194" lon="7.76966">
        <ele>273.1518555</ele>
        <time>2013-05-09T10:29:57Z</time>
      </trkpt>
      <trkpt lat="49.04183" lon="7.76947">
        <ele>271.229126</ele>
        <time>2013-05-09T10:30:12Z</time>
      </trkpt>
      <trkpt lat="49.04181" lon="7.76941">
        <ele>270.7484131</ele>
        <time>2013-05-09T10:30:16Z</time>
      </trkpt>
      <trkpt lat="49.04173" lon="7.76923">
        <ele>267.864502</ele>
        <time>2013-05-09T10:30:32Z</time>
      </trkpt>
      <trkpt lat="49.04172" lon="7.76923">
        <ele>267.3839111</ele>
        <time>2013-05-09T10:30:33Z</time>
      </trkpt>
      <trkpt lat="49.04166" lon="7.76911">
        <ele>265.4613037</ele>
        <time>2013-05-09T10:30:46Z</time>
      </trkpt>
      <trkpt lat="49.04162" lon="7.76899">
        <ele>264.4998779</ele>
        <time>2013-05-09T10:30:52Z</time>
      </trkpt>
      <trkpt lat="49.04158" lon="7.76893">
        <ele>263.5385742</ele>
        <time>2013-05-09T10:30:58Z</time>
      </trkpt>
      <trkpt lat="49.04156" lon="7.76886">
        <ele>262.5771484</ele>
        <time>2013-05-09T10:31:05Z</time>
      </trkpt>
      <trkpt lat="49.04145" lon="7.7686">
        <ele>260.654541</ele>
        <time>2013-05-09T10:31:23Z</time>
      </trkpt>
      <trkpt lat="49.04141" lon="7.76855">
        <ele>260.1739502</ele>
        <time>2013-05-09T10:31:39Z</time>
      </trkpt>
      <trkpt lat="49.0414" lon="7.76852">
        <ele>259.6933594</ele>
        <time>2013-05-09T10:31:42Z</time>
      </trkpt>
      <trkpt lat="49.04133" lon="7.76838">
        <ele>258.2513428</ele>
        <time>2013-05-09T10:31:52Z</time>
      </trkpt>
      <trkpt lat="49.0413" lon="7.76835">
        <ele>258.2513428</ele>
        <time>2013-05-09T10:31:55Z</time>
      </trkpt>
      <trkpt lat="49.04129" lon="7.76833">
        <ele>257.770752</ele>
        <time>2013-05-09T10:31:57Z</time>
      </trkpt>
      <trkpt lat="49.04126" lon="7.76827">
        <ele>257.2900391</ele>
        <time>2013-05-09T10:32:01Z</time>
      </trkpt>
      <trkpt lat="49.04124" lon="7.76809">
        <ele>255.3673096</ele>
        <time>2013-05-09T10:32:16Z</time>
      </trkpt>
      <trkpt lat="49.04118" lon="7.76788">
        <ele>253.4447021</ele>
        <time>2013-05-09T10:32:32Z</time>
      </trkpt>
      <trkpt lat="49.04106" lon="7.76762">
        <ele>250.560791</ele>
        <time>2013-05-09T10:32:50Z</time>
      </trkpt>
      <trkpt lat="49.04103" lon="7.76755">
        <ele>250.0802002</ele>
        <time>2013-05-09T10:32:55Z</time>
      </trkpt>
      <trkpt lat="49.041" lon="7.76749">
        <ele>249.5994873</ele>
        <time>2013-05-09T10:32:59Z</time>
      </trkpt>
      <trkpt lat="49.04098" lon="7.76745">
        <ele>249.1187744</ele>
        <time>2013-05-09T10:33:02Z</time>
      </trkpt>
      <trkpt lat="49.04096" lon="7.76739">
        <ele>248.6381836</ele>
        <time>2013-05-09T10:33:06Z</time>
      </trkpt>
      <trkpt lat="49.04089" lon="7.76722">
        <ele>246.7154541</ele>
        <time>2013-05-09T10:33:18Z</time>
      </trkpt>
      <trkpt lat="49.04082" lon="7.76711">
        <ele>245.7541504</ele>
        <time>2013-05-09T10:33:27Z</time>
      </trkpt>
      <trkpt lat="49.04068" lon="7.76694">
        <ele>243.831543</ele>
        <time>2013-05-09T10:33:41Z</time>
      </trkpt>
      <trkpt lat="49.04049" lon="7.7668">
        <ele>240.467041</ele>
        <time>2013-05-09T10:34:00Z</time>
      </trkpt>
      <trkpt lat="49.04032" lon="7.76664">
        <ele>238.0635986</ele>
        <time>2013-05-09T10:34:16Z</time>
      </trkpt>
      <trkpt lat="49.04031" lon="7.76663">
        <ele>238.0635986</ele>
        <time>2013-05-09T10:34:17Z</time>
      </trkpt>
      <trkpt lat="49.04026" lon="7.76659">
        <ele>237.5828857</ele>
        <time>2013-05-09T10:34:21Z</time>
      </trkpt>
      <trkpt lat="49.04016" lon="7.76646">
        <ele>235.6602783</ele>
        <time>2013-05-09T10:34:33Z</time>
      </trkpt>
      <trkpt lat="49.03998" lon="7.76629">
        <ele>233.7376709</ele>
        <time>2013-05-09T10:34:52Z</time>
      </trkpt>
      <trkpt lat="49.03994" lon="7.76629">
        <ele>233.7376709</ele>
        <time>2013-05-09T10:34:54Z</time>
      </trkpt>
      <trkpt lat="49.03984" lon="7.76624">
        <ele>232.7764893</ele>
        <time>2013-05-09T10:35:01Z</time>
      </trkpt>
      <trkpt lat="49.03982" lon="7.76624">
        <ele>232.7764893</ele>
        <time>2013-05-09T10:35:03Z</time>
      </trkpt>
      <trkpt lat="49.03979" lon="7.76624">
        <ele>232.2957764</ele>
        <time>2013-05-09T10:35:05Z</time>
      </trkpt>
      <trkpt lat="49.03977" lon="7.76623">
        <ele>231.8149414</ele>
        <time>2013-05-09T10:35:07Z</time>
      </trkpt>
      <trkpt lat="49.03961" lon="7.76623">
        <ele>229.892334</ele>
        <time>2013-05-09T10:35:21Z</time>
      </trkpt>
      <trkpt lat="49.03949" lon="7.76625">
        <ele>227.4891357</ele>
        <time>2013-05-09T10:35:35Z</time>
      </trkpt>
      <trkpt lat="49.03947" lon="7.76626">
        <ele>227.0085449</ele>
        <time>2013-05-09T10:35:37Z</time>
      </trkpt>
      <trkpt lat="49.0394" lon="7.76627">
        <ele>226.0471191</ele>
        <time>2013-05-09T10:35:42Z</time>
      </trkpt>
      <trkpt lat="49.03935" lon="7.76629">
        <ele>225.0859375</ele>
        <time>2013-05-09T10:35:50Z</time>
      </trkpt>
      <trkpt lat="49.03931" lon="7.76626">
        <ele>223.6437988</ele>
        <time>2013-05-09T10:35:55Z</time>
      </trkpt>
      <trkpt lat="49.03918" lon="7.76622">
        <ele>222.2017822</ele>
        <time>2013-05-09T10:36:07Z</time>
      </trkpt>
      <trkpt lat="49.03915" lon="7.76621">
        <ele>221.7211914</ele>
        <time>2013-05-09T10:36:10Z</time>
      </trkpt>
      <trkpt lat="49.03913" lon="7.7662">
        <ele>221.2406006</ele>
        <time>2013-05-09T10:36:12Z</time>
      </trkpt>
      <trkpt lat="49.03909" lon="7.76619">
        <ele>220.7598877</ele>
        <time>2013-05-09T10:36:16Z</time>
      </trkpt>
      <trkpt lat="49.039" lon="7.76576">
        <ele>218.8372803</ele>
        <time>2013-05-09T10:36:41Z</time>
      </trkpt>
      <trkpt lat="49.03895" lon="7.76565">
        <ele>217.8759766</ele>
        <time>2013-05-09T10:36:50Z</time>
      </trkpt>
      <trkpt lat="49.03894" lon="7.76563">
        <ele>217.8759766</ele>
        <time>2013-05-09T10:36:52Z</time>
      </trkpt>
      <trkpt lat="49.0388" lon="7.76536">
        <ele>216.43396</ele>
        <time>2013-05-09T10:37:15Z</time>
      </trkpt>
      <trkpt lat="49.03877" lon="7.76527">
        <ele>216.43396</ele>
        <time>2013-05-09T10:37:22Z</time>
      </trkpt>
      <trkpt lat="49.03859" lon="7.76504">
        <ele>216.43396</ele>
        <time>2013-05-09T10:37:42Z</time>
      </trkpt>
      <trkpt lat="49.03856" lon="7.76503">
        <ele>216.43396</ele>
        <time>2013-05-09T10:37:44Z</time>
      </trkpt>
      <trkpt lat="49.0385" lon="7.76503">
        <ele>216.43396</ele>
        <time>2013-05-09T10:37:49Z</time>
      </trkpt>
      <trkpt lat="49.03847" lon="7.76501">
        <ele>216.9146729</ele>
        <time>2013-05-09T10:37:51Z</time>
      </trkpt>
      <trkpt lat="49.03834" lon="7.765">
        <ele>217.3953857</ele>
        <time>2013-05-09T10:38:06Z</time>
      </trkpt>
      <trkpt lat="49.03821" lon="7.76501">
        <ele>219.798584</ele>
        <time>2013-05-09T10:38:20Z</time>
      </trkpt>
      <trkpt lat="49.03803" lon="7.76504">
        <ele>222.2017822</ele>
        <time>2013-05-09T10:38:34Z</time>
      </trkpt>
      <trkpt lat="49.03793" lon="7.76498">
        <ele>223.6437988</ele>
        <time>2013-05-09T10:38:51Z</time>
      </trkpt>
      <trkpt lat="49.03789" lon="7.76492">
        <ele>225.0859375</ele>
        <time>2013-05-09T10:38:59Z</time>
      </trkpt>
      <trkpt lat="49.03785" lon="7.76481">
        <ele>227.0085449</ele>
        <time>2013-05-09T10:39:14Z</time>
      </trkpt>
      <trkpt lat="49.03778" lon="7.76471">
        <ele>228.4504395</ele>
        <time>2013-05-09T10:39:25Z</time>
      </trkpt>
      <trkpt lat="49.03776" lon="7.76469">
        <ele>228.9311523</ele>
        <time>2013-05-09T10:39:28Z</time>
      </trkpt>
      <trkpt lat="49.03769" lon="7.76451">
        <ele>231.8149414</ele>
        <time>2013-05-09T10:39:48Z</time>
      </trkpt>
      <trkpt lat="49.03769" lon="7.76448">
        <ele>232.2957764</ele>
        <time>2013-05-09T10:39:51Z</time>
      </trkpt>
      <trkpt lat="49.03768" lon="7.76431">
        <ele>233.7376709</ele>
        <time>2013-05-09T10:40:04Z</time>
      </trkpt>
      <trkpt lat="49.03767" lon="7.76409">
        <ele>235.6602783</ele>
        <time>2013-05-09T10:40:20Z</time>
      </trkpt>
      <trkpt lat="49.03769" lon="7.76391">
        <ele>237.1022949</ele>
        <time>2013-05-09T10:40:33Z</time>
      </trkpt>
      <trkpt lat="49.03768" lon="7.7639">
        <ele>237.5828857</ele>
        <time>2013-05-09T10:40:35Z</time>
      </trkpt>
      <trkpt lat="49.03762" lon="7.76381">
        <ele>239.5054932</ele>
        <time>2013-05-09T10:40:46Z</time>
      </trkpt>
      <trkpt lat="49.0376" lon="7.76375">
        <ele>240.467041</ele>
        <time>2013-05-09T10:40:52Z</time>
      </trkpt>
      <trkpt lat="49.03757" lon="7.76368">
        <ele>242.3896484</ele>
        <time>2013-05-09T10:41:05Z</time>
      </trkpt>
      <trkpt lat="49.03756" lon="7.76363">
        <ele>242.8702393</ele>
        <time>2013-05-09T10:41:31Z</time>
      </trkpt>
      <trkpt lat="49.03756" lon="7.76346">
        <ele>245.7541504</ele>
        <time>2013-05-09T10:41:49Z</time>
      </trkpt>
      <trkpt lat="49.03753" lon="7.76331">
        <ele>248.6381836</ele>
        <time>2013-05-09T10:42:05Z</time>
      </trkpt>
      <trkpt lat="49.03751" lon="7.76317">
        <ele>251.0413818</ele>
        <time>2013-05-09T10:42:21Z</time>
      </trkpt>
      <trkpt lat="49.0374" lon="7.76311">
        <ele>253.4447021</ele>
        <time>2013-05-09T10:42:34Z</time>
      </trkpt>
      <trkpt lat="49.03737" lon="7.76296">
        <ele>256.3287354</ele>
        <time>2013-05-09T10:42:53Z</time>
      </trkpt>
      <trkpt lat="49.03734" lon="7.76285">
        <ele>258.2513428</ele>
        <time>2013-05-09T10:43:04Z</time>
      </trkpt>
      <trkpt lat="49.03724" lon="7.76274">
        <ele>260.654541</ele>
        <time>2013-05-09T10:43:18Z</time>
      </trkpt>
      <trkpt lat="49.03725" lon="7.76262">
        <ele>261.6159668</ele>
        <time>2013-05-09T10:43:27Z</time>
      </trkpt>
      <trkpt lat="49.03717" lon="7.76252">
        <ele>264.0192871</ele>
        <time>2013-05-09T10:43:41Z</time>
      </trkpt>
      <trkpt lat="49.03707" lon="7.76245">
        <ele>265.9418945</ele>
        <time>2013-05-09T10:43:55Z</time>
      </trkpt>
      <trkpt lat="49.03705" lon="7.76229">
        <ele>267.864502</ele>
        <time>2013-05-09T10:44:10Z</time>
      </trkpt>
      <trkpt lat="49.03693" lon="7.7622">
        <ele>270.2677002</ele>
        <time>2013-05-09T10:44:26Z</time>
      </trkpt>
      <trkpt lat="49.03685" lon="7.7621">
        <ele>272.1904297</ele>
        <time>2013-05-09T10:44:38Z</time>
      </trkpt>
      <trkpt lat="49.03678" lon="7.7621">
        <ele>272.1904297</ele>
        <time>2013-05-09T10:44:56Z</time>
      </trkpt>
      <trkpt lat="49.03673" lon="7.76208">
        <ele>273.1518555</ele>
        <time>2013-05-09T10:45:42Z</time>
      </trkpt>
      <trkpt lat="49.03669" lon="7.76204">
        <ele>273.1518555</ele>
        <time>2013-05-09T10:45:49Z</time>
      </trkpt>
      <trkpt lat="49.03666" lon="7.76192">
        <ele>275.5550537</ele>
        <time>2013-05-09T10:46:05Z</time>
      </trkpt>
      <trkpt lat="49.0365" lon="7.76179">
        <ele>277.4776611</ele>
        <time>2013-05-09T10:46:21Z</time>
      </trkpt>
      <trkpt lat="49.03636" lon="7.76166">
        <ele>279.4002686</ele>
        <time>2013-05-09T10:46:39Z</time>
      </trkpt>
      <trkpt lat="49.03627" lon="7.76152">
        <ele>281.8035889</ele>
        <time>2013-05-09T10:46:55Z</time>
      </trkpt>
      <trkpt lat="49.0362" lon="7.76143">
        <ele>283.2456055</ele>
        <time>2013-05-09T10:47:07Z</time>
      </trkpt>
      <trkpt lat="49.03619" lon="7.76135">
        <ele>284.2069092</ele>
        <time>2013-05-09T10:47:13Z</time>
      </trkpt>
      <trkpt lat="49.03612" lon="7.76118">
        <ele>287.0908203</ele>
        <time>2013-05-09T10:47:32Z</time>
      </trkpt>
      <trkpt lat="49.03602" lon="7.76109">
        <ele>289.9748535</ele>
        <time>2013-05-09T10:47:50Z</time>
      </trkpt>
      <trkpt lat="49.03595" lon="7.76101">
        <ele>292.3781738</ele>
        <time>2013-05-09T10:48:05Z</time>
      </trkpt>
      <trkpt lat="49.03589" lon="7.76091">
        <ele>294.7813721</ele>
        <time>2013-05-09T10:48:21Z</time>
      </trkpt>
      <trkpt lat="49.0359" lon="7.76088">
        <ele>295.2619629</ele>
        <time>2013-05-09T10:48:24Z</time>
      </trkpt>
      <trkpt lat="49.03589" lon="7.76072">
        <ele>297.1846924</ele>
        <time>2013-05-09T10:48:39Z</time>
      </trkpt>
      <trkpt lat="49.03584" lon="7.76057">
        <ele>300.0687256</ele>
        <time>2013-05-09T10:48:56Z</time>
      </trkpt>
      <trkpt lat="49.03586" lon="7.76041">
        <ele>302.4719238</ele>
        <time>2013-05-09T10:49:11Z</time>
      </trkpt>
      <trkpt lat="49.03587" lon="7.76026">
        <ele>303.9139404</ele>
        <time>2013-05-09T10:49:23Z</time>
      </trkpt>
      <trkpt lat="49.03589" lon="7.76009">
        <ele>304.8752441</ele>
        <time>2013-05-09T10:49:37Z</time>
      </trkpt>
      <trkpt lat="49.03591" lon="7.76006">
        <ele>304.8752441</ele>
        <time>2013-05-09T10:49:40Z</time>
      </trkpt>
      <trkpt lat="49.03592" lon="7.75994">
        <ele>306.7978516</ele>
        <time>2013-05-09T10:49:55Z</time>
      </trkpt>
      <trkpt lat="49.03599" lon="7.75982">
        <ele>309.2011719</ele>
        <time>2013-05-09T10:50:09Z</time>
      </trkpt>
      <trkpt lat="49.036" lon="7.75972">
        <ele>309.6818848</ele>
        <time>2013-05-09T10:50:16Z</time>
      </trkpt>
      <trkpt lat="49.03599" lon="7.75965">
        <ele>309.6818848</ele>
        <time>2013-05-09T10:50:20Z</time>
      </trkpt>
      <trkpt lat="49.036" lon="7.75948">
        <ele>310.1624756</ele>
        <time>2013-05-09T10:50:33Z</time>
      </trkpt>
      <trkpt lat="49.03599" lon="7.7594">
        <ele>310.6430664</ele>
        <time>2013-05-09T10:50:41Z</time>
      </trkpt>
      <trkpt lat="49.03599" lon="7.75937">
        <ele>310.6430664</ele>
        <time>2013-05-09T10:50:44Z</time>
      </trkpt>
      <trkpt lat="49.03602" lon="7.7592">
        <ele>312.0852051</ele>
        <time>2013-05-09T10:51:00Z</time>
      </trkpt>
      <trkpt lat="49.03596" lon="7.75901">
        <ele>313.0465088</ele>
        <time>2013-05-09T10:51:15Z</time>
      </trkpt>
      <trkpt lat="49.03586" lon="7.75888">
        <ele>313.5272217</ele>
        <time>2013-05-09T10:51:27Z</time>
      </trkpt>
      <trkpt lat="49.03577" lon="7.75871">
        <ele>314.4884033</ele>
        <time>2013-05-09T10:51:46Z</time>
      </trkpt>
      <trkpt lat="49.03574" lon="7.75868">
        <ele>314.4884033</ele>
        <time>2013-05-09T10:51:50Z</time>
      </trkpt>
      <trkpt lat="49.03569" lon="7.75851">
        <ele>315.9304199</ele>
        <time>2013-05-09T10:52:04Z</time>
      </trkpt>
      <trkpt lat="49.03554" lon="7.75824">
        <ele>317.8530273</ele>
        <time>2013-05-09T10:52:25Z</time>
      </trkpt>
      <trkpt lat="49.03553" lon="7.75823">
        <ele>317.3724365</ele>
        <time>2013-05-09T10:52:57Z</time>
      </trkpt>
      <trkpt lat="49.03554" lon="7.75818">
        <ele>318.3336182</ele>
        <time>2013-05-09T10:55:22Z</time>
      </trkpt>
      <trkpt lat="49.03555" lon="7.75817">
        <ele>318.3336182</ele>
        <time>2013-05-09T10:55:53Z</time>
      </trkpt>
      <trkpt lat="49.03553" lon="7.75804">
        <ele>319.2950439</ele>
        <time>2013-05-09T10:56:11Z</time>
      </trkpt>
      <trkpt lat="49.03553" lon="7.75785">
        <ele>319.2950439</ele>
        <time>2013-05-09T10:56:24Z</time>
      </trkpt>
      <trkpt lat="49.03557" lon="7.75756">
        <ele>320.7370605</ele>
        <time>2013-05-09T10:56:43Z</time>
      </trkpt>
      <trkpt lat="49.03559" lon="7.75739">
        <ele>321.2177734</ele>
        <time>2013-05-09T10:56:51Z</time>
      </trkpt>
      <trkpt lat="49.03558" lon="7.75722">
        <ele>321.6983643</ele>
        <time>2013-05-09T10:57:04Z</time>
      </trkpt>
      <trkpt lat="49.03555" lon="7.75707">
        <ele>322.659668</ele>
        <time>2013-05-09T10:57:13Z</time>
      </trkpt>
      <trkpt lat="49.03555" lon="7.7569">
        <ele>323.1403809</ele>
        <time>2013-05-09T10:57:23Z</time>
      </trkpt>
      <trkpt lat="49.03556" lon="7.75674">
        <ele>323.6209717</ele>
        <time>2013-05-09T10:57:33Z</time>
      </trkpt>
      <trkpt lat="49.03558" lon="7.75657">
        <ele>324.1015625</ele>
        <time>2013-05-09T10:57:48Z</time>
      </trkpt>
      <trkpt lat="49.03558" lon="7.75648">
        <ele>324.1015625</ele>
        <time>2013-05-09T10:57:52Z</time>
      </trkpt>
      <trkpt lat="49.03561" lon="7.75621">
        <ele>325.0629883</ele>
        <time>2013-05-09T10:58:06Z</time>
      </trkpt>
      <trkpt lat="49.03562" lon="7.75599">
        <ele>326.0241699</ele>
        <time>2013-05-09T10:58:21Z</time>
      </trkpt>
      <trkpt lat="49.03563" lon="7.7557">
        <ele>326.9855957</ele>
        <time>2013-05-09T10:58:35Z</time>
      </trkpt>
      <trkpt lat="49.03561" lon="7.75543">
        <ele>327.4661865</ele>
        <time>2013-05-09T10:58:53Z</time>
      </trkpt>
      <trkpt lat="49.03562" lon="7.75528">
        <ele>327.9467773</ele>
        <time>2013-05-09T10:59:03Z</time>
      </trkpt>
      <trkpt lat="49.03562" lon="7.75505">
        <ele>328.9083252</ele>
        <time>2013-05-09T10:59:17Z</time>
      </trkpt>
      <trkpt lat="49.03564" lon="7.75484">
        <ele>329.8695068</ele>
        <time>2013-05-09T10:59:31Z</time>
      </trkpt>
      <trkpt lat="49.03567" lon="7.75473">
        <ele>330.3502197</ele>
        <time>2013-05-09T10:59:38Z</time>
      </trkpt>
      <trkpt lat="49.03568" lon="7.75447">
        <ele>331.3115234</ele>
        <time>2013-05-09T10:59:50Z</time>
      </trkpt>
      <trkpt lat="49.03569" lon="7.75431">
        <ele>331.3115234</ele>
        <time>2013-05-09T11:00:02Z</time>
      </trkpt>
      <trkpt lat="49.0357" lon="7.75417">
        <ele>331.7921143</ele>
        <time>2013-05-09T11:00:12Z</time>
      </trkpt>
      <trkpt lat="49.0357" lon="7.7539">
        <ele>333.2341309</ele>
        <time>2013-05-09T11:00:29Z</time>
      </trkpt>
      <trkpt lat="49.0357" lon="7.7537">
        <ele>333.7147217</ele>
        <time>2013-05-09T11:00:42Z</time>
      </trkpt>
      <trkpt lat="49.03571" lon="7.75343">
        <ele>335.1567383</ele>
        <time>2013-05-09T11:01:01Z</time>
      </trkpt>
      <trkpt lat="49.03572" lon="7.75319">
        <ele>335.6373291</ele>
        <time>2013-05-09T11:01:15Z</time>
      </trkpt>
      <trkpt lat="49.03566" lon="7.75288">
        <ele>336.598877</ele>
        <time>2013-05-09T11:01:35Z</time>
      </trkpt>
      <trkpt lat="49.03565" lon="7.75268">
        <ele>338.0407715</ele>
        <time>2013-05-09T11:01:49Z</time>
      </trkpt>
      <trkpt lat="49.03563" lon="7.7526">
        <ele>338.0407715</ele>
        <time>2013-05-09T11:01:55Z</time>
      </trkpt>
      <trkpt lat="49.03559" lon="7.75241">
        <ele>339.0020752</ele>
        <time>2013-05-09T11:02:10Z</time>
      </trkpt>
      <trkpt lat="49.0356" lon="7.75235">
        <ele>339.482666</ele>
        <time>2013-05-09T11:02:14Z</time>
      </trkpt>
      <trkpt lat="49.03557" lon="7.75227">
        <ele>339.482666</ele>
        <time>2013-05-09T11:02:19Z</time>
      </trkpt>
      <trkpt lat="49.03558" lon="7.75204">
        <ele>340.4440918</ele>
        <time>2013-05-09T11:02:32Z</time>
      </trkpt>
      <trkpt lat="49.03558" lon="7.75195">
        <ele>340.4440918</ele>
        <time>2013-05-09T11:02:39Z</time>
      </trkpt>
      <trkpt lat="49.03559" lon="7.7519">
        <ele>340.9246826</ele>
        <time>2013-05-09T11:02:41Z</time>
      </trkpt>
      <trkpt lat="49.03555" lon="7.75157">
        <ele>341.4052734</ele>
        <time>2013-05-09T11:02:57Z</time>
      </trkpt>
      <trkpt lat="49.03551" lon="7.75153">
        <ele>340.9246826</ele>
        <time>2013-05-09T11:03:26Z</time>
      </trkpt>
      <trkpt lat="49.03554" lon="7.7514">
        <ele>342.3666992</ele>
        <time>2013-05-09T11:04:51Z</time>
      </trkpt>
      <trkpt lat="49.03563" lon="7.75082">
        <ele>343.8085938</ele>
        <time>2013-05-09T11:05:30Z</time>
      </trkpt>
      <trkpt lat="49.03564" lon="7.75075">
        <ele>343.8085938</ele>
        <time>2013-05-09T11:05:33Z</time>
      </trkpt>
      <trkpt lat="49.03562" lon="7.75035">
        <ele>344.7700195</ele>
        <time>2013-05-09T11:05:47Z</time>
      </trkpt>
      <trkpt lat="49.03564" lon="7.75014">
        <ele>344.2894287</ele>
        <time>2013-05-09T11:05:58Z</time>
      </trkpt>
      <trkpt lat="49.03572" lon="7.75004">
        <ele>344.7700195</ele>
        <time>2013-05-09T11:06:10Z</time>
      </trkpt>
      <trkpt lat="49.03578" lon="7.74987">
        <ele>345.2506104</ele>
        <time>2013-05-09T11:06:24Z</time>
      </trkpt>
      <trkpt lat="49.0358" lon="7.74985">
        <ele>345.7313232</ele>
        <time>2013-05-09T11:06:26Z</time>
      </trkpt>
      <trkpt lat="49.03588" lon="7.7497">
        <ele>345.2506104</ele>
        <time>2013-05-09T11:06:39Z</time>
      </trkpt>
      <trkpt lat="49.03595" lon="7.74954">
        <ele>346.2120361</ele>
        <time>2013-05-09T11:06:51Z</time>
      </trkpt>
      <trkpt lat="49.03604" lon="7.74943">
        <ele>346.2120361</ele>
        <time>2013-05-09T11:07:05Z</time>
      </trkpt>
      <trkpt lat="49.03613" lon="7.74931">
        <ele>347.1732178</ele>
        <time>2013-05-09T11:07:18Z</time>
      </trkpt>
      <trkpt lat="49.03628" lon="7.74918">
        <ele>346.692627</ele>
        <time>2013-05-09T11:07:32Z</time>
      </trkpt>
      <trkpt lat="49.03638" lon="7.74909">
        <ele>347.6539307</ele>
        <time>2013-05-09T11:07:43Z</time>
      </trkpt>
      <trkpt lat="49.03658" lon="7.74896">
        <ele>347.6539307</ele>
        <time>2013-05-09T11:08:04Z</time>
      </trkpt>
      <trkpt lat="49.03674" lon="7.74888">
        <ele>349.0958252</ele>
        <time>2013-05-09T11:08:21Z</time>
      </trkpt>
      <trkpt lat="49.03696" lon="7.74877">
        <ele>348.6152344</ele>
        <time>2013-05-09T11:08:43Z</time>
      </trkpt>
      <trkpt lat="49.0373" lon="7.74883">
        <ele>350.057251</ele>
        <time>2013-05-09T11:09:14Z</time>
      </trkpt>
      <trkpt lat="49.03755" lon="7.74876">
        <ele>351.4991455</ele>
        <time>2013-05-09T11:09:40Z</time>
      </trkpt>
      <trkpt lat="49.03785" lon="7.74871">
        <ele>352.9411621</ele>
        <time>2013-05-09T11:10:05Z</time>
      </trkpt>
      <trkpt lat="49.03807" lon="7.74875">
        <ele>353.9025879</ele>
        <time>2013-05-09T11:10:33Z</time>
      </trkpt>
      <trkpt lat="49.0383" lon="7.74842">
        <ele>354.3831787</ele>
        <time>2013-05-09T11:11:00Z</time>
      </trkpt>
      <trkpt lat="49.03837" lon="7.74823">
        <ele>354.8637695</ele>
        <time>2013-05-09T11:11:11Z</time>
      </trkpt>
      <trkpt lat="49.0385" lon="7.74803">
        <ele>354.8637695</ele>
        <time>2013-05-09T11:11:19Z</time>
      </trkpt>
      <trkpt lat="49.03862" lon="7.74782">
        <ele>357.2670898</ele>
        <time>2013-05-09T11:11:47Z</time>
      </trkpt>
      <trkpt lat="49.03858" lon="7.74753">
        <ele>356.3057861</ele>
        <time>2013-05-09T11:12:01Z</time>
      </trkpt>
      <trkpt lat="49.03861" lon="7.74736">
        <ele>353.421875</ele>
        <time>2013-05-09T11:12:16Z</time>
      </trkpt>
      <trkpt lat="49.03864" lon="7.74715">
        <ele>351.9798584</ele>
        <time>2013-05-09T11:12:33Z</time>
      </trkpt>
      <trkpt lat="49.03866" lon="7.74689">
        <ele>351.4991455</ele>
        <time>2013-05-09T11:12:53Z</time>
      </trkpt>
      <trkpt lat="49.03864" lon="7.74657">
        <ele>351.9798584</ele>
        <time>2013-05-09T11:13:14Z</time>
      </trkpt>
      <trkpt lat="49.03861" lon="7.74625">
        <ele>351.0184326</ele>
        <time>2013-05-09T11:13:34Z</time>
      </trkpt>
      <trkpt lat="49.03854" lon="7.74598">
        <ele>350.057251</ele>
        <time>2013-05-09T11:13:52Z</time>
      </trkpt>
      <trkpt lat="49.03844" lon="7.74568">
        <ele>351.0184326</ele>
        <time>2013-05-09T11:14:13Z</time>
      </trkpt>
      <trkpt lat="49.03831" lon="7.74542">
        <ele>349.0958252</ele>
        <time>2013-05-09T11:14:32Z</time>
      </trkpt>
      <trkpt lat="49.03821" lon="7.74528">
        <ele>347.1732178</ele>
        <time>2013-05-09T11:14:43Z</time>
      </trkpt>
      <trkpt lat="49.0382" lon="7.74502">
        <ele>346.692627</ele>
        <time>2013-05-09T11:15:04Z</time>
      </trkpt>
      <trkpt lat="49.03821" lon="7.74494">
        <ele>346.692627</ele>
        <time>2013-05-09T11:15:10Z</time>
      </trkpt>
      <trkpt lat="49.0381" lon="7.74483">
        <ele>345.2506104</ele>
        <time>2013-05-09T11:15:20Z</time>
      </trkpt>
      <trkpt lat="49.03806" lon="7.74474">
        <ele>344.7700195</ele>
        <time>2013-05-09T11:15:26Z</time>
      </trkpt>
      <trkpt lat="49.03795" lon="7.74461">
        <ele>343.8085938</ele>
        <time>2013-05-09T11:15:37Z</time>
      </trkpt>
      <trkpt lat="49.03791" lon="7.74455">
        <ele>342.84729</ele>
        <time>2013-05-09T11:15:43Z</time>
      </trkpt>
      <trkpt lat="49.03785" lon="7.74445">
        <ele>340.9246826</ele>
        <time>2013-05-09T11:15:54Z</time>
      </trkpt>
      <trkpt lat="49.03771" lon="7.7442">
        <ele>338.0407715</ele>
        <time>2013-05-09T11:16:15Z</time>
      </trkpt>
      <trkpt lat="49.03771" lon="7.74419">
        <ele>338.0407715</ele>
        <time>2013-05-09T11:16:16Z</time>
      </trkpt>
      <trkpt lat="49.03757" lon="7.74402">
        <ele>335.6373291</ele>
        <time>2013-05-09T11:16:34Z</time>
      </trkpt>
      <trkpt lat="49.03759" lon="7.74395">
        <ele>334.6761475</ele>
        <time>2013-05-09T11:16:40Z</time>
      </trkpt>
      <trkpt lat="49.03753" lon="7.74383">
        <ele>334.1954346</ele>
        <time>2013-05-09T11:16:50Z</time>
      </trkpt>
      <trkpt lat="49.03744" lon="7.74382">
        <ele>333.2341309</ele>
        <time>2013-05-09T11:17:07Z</time>
      </trkpt>
      <trkpt lat="49.03734" lon="7.74376">
        <ele>335.6373291</ele>
        <time>2013-05-09T11:17:35Z</time>
      </trkpt>
      <trkpt lat="49.0373" lon="7.74373">
        <ele>336.598877</ele>
        <time>2013-05-09T11:17:39Z</time>
      </trkpt>
      <trkpt lat="49.03724" lon="7.74356">
        <ele>336.1181641</ele>
        <time>2013-05-09T11:17:49Z</time>
      </trkpt>
      <trkpt lat="49.03727" lon="7.74328">
        <ele>337.5600586</ele>
        <time>2013-05-09T11:18:06Z</time>
      </trkpt>
      <trkpt lat="49.03723" lon="7.74336">
        <ele>329.8695068</ele>
        <time>2013-05-09T11:49:57Z</time>
      </trkpt>
      <trkpt lat="49.03724" lon="7.74328">
        <ele>328.4276123</ele>
        <time>2013-05-09T11:50:10Z</time>
      </trkpt>
      <trkpt lat="49.03725" lon="7.74323">
        <ele>328.4276123</ele>
        <time>2013-05-09T11:50:13Z</time>
      </trkpt>
      <trkpt lat="49.03731" lon="7.74316">
        <ele>328.4276123</ele>
        <time>2013-05-09T11:50:20Z</time>
      </trkpt>
      <trkpt lat="49.03732" lon="7.74305">
        <ele>328.4276123</ele>
        <time>2013-05-09T11:50:26Z</time>
      </trkpt>
      <trkpt lat="49.03737" lon="7.74296">
        <ele>329.388916</ele>
        <time>2013-05-09T11:50:34Z</time>
      </trkpt>
      <trkpt lat="49.03749" lon="7.74287">
        <ele>330.3502197</ele>
        <time>2013-05-09T11:50:45Z</time>
      </trkpt>
      <trkpt lat="49.03755" lon="7.74277">
        <ele>330.8309326</ele>
        <time>2013-05-09T11:50:56Z</time>
      </trkpt>
      <trkpt lat="49.03767" lon="7.74265">
        <ele>332.2728271</ele>
        <time>2013-05-09T11:51:10Z</time>
      </trkpt>
      <trkpt lat="49.03768" lon="7.74264">
        <ele>332.2728271</ele>
        <time>2013-05-09T11:51:11Z</time>
      </trkpt>
      <trkpt lat="49.03774" lon="7.74256">
        <ele>333.7147217</ele>
        <time>2013-05-09T11:51:24Z</time>
      </trkpt>
      <trkpt lat="49.03778" lon="7.74258">
        <ele>335.1567383</ele>
        <time>2013-05-09T11:51:39Z</time>
      </trkpt>
      <trkpt lat="49.03791" lon="7.74242">
        <ele>337.0794678</ele>
        <time>2013-05-09T11:52:01Z</time>
      </trkpt>
      <trkpt lat="49.03793" lon="7.74238">
        <ele>337.5600586</ele>
        <time>2013-05-09T11:52:04Z</time>
      </trkpt>
      <trkpt lat="49.03807" lon="7.74231">
        <ele>338.0407715</ele>
        <time>2013-05-09T11:52:15Z</time>
      </trkpt>
      <trkpt lat="49.03809" lon="7.74229">
        <ele>338.5214844</ele>
        <time>2013-05-09T11:52:18Z</time>
      </trkpt>
      <trkpt lat="49.0381" lon="7.74224">
        <ele>339.0020752</ele>
        <time>2013-05-09T11:52:21Z</time>
      </trkpt>
      <trkpt lat="49.03811" lon="7.74222">
        <ele>339.482666</ele>
        <time>2013-05-09T11:52:24Z</time>
      </trkpt>
      <trkpt lat="49.03818" lon="7.74207">
        <ele>341.8859863</ele>
        <time>2013-05-09T11:52:39Z</time>
      </trkpt>
      <trkpt lat="49.03834" lon="7.74178">
        <ele>343.8085938</ele>
        <time>2013-05-09T11:52:59Z</time>
      </trkpt>
      <trkpt lat="49.03838" lon="7.74159">
        <ele>346.692627</ele>
        <time>2013-05-09T11:53:17Z</time>
      </trkpt>
      <trkpt lat="49.03841" lon="7.7414">
        <ele>348.6152344</ele>
        <time>2013-05-09T11:53:35Z</time>
      </trkpt>
      <trkpt lat="49.03847" lon="7.74125">
        <ele>351.4991455</ele>
        <time>2013-05-09T11:53:52Z</time>
      </trkpt>
      <trkpt lat="49.03848" lon="7.74104">
        <ele>352.4605713</ele>
        <time>2013-05-09T11:54:06Z</time>
      </trkpt>
      <trkpt lat="49.03854" lon="7.74086">
        <ele>353.421875</ele>
        <time>2013-05-09T11:54:20Z</time>
      </trkpt>
      <trkpt lat="49.03859" lon="7.7409">
        <ele>355.8251953</ele>
        <time>2013-05-09T11:54:35Z</time>
      </trkpt>
      <trkpt lat="49.03859" lon="7.74097">
        <ele>357.7478027</ele>
        <time>2013-05-09T11:54:47Z</time>
      </trkpt>
      <trkpt lat="49.03859" lon="7.74108">
        <ele>360.6317139</ele>
        <time>2013-05-09T11:55:02Z</time>
      </trkpt>
      <trkpt lat="49.03863" lon="7.74104">
        <ele>361.5931396</ele>
        <time>2013-05-09T11:55:10Z</time>
      </trkpt>
      <trkpt lat="49.03872" lon="7.74097">
        <ele>363.5157471</ele>
        <time>2013-05-09T11:55:22Z</time>
      </trkpt>
      <trkpt lat="49.03873" lon="7.7408">
        <ele>365.4383545</ele>
        <time>2013-05-09T11:55:36Z</time>
      </trkpt>
      <trkpt lat="49.03873" lon="7.74059">
        <ele>365.4383545</ele>
        <time>2013-05-09T11:55:53Z</time>
      </trkpt>
      <trkpt lat="49.03871" lon="7.74048">
        <ele>364.9576416</ele>
        <time>2013-05-09T11:56:01Z</time>
      </trkpt>
      <trkpt lat="49.03866" lon="7.74005">
        <ele>363.0350342</ele>
        <time>2013-05-09T11:56:30Z</time>
      </trkpt>
      <trkpt lat="49.03864" lon="7.73975">
        <ele>361.1124268</ele>
        <time>2013-05-09T11:56:51Z</time>
      </trkpt>
      <trkpt lat="49.03863" lon="7.73968">
        <ele>360.6317139</ele>
        <time>2013-05-09T11:56:56Z</time>
      </trkpt>
      <trkpt lat="49.03857" lon="7.7394">
        <ele>359.1896973</ele>
        <time>2013-05-09T11:57:13Z</time>
      </trkpt>
      <trkpt lat="49.03852" lon="7.73913">
        <ele>358.2283936</ele>
        <time>2013-05-09T11:57:29Z</time>
      </trkpt>
      <trkpt lat="49.03851" lon="7.73911">
        <ele>357.7478027</ele>
        <time>2013-05-09T11:57:31Z</time>
      </trkpt>
      <trkpt lat="49.03849" lon="7.73892">
        <ele>356.786377</ele>
        <time>2013-05-09T11:57:44Z</time>
      </trkpt>
      <trkpt lat="49.0385" lon="7.73883">
        <ele>357.2670898</ele>
        <time>2013-05-09T11:57:58Z</time>
      </trkpt>
      <trkpt lat="49.0385" lon="7.73879">
        <ele>359.1896973</ele>
        <time>2013-05-09T11:58:09Z</time>
      </trkpt>
      <trkpt lat="49.03847" lon="7.73861">
        <ele>360.6317139</ele>
        <time>2013-05-09T11:58:22Z</time>
      </trkpt>
      <trkpt lat="49.03843" lon="7.7385">
        <ele>362.5543213</ele>
        <time>2013-05-09T11:58:36Z</time>
      </trkpt>
      <trkpt lat="49.03841" lon="7.73838">
        <ele>363.0350342</ele>
        <time>2013-05-09T11:58:44Z</time>
      </trkpt>
      <trkpt lat="49.03835" lon="7.73814">
        <ele>362.5543213</ele>
        <time>2013-05-09T11:59:01Z</time>
      </trkpt>
      <trkpt lat="49.03831" lon="7.738">
        <ele>363.0350342</ele>
        <time>2013-05-09T11:59:14Z</time>
      </trkpt>
      <trkpt lat="49.03823" lon="7.73782">
        <ele>362.0737305</ele>
        <time>2013-05-09T11:59:29Z</time>
      </trkpt>
      <trkpt lat="49.03815" lon="7.73778">
        <ele>360.151123</ele>
        <time>2013-05-09T11:59:37Z</time>
      </trkpt>
      <trkpt lat="49.03812" lon="7.73771">
        <ele>361.1124268</ele>
        <time>2013-05-09T11:59:45Z</time>
      </trkpt>
      <trkpt lat="49.03806" lon="7.73759">
        <ele>362.0737305</ele>
        <time>2013-05-09T11:59:56Z</time>
      </trkpt>
      <trkpt lat="49.03798" lon="7.73755">
        <ele>361.5931396</ele>
        <time>2013-05-09T12:00:04Z</time>
      </trkpt>
      <trkpt lat="49.03798" lon="7.73738">
        <ele>362.5543213</ele>
        <time>2013-05-09T12:00:12Z</time>
      </trkpt>
      <trkpt lat="49.03796" lon="7.73732">
        <ele>362.5543213</ele>
        <time>2013-05-09T12:00:17Z</time>
      </trkpt>
      <trkpt lat="49.03791" lon="7.73727">
        <ele>363.0350342</ele>
        <time>2013-05-09T12:00:24Z</time>
      </trkpt>
      <trkpt lat="49.03785" lon="7.73718">
        <ele>362.0737305</ele>
        <time>2013-05-09T12:00:37Z</time>
      </trkpt>
      <trkpt lat="49.03772" lon="7.73709">
        <ele>360.151123</ele>
        <time>2013-05-09T12:00:54Z</time>
      </trkpt>
      <trkpt lat="49.03768" lon="7.73705">
        <ele>361.5931396</ele>
        <time>2013-05-09T12:01:02Z</time>
      </trkpt>
      <trkpt lat="49.03758" lon="7.73695">
        <ele>362.0737305</ele>
        <time>2013-05-09T12:01:15Z</time>
      </trkpt>
      <trkpt lat="49.03755" lon="7.73697">
        <ele>362.5543213</ele>
        <time>2013-05-09T12:01:23Z</time>
      </trkpt>
      <trkpt lat="49.03743" lon="7.73691">
        <ele>363.0350342</ele>
        <time>2013-05-09T12:01:37Z</time>
      </trkpt>
      <trkpt lat="49.03733" lon="7.73685">
        <ele>362.5543213</ele>
        <time>2013-05-09T12:01:52Z</time>
      </trkpt>
      <trkpt lat="49.03722" lon="7.73676">
        <ele>363.0350342</ele>
        <time>2013-05-09T12:02:12Z</time>
      </trkpt>
      <trkpt lat="49.03709" lon="7.73684">
        <ele>362.5543213</ele>
        <time>2013-05-09T12:02:26Z</time>
      </trkpt>
      <trkpt lat="49.03696" lon="7.73674">
        <ele>364.4769287</ele>
        <time>2013-05-09T12:02:51Z</time>
      </trkpt>
      <trkpt lat="49.03686" lon="7.73672">
        <ele>363.0350342</ele>
        <time>2013-05-09T12:03:06Z</time>
      </trkpt>
      <trkpt lat="49.03668" lon="7.73665">
        <ele>363.5157471</ele>
        <time>2013-05-09T12:03:19Z</time>
      </trkpt>
      <trkpt lat="49.03665" lon="7.73662">
        <ele>363.9963379</ele>
        <time>2013-05-09T12:03:40Z</time>
      </trkpt>
      <trkpt lat="49.03675" lon="7.7366">
        <ele>366.3995361</ele>
        <time>2013-05-09T12:04:41Z</time>
      </trkpt>
      <trkpt lat="49.03671" lon="7.73662">
        <ele>369.7642822</ele>
        <time>2013-05-09T12:05:07Z</time>
      </trkpt>
      <trkpt lat="49.03642" lon="7.73663">
        <ele>365.4383545</ele>
        <time>2013-05-09T12:07:27Z</time>
      </trkpt>
      <trkpt lat="49.03639" lon="7.73661">
        <ele>364.4769287</ele>
        <time>2013-05-09T12:09:06Z</time>
      </trkpt>
      <trkpt lat="49.0361" lon="7.73665">
        <ele>364.4769287</ele>
        <time>2013-05-09T12:09:41Z</time>
      </trkpt>
      <trkpt lat="49.03579" lon="7.73667">
        <ele>364.4769287</ele>
        <time>2013-05-09T12:10:06Z</time>
      </trkpt>
      <trkpt lat="49.03554" lon="7.73651">
        <ele>365.4383545</ele>
        <time>2013-05-09T12:10:35Z</time>
      </trkpt>
      <trkpt lat="49.03525" lon="7.73638">
        <ele>365.4383545</ele>
        <time>2013-05-09T12:11:13Z</time>
      </trkpt>
      <trkpt lat="49.035" lon="7.7364">
        <ele>364.9576416</ele>
        <time>2013-05-09T12:11:42Z</time>
      </trkpt>
      <trkpt lat="49.03488" lon="7.73638">
        <ele>364.9576416</ele>
        <time>2013-05-09T12:12:09Z</time>
      </trkpt>
      <trkpt lat="49.03469" lon="7.73642">
        <ele>365.9189453</ele>
        <time>2013-05-09T12:12:50Z</time>
      </trkpt>
      <trkpt lat="49.03467" lon="7.73641">
        <ele>367.3609619</ele>
        <time>2013-05-09T12:13:06Z</time>
      </trkpt>
      <trkpt lat="49.03434" lon="7.73635">
        <ele>368.8029785</ele>
        <time>2013-05-09T12:13:29Z</time>
      </trkpt>
      <trkpt lat="49.03427" lon="7.73637">
        <ele>371.2062988</ele>
        <time>2013-05-09T12:13:49Z</time>
      </trkpt>
      <trkpt lat="49.03421" lon="7.73641">
        <ele>372.1674805</ele>
        <time>2013-05-09T12:13:57Z</time>
      </trkpt>
      <trkpt lat="49.03408" lon="7.73644">
        <ele>373.6094971</ele>
        <time>2013-05-09T12:14:11Z</time>
      </trkpt>
      <trkpt lat="49.03386" lon="7.73643">
        <ele>376.4935303</ele>
        <time>2013-05-09T12:14:28Z</time>
      </trkpt>
      <trkpt lat="49.03374" lon="7.73634">
        <ele>378.8968506</ele>
        <time>2013-05-09T12:14:41Z</time>
      </trkpt>
      <trkpt lat="49.03359" lon="7.73623">
        <ele>378.8968506</ele>
        <time>2013-05-09T12:14:55Z</time>
      </trkpt>
      <trkpt lat="49.03358" lon="7.73622">
        <ele>379.3774414</ele>
        <time>2013-05-09T12:14:56Z</time>
      </trkpt>
      <trkpt lat="49.03349" lon="7.73601">
        <ele>380.819458</ele>
        <time>2013-05-09T12:15:16Z</time>
      </trkpt>
      <trkpt lat="49.03337" lon="7.73586">
        <ele>381.7806396</ele>
        <time>2013-05-09T12:15:34Z</time>
      </trkpt>
      <trkpt lat="49.03338" lon="7.7356">
        <ele>384.184082</ele>
        <time>2013-05-09T12:15:53Z</time>
      </trkpt>
      <trkpt lat="49.03342" lon="7.73531">
        <ele>387.0679932</ele>
        <time>2013-05-09T12:16:14Z</time>
      </trkpt>
      <trkpt lat="49.03342" lon="7.73529">
        <ele>387.0679932</ele>
        <time>2013-05-09T12:16:15Z</time>
      </trkpt>
      <trkpt lat="49.03339" lon="7.73516">
        <ele>386.5874023</ele>
        <time>2013-05-09T12:16:26Z</time>
      </trkpt>
      <trkpt lat="49.03336" lon="7.73491">
        <ele>386.5874023</ele>
        <time>2013-05-09T12:16:42Z</time>
      </trkpt>
      <trkpt lat="49.03335" lon="7.73488">
        <ele>387.0679932</ele>
        <time>2013-05-09T12:16:44Z</time>
      </trkpt>
      <trkpt lat="49.03334" lon="7.73464">
        <ele>386.5874023</ele>
        <time>2013-05-09T12:16:55Z</time>
      </trkpt>
      <trkpt lat="49.03334" lon="7.73454">
        <ele>386.5874023</ele>
        <time>2013-05-09T12:17:00Z</time>
      </trkpt>
      <trkpt lat="49.03332" lon="7.73448">
        <ele>386.5874023</ele>
        <time>2013-05-09T12:17:03Z</time>
      </trkpt>
      <trkpt lat="49.03332" lon="7.73426">
        <ele>386.5874023</ele>
        <time>2013-05-09T12:17:15Z</time>
      </trkpt>
      <trkpt lat="49.03333" lon="7.73421">
        <ele>386.1066895</ele>
        <time>2013-05-09T12:17:18Z</time>
      </trkpt>
      <trkpt lat="49.03332" lon="7.73395">
        <ele>384.6647949</ele>
        <time>2013-05-09T12:17:34Z</time>
      </trkpt>
      <trkpt lat="49.03335" lon="7.73371">
        <ele>385.1453857</ele>
        <time>2013-05-09T12:17:49Z</time>
      </trkpt>
      <trkpt lat="49.03335" lon="7.73365">
        <ele>385.1453857</ele>
        <time>2013-05-09T12:17:53Z</time>
      </trkpt>
      <trkpt lat="49.03336" lon="7.73357">
        <ele>386.1066895</ele>
        <time>2013-05-09T12:17:58Z</time>
      </trkpt>
      <trkpt lat="49.03338" lon="7.73351">
        <ele>385.6259766</ele>
        <time>2013-05-09T12:18:02Z</time>
      </trkpt>
      <trkpt lat="49.03343" lon="7.73337">
        <ele>385.6259766</ele>
        <time>2013-05-09T12:18:12Z</time>
      </trkpt>
      <trkpt lat="49.03344" lon="7.73336">
        <ele>385.6259766</ele>
        <time>2013-05-09T12:18:14Z</time>
      </trkpt>
      <trkpt lat="49.03345" lon="7.7333">
        <ele>385.1453857</ele>
        <time>2013-05-09T12:18:18Z</time>
      </trkpt>
      <trkpt lat="49.0335" lon="7.73322">
        <ele>384.6647949</ele>
        <time>2013-05-09T12:18:28Z</time>
      </trkpt>
      <trkpt lat="49.03367" lon="7.73303">
        <ele>384.6647949</ele>
        <time>2013-05-09T12:18:44Z</time>
      </trkpt>
      <trkpt lat="49.03379" lon="7.73289">
        <ele>384.6647949</ele>
        <time>2013-05-09T12:18:55Z</time>
      </trkpt>
      <trkpt lat="49.03382" lon="7.73285">
        <ele>384.6647949</ele>
        <time>2013-05-09T12:18:59Z</time>
      </trkpt>
      <trkpt lat="49.03385" lon="7.7328">
        <ele>384.6647949</ele>
        <time>2013-05-09T12:19:16Z</time>
      </trkpt>
      <trkpt lat="49.03387" lon="7.73274">
        <ele>383.7032471</ele>
        <time>2013-05-09T12:19:34Z</time>
      </trkpt>
      <trkpt lat="49.03404" lon="7.73269">
        <ele>382.2613525</ele>
        <time>2013-05-09T12:19:50Z</time>
      </trkpt>
      <trkpt lat="49.03418" lon="7.73269">
        <ele>381.7806396</ele>
        <time>2013-05-09T12:20:02Z</time>
      </trkpt>
      <trkpt lat="49.03424" lon="7.73267">
        <ele>381.3000488</ele>
        <time>2013-05-09T12:20:07Z</time>
      </trkpt>
      <trkpt lat="49.03427" lon="7.73268">
        <ele>380.819458</ele>
        <time>2013-05-09T12:20:10Z</time>
      </trkpt>
      <trkpt lat="49.03445" lon="7.73264">
        <ele>379.3774414</ele>
        <time>2013-05-09T12:20:26Z</time>
      </trkpt>
      <trkpt lat="49.03459" lon="7.7326">
        <ele>377.9354248</ele>
        <time>2013-05-09T12:20:39Z</time>
      </trkpt>
      <trkpt lat="49.03473" lon="7.73263">
        <ele>376.9742432</ele>
        <time>2013-05-09T12:20:55Z</time>
      </trkpt>
      <trkpt lat="49.03487" lon="7.73266">
        <ele>377.454834</ele>
        <time>2013-05-09T12:21:08Z</time>
      </trkpt>
      <trkpt lat="49.03492" lon="7.73268">
        <ele>376.9742432</ele>
        <time>2013-05-09T12:21:14Z</time>
      </trkpt>
      <trkpt lat="49.03495" lon="7.73268">
        <ele>376.9742432</ele>
        <time>2013-05-09T12:21:16Z</time>
      </trkpt>
      <trkpt lat="49.03519" lon="7.7327">
        <ele>376.0128174</ele>
        <time>2013-05-09T12:21:39Z</time>
      </trkpt>
      <trkpt lat="49.03539" lon="7.73269">
        <ele>375.0515137</ele>
        <time>2013-05-09T12:21:54Z</time>
      </trkpt>
      <trkpt lat="49.03558" lon="7.73267">
        <ele>373.6094971</ele>
        <time>2013-05-09T12:22:15Z</time>
      </trkpt>
      <trkpt lat="49.03576" lon="7.73265">
        <ele>374.0900879</ele>
        <time>2013-05-09T12:22:29Z</time>
      </trkpt>
      <trkpt lat="49.03588" lon="7.73263">
        <ele>373.1289063</ele>
        <time>2013-05-09T12:22:40Z</time>
      </trkpt>
      <trkpt lat="49.03595" lon="7.73261">
        <ele>372.6481934</ele>
        <time>2013-05-09T12:22:47Z</time>
      </trkpt>
      <trkpt lat="49.03604" lon="7.73257">
        <ele>371.6868896</ele>
        <time>2013-05-09T12:22:56Z</time>
      </trkpt>
      <trkpt lat="49.03628" lon="7.73239">
        <ele>370.7255859</ele>
        <time>2013-05-09T12:23:19Z</time>
      </trkpt>
      <trkpt lat="49.0364" lon="7.73227">
        <ele>371.2062988</ele>
        <time>2013-05-09T12:23:32Z</time>
      </trkpt>
      <trkpt lat="49.03654" lon="7.73206">
        <ele>369.7642822</ele>
        <time>2013-05-09T12:23:49Z</time>
      </trkpt>
      <trkpt lat="49.03665" lon="7.732">
        <ele>367.8415527</ele>
        <time>2013-05-09T12:24:04Z</time>
      </trkpt>
      <trkpt lat="49.03669" lon="7.73199">
        <ele>367.8415527</ele>
        <time>2013-05-09T12:24:07Z</time>
      </trkpt>
      <trkpt lat="49.03685" lon="7.73197">
        <ele>367.3609619</ele>
        <time>2013-05-09T12:24:21Z</time>
      </trkpt>
      <trkpt lat="49.03691" lon="7.73192">
        <ele>366.3995361</ele>
        <time>2013-05-09T12:24:28Z</time>
      </trkpt>
      <trkpt lat="49.0371" lon="7.7318">
        <ele>364.9576416</ele>
        <time>2013-05-09T12:24:46Z</time>
      </trkpt>
      <trkpt lat="49.03723" lon="7.73175">
        <ele>364.4769287</ele>
        <time>2013-05-09T12:25:00Z</time>
      </trkpt>
      <trkpt lat="49.03735" lon="7.73174">
        <ele>364.4769287</ele>
        <time>2013-05-09T12:25:10Z</time>
      </trkpt>
      <trkpt lat="49.03749" lon="7.7317">
        <ele>363.5157471</ele>
        <time>2013-05-09T12:25:26Z</time>
      </trkpt>
      <trkpt lat="49.03758" lon="7.7317">
        <ele>362.5543213</ele>
        <time>2013-05-09T12:25:37Z</time>
      </trkpt>
      <trkpt lat="49.03765" lon="7.7317">
        <ele>362.5543213</ele>
        <time>2013-05-09T12:25:46Z</time>
      </trkpt>
      <trkpt lat="49.03774" lon="7.73166">
        <ele>361.5931396</ele>
        <time>2013-05-09T12:25:55Z</time>
      </trkpt>
      <trkpt lat="49.03783" lon="7.73162">
        <ele>361.5931396</ele>
        <time>2013-05-09T12:26:04Z</time>
      </trkpt>
      <trkpt lat="49.03785" lon="7.73165">
        <ele>361.1124268</ele>
        <time>2013-05-09T12:26:06Z</time>
      </trkpt>
      <trkpt lat="49.03804" lon="7.73167">
        <ele>360.6317139</ele>
        <time>2013-05-09T12:26:22Z</time>
      </trkpt>
      <trkpt lat="49.03819" lon="7.73167">
        <ele>359.6704102</ele>
        <time>2013-05-09T12:26:42Z</time>
      </trkpt>
      <trkpt lat="49.03847" lon="7.73163">
        <ele>358.7089844</ele>
        <time>2013-05-09T12:27:08Z</time>
      </trkpt>
      <trkpt lat="49.0387" lon="7.73165">
        <ele>358.7089844</ele>
        <time>2013-05-09T12:27:29Z</time>
      </trkpt>
      <trkpt lat="49.03898" lon="7.73169">
        <ele>358.2283936</ele>
        <time>2013-05-09T12:27:53Z</time>
      </trkpt>
      <trkpt lat="49.03914" lon="7.73163">
        <ele>357.2670898</ele>
        <time>2013-05-09T12:28:10Z</time>
      </trkpt>
      <trkpt lat="49.03927" lon="7.73162">
        <ele>356.786377</ele>
        <time>2013-05-09T12:28:27Z</time>
      </trkpt>
      <trkpt lat="49.03947" lon="7.73162">
        <ele>356.3057861</ele>
        <time>2013-05-09T12:28:45Z</time>
      </trkpt>
      <trkpt lat="49.03969" lon="7.7316">
        <ele>355.8251953</ele>
        <time>2013-05-09T12:29:02Z</time>
      </trkpt>
      <trkpt lat="49.03989" lon="7.73152">
        <ele>354.8637695</ele>
        <time>2013-05-09T12:29:20Z</time>
      </trkpt>
      <trkpt lat="49.04003" lon="7.73148">
        <ele>353.9025879</ele>
        <time>2013-05-09T12:29:36Z</time>
      </trkpt>
      <trkpt lat="49.04022" lon="7.73139">
        <ele>352.9411621</ele>
        <time>2013-05-09T12:30:01Z</time>
      </trkpt>
      <trkpt lat="49.04052" lon="7.73132">
        <ele>351.9798584</ele>
        <time>2013-05-09T12:30:25Z</time>
      </trkpt>
      <trkpt lat="49.0408" lon="7.73119">
        <ele>350.057251</ele>
        <time>2013-05-09T12:30:46Z</time>
      </trkpt>
      <trkpt lat="49.04107" lon="7.7311">
        <ele>351.4991455</ele>
        <time>2013-05-09T12:31:07Z</time>
      </trkpt>
      <trkpt lat="49.0411" lon="7.73107">
        <ele>351.0184326</ele>
        <time>2013-05-09T12:31:28Z</time>
      </trkpt>
      <trkpt lat="49.04108" lon="7.73113">
        <ele>349.5765381</ele>
        <time>2013-05-09T12:31:52Z</time>
      </trkpt>
      <trkpt lat="49.04112" lon="7.731">
        <ele>348.6152344</ele>
        <time>2013-05-09T12:34:42Z</time>
      </trkpt>
      <trkpt lat="49.04098" lon="7.73116">
        <ele>349.5765381</ele>
        <time>2013-05-09T12:35:06Z</time>
      </trkpt>
      <trkpt lat="49.04115" lon="7.7309">
        <ele>348.6152344</ele>
        <time>2013-05-09T12:35:49Z</time>
      </trkpt>
      <trkpt lat="49.04124" lon="7.731">
        <ele>350.057251</ele>
        <time>2013-05-09T12:36:15Z</time>
      </trkpt>
      <trkpt lat="49.04141" lon="7.73097">
        <ele>351.0184326</ele>
        <time>2013-05-09T12:36:33Z</time>
      </trkpt>
      <trkpt lat="49.04146" lon="7.7309">
        <ele>351.4991455</ele>
        <time>2013-05-09T12:36:45Z</time>
      </trkpt>
      <trkpt lat="49.04167" lon="7.73084">
        <ele>352.4605713</ele>
        <time>2013-05-09T12:37:09Z</time>
      </trkpt>
      <trkpt lat="49.04187" lon="7.73077">
        <ele>353.421875</ele>
        <time>2013-05-09T12:37:30Z</time>
      </trkpt>
      <trkpt lat="49.04207" lon="7.73063">
        <ele>354.3831787</ele>
        <time>2013-05-09T12:37:53Z</time>
      </trkpt>
      <trkpt lat="49.04218" lon="7.73053">
        <ele>355.3444824</ele>
        <time>2013-05-09T12:38:11Z</time>
      </trkpt>
      <trkpt lat="49.04239" lon="7.73037">
        <ele>356.3057861</ele>
        <time>2013-05-09T12:38:36Z</time>
      </trkpt>
      <trkpt lat="49.04241" lon="7.73035">
        <ele>355.8251953</ele>
        <time>2013-05-09T12:38:37Z</time>
      </trkpt>
      <trkpt lat="49.04244" lon="7.73024">
        <ele>357.2670898</ele>
        <time>2013-05-09T12:38:43Z</time>
      </trkpt>
      <trkpt lat="49.04236" lon="7.7301">
        <ele>358.2283936</ele>
        <time>2013-05-09T12:38:56Z</time>
      </trkpt>
      <trkpt lat="49.04226" lon="7.73">
        <ele>359.6704102</ele>
        <time>2013-05-09T12:39:09Z</time>
      </trkpt>
      <trkpt lat="49.04214" lon="7.72981">
        <ele>360.6317139</ele>
        <time>2013-05-09T12:39:23Z</time>
      </trkpt>
      <trkpt lat="49.04214" lon="7.7298">
        <ele>360.6317139</ele>
        <time>2013-05-09T12:39:24Z</time>
      </trkpt>
      <trkpt lat="49.04203" lon="7.72959">
        <ele>361.5931396</ele>
        <time>2013-05-09T12:39:41Z</time>
      </trkpt>
      <trkpt lat="49.04184" lon="7.72934">
        <ele>363.5157471</ele>
        <time>2013-05-09T12:40:03Z</time>
      </trkpt>
      <trkpt lat="49.04168" lon="7.72913">
        <ele>364.9576416</ele>
        <time>2013-05-09T12:40:20Z</time>
      </trkpt>
      <trkpt lat="49.04166" lon="7.7291">
        <ele>364.9576416</ele>
        <time>2013-05-09T12:40:23Z</time>
      </trkpt>
      <trkpt lat="49.04164" lon="7.72906">
        <ele>365.4383545</ele>
        <time>2013-05-09T12:40:28Z</time>
      </trkpt>
      <trkpt lat="49.04158" lon="7.72885">
        <ele>366.3995361</ele>
        <time>2013-05-09T12:40:40Z</time>
      </trkpt>
      <trkpt lat="49.0415" lon="7.72866">
        <ele>367.8415527</ele>
        <time>2013-05-09T12:40:53Z</time>
      </trkpt>
      <trkpt lat="49.04145" lon="7.72854">
        <ele>368.3222656</ele>
        <time>2013-05-09T12:41:00Z</time>
      </trkpt>
      <trkpt lat="49.04142" lon="7.72845">
        <ele>368.3222656</ele>
        <time>2013-05-09T12:41:05Z</time>
      </trkpt>
      <trkpt lat="49.0414" lon="7.72842">
        <ele>368.8029785</ele>
        <time>2013-05-09T12:41:08Z</time>
      </trkpt>
      <trkpt lat="49.04136" lon="7.72833">
        <ele>369.7642822</ele>
        <time>2013-05-09T12:41:18Z</time>
      </trkpt>
      <trkpt lat="49.0413" lon="7.72821">
        <ele>370.244873</ele>
        <time>2013-05-09T12:41:29Z</time>
      </trkpt>
      <trkpt lat="49.04128" lon="7.72811">
        <ele>371.2062988</ele>
        <time>2013-05-09T12:41:34Z</time>
      </trkpt>
      <trkpt lat="49.04123" lon="7.72805">
        <ele>371.6868896</ele>
        <time>2013-05-09T12:41:37Z</time>
      </trkpt>
      <trkpt lat="49.04121" lon="7.72793">
        <ele>372.1674805</ele>
        <time>2013-05-09T12:41:44Z</time>
      </trkpt>
      <trkpt lat="49.04121" lon="7.72787">
        <ele>372.1674805</ele>
        <time>2013-05-09T12:41:47Z</time>
      </trkpt>
      <trkpt lat="49.04119" lon="7.72773">
        <ele>372.6481934</ele>
        <time>2013-05-09T12:41:55Z</time>
      </trkpt>
      <trkpt lat="49.04116" lon="7.72757">
        <ele>373.6094971</ele>
        <time>2013-05-09T12:42:03Z</time>
      </trkpt>
      <trkpt lat="49.04114" lon="7.72749">
        <ele>374.0900879</ele>
        <time>2013-05-09T12:42:07Z</time>
      </trkpt>
      <trkpt lat="49.04114" lon="7.72738">
        <ele>375.0515137</ele>
        <time>2013-05-09T12:42:14Z</time>
      </trkpt>
      <trkpt lat="49.04113" lon="7.7273">
        <ele>376.0128174</ele>
        <time>2013-05-09T12:42:19Z</time>
      </trkpt>
      <trkpt lat="49.04113" lon="7.72715">
        <ele>376.4935303</ele>
        <time>2013-05-09T12:42:26Z</time>
      </trkpt>
      <trkpt lat="49.04112" lon="7.7271">
        <ele>376.9742432</ele>
        <time>2013-05-09T12:42:30Z</time>
      </trkpt>
      <trkpt lat="49.04114" lon="7.72702">
        <ele>377.454834</ele>
        <time>2013-05-09T12:42:37Z</time>
      </trkpt>
      <trkpt lat="49.04114" lon="7.72694">
        <ele>377.9354248</ele>
        <time>2013-05-09T12:42:42Z</time>
      </trkpt>
      <trkpt lat="49.04114" lon="7.72689">
        <ele>377.454834</ele>
        <time>2013-05-09T12:42:45Z</time>
      </trkpt>
      <trkpt lat="49.04114" lon="7.72683">
        <ele>377.9354248</ele>
        <time>2013-05-09T12:42:48Z</time>
      </trkpt>
      <trkpt lat="49.04116" lon="7.72675">
        <ele>378.4161377</ele>
        <time>2013-05-09T12:42:53Z</time>
      </trkpt>
      <trkpt lat="49.04115" lon="7.72669">
        <ele>378.4161377</ele>
        <time>2013-05-09T12:42:57Z</time>
      </trkpt>
      <trkpt lat="49.04114" lon="7.72663">
        <ele>379.3774414</ele>
        <time>2013-05-09T12:43:01Z</time>
      </trkpt>
      <trkpt lat="49.04114" lon="7.72657">
        <ele>378.8968506</ele>
        <time>2013-05-09T12:43:04Z</time>
      </trkpt>
      <trkpt lat="49.04114" lon="7.72653">
        <ele>379.3774414</ele>
        <time>2013-05-09T12:43:06Z</time>
      </trkpt>
      <trkpt lat="49.04116" lon="7.72631">
        <ele>380.3387451</ele>
        <time>2013-05-09T12:43:21Z</time>
      </trkpt>
      <trkpt lat="49.04116" lon="7.72605">
        <ele>382.2613525</ele>
        <time>2013-05-09T12:43:41Z</time>
      </trkpt>
      <trkpt lat="49.04116" lon="7.72586">
        <ele>383.2226563</ele>
        <time>2013-05-09T12:43:53Z</time>
      </trkpt>
      <trkpt lat="49.04117" lon="7.72566">
        <ele>384.184082</ele>
        <time>2013-05-09T12:44:09Z</time>
      </trkpt>
      <trkpt lat="49.04118" lon="7.72564">
        <ele>384.184082</ele>
        <time>2013-05-09T12:44:10Z</time>
      </trkpt>
      <trkpt lat="49.04118" lon="7.72544">
        <ele>385.1453857</ele>
        <time>2013-05-09T12:44:23Z</time>
      </trkpt>
      <trkpt lat="49.04117" lon="7.72527">
        <ele>386.1066895</ele>
        <time>2013-05-09T12:44:36Z</time>
      </trkpt>
      <trkpt lat="49.04103" lon="7.72501">
        <ele>388.0292969</ele>
        <time>2013-05-09T12:44:54Z</time>
      </trkpt>
      <trkpt lat="49.04103" lon="7.72499">
        <ele>388.0292969</ele>
        <time>2013-05-09T12:44:55Z</time>
      </trkpt>
      <trkpt lat="49.04099" lon="7.7249">
        <ele>388.5100098</ele>
        <time>2013-05-09T12:45:00Z</time>
      </trkpt>
      <trkpt lat="49.04102" lon="7.72478">
        <ele>388.9906006</ele>
        <time>2013-05-09T12:45:06Z</time>
      </trkpt>
      <trkpt lat="49.041" lon="7.72476">
        <ele>389.4711914</ele>
        <time>2013-05-09T12:45:08Z</time>
      </trkpt>
      <trkpt lat="49.04093" lon="7.72462">
        <ele>389.9519043</ele>
        <time>2013-05-09T12:45:20Z</time>
      </trkpt>
      <trkpt lat="49.04092" lon="7.72449">
        <ele>390.4326172</ele>
        <time>2013-05-09T12:45:29Z</time>
      </trkpt>
      <trkpt lat="49.04091" lon="7.72438">
        <ele>391.3937988</ele>
        <time>2013-05-09T12:45:36Z</time>
      </trkpt>
      <trkpt lat="49.04091" lon="7.72434">
        <ele>391.3937988</ele>
        <time>2013-05-09T12:45:39Z</time>
      </trkpt>
      <trkpt lat="49.04091" lon="7.72431">
        <ele>391.3937988</ele>
        <time>2013-05-09T12:45:41Z</time>
      </trkpt>
      <trkpt lat="49.04091" lon="7.72425">
        <ele>391.8745117</ele>
        <time>2013-05-09T12:45:45Z</time>
      </trkpt>
      <trkpt lat="49.04089" lon="7.72414">
        <ele>392.8359375</ele>
        <time>2013-05-09T12:45:54Z</time>
      </trkpt>
      <trkpt lat="49.04085" lon="7.72385">
        <ele>394.2779541</ele>
        <time>2013-05-09T12:46:09Z</time>
      </trkpt>
      <trkpt lat="49.04082" lon="7.7238">
        <ele>394.2779541</ele>
        <time>2013-05-09T12:46:13Z</time>
      </trkpt>
      <trkpt lat="49.04083" lon="7.7237">
        <ele>394.7585449</ele>
        <time>2013-05-09T12:46:19Z</time>
      </trkpt>
      <trkpt lat="49.0408" lon="7.72364">
        <ele>395.2391357</ele>
        <time>2013-05-09T12:46:23Z</time>
      </trkpt>
      <trkpt lat="49.04073" lon="7.7234">
        <ele>396.6811523</ele>
        <time>2013-05-09T12:46:39Z</time>
      </trkpt>
      <trkpt lat="49.04069" lon="7.7232">
        <ele>397.6424561</ele>
        <time>2013-05-09T12:46:51Z</time>
      </trkpt>
      <trkpt lat="49.04069" lon="7.72314">
        <ele>397.6424561</ele>
        <time>2013-05-09T12:46:54Z</time>
      </trkpt>
      <trkpt lat="49.04059" lon="7.7229">
        <ele>398.6037598</ele>
        <time>2013-05-09T12:47:09Z</time>
      </trkpt>
      <trkpt lat="49.0406" lon="7.72284">
        <ele>399.0843506</ele>
        <time>2013-05-09T12:47:13Z</time>
      </trkpt>
      <trkpt lat="49.04057" lon="7.72261">
        <ele>400.5264893</ele>
        <time>2013-05-09T12:47:30Z</time>
      </trkpt>
      <trkpt lat="49.04057" lon="7.72257">
        <ele>400.5264893</ele>
        <time>2013-05-09T12:47:32Z</time>
      </trkpt>
      <trkpt lat="49.04065" lon="7.72241">
        <ele>400.0458984</ele>
        <time>2013-05-09T12:47:44Z</time>
      </trkpt>
      <trkpt lat="49.04068" lon="7.7224">
        <ele>401.0070801</ele>
        <time>2013-05-09T12:47:48Z</time>
      </trkpt>
      <trkpt lat="49.04072" lon="7.72237">
        <ele>401.0070801</ele>
        <time>2013-05-09T12:47:52Z</time>
      </trkpt>
      <trkpt lat="49.04084" lon="7.72232">
        <ele>401.0070801</ele>
        <time>2013-05-09T12:48:05Z</time>
      </trkpt>
      <trkpt lat="49.04097" lon="7.72222">
        <ele>401.487793</ele>
        <time>2013-05-09T12:48:21Z</time>
      </trkpt>
      <trkpt lat="49.04105" lon="7.72224">
        <ele>401.9685059</ele>
        <time>2013-05-09T12:49:51Z</time>
      </trkpt>
      <trkpt lat="49.04118" lon="7.72224">
        <ele>404.8522949</ele>
        <time>2013-05-09T12:50:06Z</time>
      </trkpt>
      <trkpt lat="49.04138" lon="7.72223">
        <ele>408.217041</ele>
        <time>2013-05-09T12:50:31Z</time>
      </trkpt>
      <trkpt lat="49.04146" lon="7.72222">
        <ele>408.6976318</ele>
        <time>2013-05-09T12:50:37Z</time>
      </trkpt>
      <trkpt lat="49.04166" lon="7.72228">
        <ele>409.6590576</ele>
        <time>2013-05-09T12:50:53Z</time>
      </trkpt>
      <trkpt lat="49.04186" lon="7.7222">
        <ele>410.6202393</ele>
        <time>2013-05-09T12:51:12Z</time>
      </trkpt>
      <trkpt lat="49.042" lon="7.72216">
        <ele>412.5428467</ele>
        <time>2013-05-09T12:51:30Z</time>
      </trkpt>
      <trkpt lat="49.0422" lon="7.72218">
        <ele>414.946167</ele>
        <time>2013-05-09T12:51:52Z</time>
      </trkpt>
      <trkpt lat="49.04239" lon="7.72214">
        <ele>416.8688965</ele>
        <time>2013-05-09T12:52:10Z</time>
      </trkpt>
      <trkpt lat="49.04251" lon="7.72206">
        <ele>419.2722168</ele>
        <time>2013-05-09T12:52:29Z</time>
      </trkpt>
      <trkpt lat="49.0427" lon="7.72199">
        <ele>421.1948242</ele>
        <time>2013-05-09T12:52:46Z</time>
      </trkpt>
      <trkpt lat="49.04285" lon="7.72192">
        <ele>423.1174316</ele>
        <time>2013-05-09T12:53:03Z</time>
      </trkpt>
      <trkpt lat="49.04288" lon="7.72193">
        <ele>423.5980225</ele>
        <time>2013-05-09T12:53:06Z</time>
      </trkpt>
      <trkpt lat="49.04294" lon="7.72201">
        <ele>425.0401611</ele>
        <time>2013-05-09T12:53:20Z</time>
      </trkpt>
      <trkpt lat="49.04303" lon="7.72199">
        <ele>426.0013428</ele>
        <time>2013-05-09T12:53:29Z</time>
      </trkpt>
      <trkpt lat="49.04306" lon="7.72193">
        <ele>425.520752</ele>
        <time>2013-05-09T12:53:34Z</time>
      </trkpt>
      <trkpt lat="49.04314" lon="7.72185">
        <ele>426.0013428</ele>
        <time>2013-05-09T12:53:43Z</time>
      </trkpt>
      <trkpt lat="49.04317" lon="7.7218">
        <ele>426.0013428</ele>
        <time>2013-05-09T12:53:46Z</time>
      </trkpt>
      <trkpt lat="49.04321" lon="7.72173">
        <ele>426.0013428</ele>
        <time>2013-05-09T12:53:50Z</time>
      </trkpt>
      <trkpt lat="49.04333" lon="7.72151">
        <ele>425.0401611</ele>
        <time>2013-05-09T12:54:06Z</time>
      </trkpt>
      <trkpt lat="49.04342" lon="7.72127">
        <ele>424.5594482</ele>
        <time>2013-05-09T12:54:18Z</time>
      </trkpt>
      <trkpt lat="49.04356" lon="7.72113">
        <ele>424.0787354</ele>
        <time>2013-05-09T12:54:31Z</time>
      </trkpt>
      <trkpt lat="49.0437" lon="7.72091">
        <ele>423.5980225</ele>
        <time>2013-05-09T12:54:48Z</time>
      </trkpt>
      <trkpt lat="49.0438" lon="7.72069">
        <ele>423.1174316</ele>
        <time>2013-05-09T12:55:03Z</time>
      </trkpt>
      <trkpt lat="49.04406" lon="7.72021">
        <ele>421.675415</ele>
        <time>2013-05-09T12:55:37Z</time>
      </trkpt>
      <trkpt lat="49.04427" lon="7.71981">
        <ele>420.7141113</ele>
        <time>2013-05-09T12:56:04Z</time>
      </trkpt>
      <trkpt lat="49.04433" lon="7.71964">
        <ele>420.7141113</ele>
        <time>2013-05-09T12:56:15Z</time>
      </trkpt>
      <trkpt lat="49.04443" lon="7.71931">
        <ele>419.7528076</ele>
        <time>2013-05-09T12:56:34Z</time>
      </trkpt>
      <trkpt lat="49.04445" lon="7.71923">
        <ele>419.7528076</ele>
        <time>2013-05-09T12:56:39Z</time>
      </trkpt>
      <trkpt lat="49.04448" lon="7.71897">
        <ele>419.2722168</ele>
        <time>2013-05-09T12:56:57Z</time>
      </trkpt>
      <trkpt lat="49.04449" lon="7.71887">
        <ele>419.2722168</ele>
        <time>2013-05-09T12:57:03Z</time>
      </trkpt>
      <trkpt lat="49.04445" lon="7.71858">
        <ele>418.7915039</ele>
        <time>2013-05-09T12:57:21Z</time>
      </trkpt>
      <trkpt lat="49.04445" lon="7.71852">
        <ele>418.310791</ele>
        <time>2013-05-09T12:57:24Z</time>
      </trkpt>
      <trkpt lat="49.04444" lon="7.71818">
        <ele>417.8302002</ele>
        <time>2013-05-09T12:57:44Z</time>
      </trkpt>
      <trkpt lat="49.04443" lon="7.71793">
        <ele>417.8302002</ele>
        <time>2013-05-09T12:58:00Z</time>
      </trkpt>
      <trkpt lat="49.04445" lon="7.7177">
        <ele>417.3496094</ele>
        <time>2013-05-09T12:58:13Z</time>
      </trkpt>
      <trkpt lat="49.04444" lon="7.71757">
        <ele>416.8688965</ele>
        <time>2013-05-09T12:58:21Z</time>
      </trkpt>
      <trkpt lat="49.04442" lon="7.7175">
        <ele>416.8688965</ele>
        <time>2013-05-09T12:58:26Z</time>
      </trkpt>
      <trkpt lat="49.04449" lon="7.71733">
        <ele>416.3881836</ele>
        <time>2013-05-09T12:58:44Z</time>
      </trkpt>
      <trkpt lat="49.04443" lon="7.7171">
        <ele>419.2722168</ele>
        <time>2013-05-09T12:58:59Z</time>
      </trkpt>
      <trkpt lat="49.04443" lon="7.7169">
        <ele>421.1948242</ele>
        <time>2013-05-09T12:59:14Z</time>
      </trkpt>
      <trkpt lat="49.0444" lon="7.71676">
        <ele>422.1560059</ele>
        <time>2013-05-09T12:59:26Z</time>
      </trkpt>
      <trkpt lat="49.04437" lon="7.7166">
        <ele>423.5980225</ele>
        <time>2013-05-09T12:59:39Z</time>
      </trkpt>
      <trkpt lat="49.04433" lon="7.71644">
        <ele>424.5594482</ele>
        <time>2013-05-09T12:59:52Z</time>
      </trkpt>
      <trkpt lat="49.04429" lon="7.71634">
        <ele>425.520752</ele>
        <time>2013-05-09T12:59:59Z</time>
      </trkpt>
      <trkpt lat="49.04428" lon="7.7163">
        <ele>425.520752</ele>
        <time>2013-05-09T13:00:02Z</time>
      </trkpt>
      <trkpt lat="49.04426" lon="7.71627">
        <ele>426.0013428</ele>
        <time>2013-05-09T13:00:04Z</time>
      </trkpt>
      <trkpt lat="49.04425" lon="7.71625">
        <ele>426.4820557</ele>
        <time>2013-05-09T13:00:06Z</time>
      </trkpt>
      <trkpt lat="49.04421" lon="7.7162">
        <ele>426.9627686</ele>
        <time>2013-05-09T13:00:10Z</time>
      </trkpt>
      <trkpt lat="49.04419" lon="7.71614">
        <ele>426.9627686</ele>
        <time>2013-05-09T13:00:14Z</time>
      </trkpt>
      <trkpt lat="49.04417" lon="7.71603">
        <ele>427.9239502</ele>
        <time>2013-05-09T13:00:22Z</time>
      </trkpt>
      <trkpt lat="49.04414" lon="7.71598">
        <ele>428.4046631</ele>
        <time>2013-05-09T13:00:26Z</time>
      </trkpt>
      <trkpt lat="49.04412" lon="7.71597">
        <ele>428.885376</ele>
        <time>2013-05-09T13:00:28Z</time>
      </trkpt>
      <trkpt lat="49.04399" lon="7.71573">
        <ele>431.2885742</ele>
        <time>2013-05-09T13:00:46Z</time>
      </trkpt>
      <trkpt lat="49.04387" lon="7.71559">
        <ele>432.7307129</ele>
        <time>2013-05-09T13:01:02Z</time>
      </trkpt>
      <trkpt lat="49.0438" lon="7.71542">
        <ele>434.1726074</ele>
        <time>2013-05-09T13:01:16Z</time>
      </trkpt>
      <trkpt lat="49.04374" lon="7.71523">
        <ele>436.0952148</ele>
        <time>2013-05-09T13:01:30Z</time>
      </trkpt>
      <trkpt lat="49.04365" lon="7.71508">
        <ele>438.4985352</ele>
        <time>2013-05-09T13:01:47Z</time>
      </trkpt>
      <trkpt lat="49.04361" lon="7.71489">
        <ele>440.4212646</ele>
        <time>2013-05-09T13:02:03Z</time>
      </trkpt>
      <trkpt lat="49.04356" lon="7.71473">
        <ele>443.3050537</ele>
        <time>2013-05-09T13:02:20Z</time>
      </trkpt>
      <trkpt lat="49.04351" lon="7.71448">
        <ele>442.8244629</ele>
        <time>2013-05-09T13:02:52Z</time>
      </trkpt>
      <trkpt lat="49.04351" lon="7.71429">
        <ele>442.3438721</ele>
        <time>2013-05-09T13:03:08Z</time>
      </trkpt>
      <trkpt lat="49.0435" lon="7.71414">
        <ele>441.3824463</ele>
        <time>2013-05-09T13:03:21Z</time>
      </trkpt>
      <trkpt lat="49.04353" lon="7.71396">
        <ele>439.4597168</ele>
        <time>2013-05-09T13:03:35Z</time>
      </trkpt>
      <trkpt lat="49.04353" lon="7.71394">
        <ele>439.9404297</ele>
        <time>2013-05-09T13:03:36Z</time>
      </trkpt>
      <trkpt lat="49.04348" lon="7.71381">
        <ele>438.979126</ele>
        <time>2013-05-09T13:03:48Z</time>
      </trkpt>
      <trkpt lat="49.0435" lon="7.71375">
        <ele>438.979126</ele>
        <time>2013-05-09T13:04:13Z</time>
      </trkpt>
      <trkpt lat="49.04353" lon="7.71368">
        <ele>438.979126</ele>
        <time>2013-05-09T13:04:32Z</time>
      </trkpt>
      <trkpt lat="49.04356" lon="7.71365">
        <ele>438.4985352</ele>
        <time>2013-05-09T13:05:10Z</time>
      </trkpt>
      <trkpt lat="49.04355" lon="7.71347">
        <ele>436.5759277</ele>
        <time>2013-05-09T13:05:22Z</time>
      </trkpt>
      <trkpt lat="49.04355" lon="7.71335">
        <ele>436.0952148</ele>
        <time>2013-05-09T13:05:30Z</time>
      </trkpt>
      <trkpt lat="49.04355" lon="7.71315">
        <ele>435.1339111</ele>
        <time>2013-05-09T13:05:43Z</time>
      </trkpt>
      <trkpt lat="49.04355" lon="7.7131">
        <ele>434.6533203</ele>
        <time>2013-05-09T13:05:46Z</time>
      </trkpt>
      <trkpt lat="49.04356" lon="7.71307">
        <ele>434.1726074</ele>
        <time>2013-05-09T13:05:48Z</time>
      </trkpt>
      <trkpt lat="49.04358" lon="7.71305">
        <ele>434.1726074</ele>
        <time>2013-05-09T13:05:50Z</time>
      </trkpt>
      <trkpt lat="49.04365" lon="7.71281">
        <ele>432.25</ele>
        <time>2013-05-09T13:06:05Z</time>
      </trkpt>
      <trkpt lat="49.04374" lon="7.71258">
        <ele>430.3272705</ele>
        <time>2013-05-09T13:06:22Z</time>
      </trkpt>
      <trkpt lat="49.04375" lon="7.71256">
        <ele>429.8465576</ele>
        <time>2013-05-09T13:06:23Z</time>
      </trkpt>
      <trkpt lat="49.04381" lon="7.71231">
        <ele>428.4046631</ele>
        <time>2013-05-09T13:06:39Z</time>
      </trkpt>
      <trkpt lat="49.0438" lon="7.71212">
        <ele>426.4820557</ele>
        <time>2013-05-09T13:06:54Z</time>
      </trkpt>
      <trkpt lat="49.04383" lon="7.71203">
        <ele>425.520752</ele>
        <time>2013-05-09T13:07:00Z</time>
      </trkpt>
      <trkpt lat="49.04385" lon="7.71199">
        <ele>425.520752</ele>
        <time>2013-05-09T13:07:02Z</time>
      </trkpt>
      <trkpt lat="49.04385" lon="7.71188">
        <ele>425.0401611</ele>
        <time>2013-05-09T13:07:08Z</time>
      </trkpt>
      <trkpt lat="49.04389" lon="7.71171">
        <ele>423.5980225</ele>
        <time>2013-05-09T13:07:18Z</time>
      </trkpt>
      <trkpt lat="49.04388" lon="7.71165">
        <ele>423.1174316</ele>
        <time>2013-05-09T13:07:22Z</time>
      </trkpt>
      <trkpt lat="49.04389" lon="7.71161">
        <ele>422.6367188</ele>
        <time>2013-05-09T13:07:25Z</time>
      </trkpt>
      <trkpt lat="49.04391" lon="7.71143">
        <ele>421.675415</ele>
        <time>2013-05-09T13:07:36Z</time>
      </trkpt>
      <trkpt lat="49.04392" lon="7.71125">
        <ele>420.2333984</ele>
        <time>2013-05-09T13:07:46Z</time>
      </trkpt>
      <trkpt lat="49.04391" lon="7.71104">
        <ele>417.8302002</ele>
        <time>2013-05-09T13:07:59Z</time>
      </trkpt>
      <trkpt lat="49.04392" lon="7.71093">
        <ele>417.3496094</ele>
        <time>2013-05-09T13:08:06Z</time>
      </trkpt>
      <trkpt lat="49.04391" lon="7.71089">
        <ele>416.8688965</ele>
        <time>2013-05-09T13:08:08Z</time>
      </trkpt>
      <trkpt lat="49.0439" lon="7.71075">
        <ele>415.9074707</ele>
        <time>2013-05-09T13:08:16Z</time>
      </trkpt>
      <trkpt lat="49.0439" lon="7.71062">
        <ele>414.946167</ele>
        <time>2013-05-09T13:08:24Z</time>
      </trkpt>
      <trkpt lat="49.04391" lon="7.71036">
        <ele>412.5428467</ele>
        <time>2013-05-09T13:08:41Z</time>
      </trkpt>
      <trkpt lat="49.04395" lon="7.71029">
        <ele>412.0622559</ele>
        <time>2013-05-09T13:08:44Z</time>
      </trkpt>
      <trkpt lat="49.04394" lon="7.71009">
        <ele>409.6590576</ele>
        <time>2013-05-09T13:08:57Z</time>
      </trkpt>
      <trkpt lat="49.04399" lon="7.7098">
        <ele>408.6976318</ele>
        <time>2013-05-09T13:09:14Z</time>
      </trkpt>
      <trkpt lat="49.04399" lon="7.70969">
        <ele>407.2556152</ele>
        <time>2013-05-09T13:09:20Z</time>
      </trkpt>
      <trkpt lat="49.04399" lon="7.70962">
        <ele>407.2556152</ele>
        <time>2013-05-09T13:09:25Z</time>
      </trkpt>
      <trkpt lat="49.04392" lon="7.70937">
        <ele>403.8911133</ele>
        <time>2013-05-09T13:09:42Z</time>
      </trkpt>
      <trkpt lat="49.04389" lon="7.7092">
        <ele>403.8911133</ele>
        <time>2013-05-09T13:09:55Z</time>
      </trkpt>
      <trkpt lat="49.0439" lon="7.70915">
        <ele>403.8911133</ele>
        <time>2013-05-09T13:09:59Z</time>
      </trkpt>
      <trkpt lat="49.04389" lon="7.70884">
        <ele>403.4104004</ele>
        <time>2013-05-09T13:10:17Z</time>
      </trkpt>
      <trkpt lat="49.04392" lon="7.70861">
        <ele>403.4104004</ele>
        <time>2013-05-09T13:10:33Z</time>
      </trkpt>
      <trkpt lat="49.04392" lon="7.70855">
        <ele>403.8911133</ele>
        <time>2013-05-09T13:10:36Z</time>
      </trkpt>
      <trkpt lat="49.04392" lon="7.70849">
        <ele>403.8911133</ele>
        <time>2013-05-09T13:10:40Z</time>
      </trkpt>
      <trkpt lat="49.04401" lon="7.70822">
        <ele>404.3717041</ele>
        <time>2013-05-09T13:10:57Z</time>
      </trkpt>
      <trkpt lat="49.04415" lon="7.70799">
        <ele>403.8911133</ele>
        <time>2013-05-09T13:11:15Z</time>
      </trkpt>
      <trkpt lat="49.04419" lon="7.70787">
        <ele>403.4104004</ele>
        <time>2013-05-09T13:11:23Z</time>
      </trkpt>
      <trkpt lat="49.0442" lon="7.70775">
        <ele>405.3330078</ele>
        <time>2013-05-09T13:11:35Z</time>
      </trkpt>
      <trkpt lat="49.0443" lon="7.70772">
        <ele>405.3330078</ele>
        <time>2013-05-09T13:11:49Z</time>
      </trkpt>
      <trkpt lat="49.04432" lon="7.70772">
        <ele>405.3330078</ele>
        <time>2013-05-09T13:11:50Z</time>
      </trkpt>
      <trkpt lat="49.04445" lon="7.70774">
        <ele>404.8522949</ele>
        <time>2013-05-09T13:12:03Z</time>
      </trkpt>
      <trkpt lat="49.04458" lon="7.70769">
        <ele>404.3717041</ele>
        <time>2013-05-09T13:12:18Z</time>
      </trkpt>
      <trkpt lat="49.04461" lon="7.70763">
        <ele>404.3717041</ele>
        <time>2013-05-09T13:12:23Z</time>
      </trkpt>
      <trkpt lat="49.04474" lon="7.70751">
        <ele>404.3717041</ele>
        <time>2013-05-09T13:12:36Z</time>
      </trkpt>
      <trkpt lat="49.04487" lon="7.70742">
        <ele>404.8522949</ele>
        <time>2013-05-09T13:12:47Z</time>
      </trkpt>
      <trkpt lat="49.04494" lon="7.70735">
        <ele>403.8911133</ele>
        <time>2013-05-09T13:12:54Z</time>
      </trkpt>
      <trkpt lat="49.04506" lon="7.70721">
        <ele>402.4490967</ele>
        <time>2013-05-09T13:13:05Z</time>
      </trkpt>
      <trkpt lat="49.04511" lon="7.70707">
        <ele>402.4490967</ele>
        <time>2013-05-09T13:13:22Z</time>
      </trkpt>
      <trkpt lat="49.04522" lon="7.70691">
        <ele>402.9296875</ele>
        <time>2013-05-09T13:13:41Z</time>
      </trkpt>
      <trkpt lat="49.0453" lon="7.70673">
        <ele>401.487793</ele>
        <time>2013-05-09T13:13:53Z</time>
      </trkpt>
      <trkpt lat="49.04537" lon="7.70651">
        <ele>399.0843506</ele>
        <time>2013-05-09T13:14:10Z</time>
      </trkpt>
      <trkpt lat="49.04538" lon="7.7065">
        <ele>399.0843506</ele>
        <time>2013-05-09T13:14:11Z</time>
      </trkpt>
      <trkpt lat="49.04544" lon="7.70633">
        <ele>398.1231689</ele>
        <time>2013-05-09T13:14:23Z</time>
      </trkpt>
      <trkpt lat="49.04559" lon="7.70616">
        <ele>396.2005615</ele>
        <time>2013-05-09T13:14:41Z</time>
      </trkpt>
      <trkpt lat="49.04567" lon="7.70603">
        <ele>396.6811523</ele>
        <time>2013-05-09T13:14:51Z</time>
      </trkpt>
      <trkpt lat="49.04567" lon="7.706">
        <ele>396.6811523</ele>
        <time>2013-05-09T13:14:53Z</time>
      </trkpt>
      <trkpt lat="49.04567" lon="7.70585">
        <ele>395.2391357</ele>
        <time>2013-05-09T13:15:02Z</time>
      </trkpt>
      <trkpt lat="49.04572" lon="7.70579">
        <ele>392.8359375</ele>
        <time>2013-05-09T13:15:13Z</time>
      </trkpt>
      <trkpt lat="49.04586" lon="7.70577">
        <ele>389.9519043</ele>
        <time>2013-05-09T13:15:29Z</time>
      </trkpt>
      <trkpt lat="49.04591" lon="7.70575">
        <ele>388.0292969</ele>
        <time>2013-05-09T13:15:46Z</time>
      </trkpt>
      <trkpt lat="49.04593" lon="7.70575">
        <ele>388.5100098</ele>
        <time>2013-05-09T13:16:24Z</time>
      </trkpt>
      <trkpt lat="49.04597" lon="7.70563">
        <ele>387.548584</ele>
        <time>2013-05-09T13:18:28Z</time>
      </trkpt>
      <trkpt lat="49.04597" lon="7.70561">
        <ele>387.0679932</ele>
        <time>2013-05-09T13:18:29Z</time>
      </trkpt>
      <trkpt lat="49.04598" lon="7.70558">
        <ele>386.5874023</ele>
        <time>2013-05-09T13:18:31Z</time>
      </trkpt>
      <trkpt lat="49.04598" lon="7.70541">
        <ele>385.1453857</ele>
        <time>2013-05-09T13:18:42Z</time>
      </trkpt>
      <trkpt lat="49.046" lon="7.70535">
        <ele>384.6647949</ele>
        <time>2013-05-09T13:18:46Z</time>
      </trkpt>
      <trkpt lat="49.046" lon="7.70515">
        <ele>381.7806396</ele>
        <time>2013-05-09T13:19:01Z</time>
      </trkpt>
      <trkpt lat="49.04601" lon="7.70487">
        <ele>378.8968506</ele>
        <time>2013-05-09T13:19:20Z</time>
      </trkpt>
      <trkpt lat="49.04599" lon="7.7047">
        <ele>377.9354248</ele>
        <time>2013-05-09T13:19:28Z</time>
      </trkpt>
      <trkpt lat="49.046" lon="7.7046">
        <ele>376.9742432</ele>
        <time>2013-05-09T13:19:34Z</time>
      </trkpt>
      <trkpt lat="49.04606" lon="7.70435">
        <ele>374.0900879</ele>
        <time>2013-05-09T13:19:50Z</time>
      </trkpt>
      <trkpt lat="49.04606" lon="7.70431">
        <ele>374.0900879</ele>
        <time>2013-05-09T13:19:52Z</time>
      </trkpt>
      <trkpt lat="49.046" lon="7.70415">
        <ele>372.6481934</ele>
        <time>2013-05-09T13:20:02Z</time>
      </trkpt>
      <trkpt lat="49.04591" lon="7.70403">
        <ele>370.7255859</ele>
        <time>2013-05-09T13:20:14Z</time>
      </trkpt>
      <trkpt lat="49.04586" lon="7.70381">
        <ele>369.2836914</ele>
        <time>2013-05-09T13:20:31Z</time>
      </trkpt>
      <trkpt lat="49.04587" lon="7.70375">
        <ele>368.3222656</ele>
        <time>2013-05-09T13:20:36Z</time>
      </trkpt>
      <trkpt lat="49.04588" lon="7.7037">
        <ele>367.8415527</ele>
        <time>2013-05-09T13:20:40Z</time>
      </trkpt>
      <trkpt lat="49.04588" lon="7.70367">
        <ele>367.3609619</ele>
        <time>2013-05-09T13:20:42Z</time>
      </trkpt>
      <trkpt lat="49.04587" lon="7.70348">
        <ele>365.4383545</ele>
        <time>2013-05-09T13:20:56Z</time>
      </trkpt>
      <trkpt lat="49.04582" lon="7.70335">
        <ele>363.9963379</ele>
        <time>2013-05-09T13:21:12Z</time>
      </trkpt>
      <trkpt lat="49.04582" lon="7.70326">
        <ele>362.0737305</ele>
        <time>2013-05-09T13:21:22Z</time>
      </trkpt>
      <trkpt lat="49.04585" lon="7.70307">
        <ele>359.6704102</ele>
        <time>2013-05-09T13:21:37Z</time>
      </trkpt>
      <trkpt lat="49.04588" lon="7.70285">
        <ele>356.786377</ele>
        <time>2013-05-09T13:21:54Z</time>
      </trkpt>
      <trkpt lat="49.04592" lon="7.70261">
        <ele>353.9025879</ele>
        <time>2013-05-09T13:22:12Z</time>
      </trkpt>
      <trkpt lat="49.04591" lon="7.70234">
        <ele>351.4991455</ele>
        <time>2013-05-09T13:22:28Z</time>
      </trkpt>
      <trkpt lat="49.04588" lon="7.70208">
        <ele>348.6152344</ele>
        <time>2013-05-09T13:22:48Z</time>
      </trkpt>
      <trkpt lat="49.04587" lon="7.70195">
        <ele>347.1732178</ele>
        <time>2013-05-09T13:23:08Z</time>
      </trkpt>
      <trkpt lat="49.04585" lon="7.70185">
        <ele>346.2120361</ele>
        <time>2013-05-09T13:23:53Z</time>
      </trkpt>
      <trkpt lat="49.04582" lon="7.70173">
        <ele>344.7700195</ele>
        <time>2013-05-09T13:24:06Z</time>
      </trkpt>
      <trkpt lat="49.04579" lon="7.70163">
        <ele>342.84729</ele>
        <time>2013-05-09T13:24:17Z</time>
      </trkpt>
      <trkpt lat="49.04573" lon="7.70143">
        <ele>340.4440918</ele>
        <time>2013-05-09T13:24:33Z</time>
      </trkpt>
      <trkpt lat="49.04564" lon="7.70126">
        <ele>338.5214844</ele>
        <time>2013-05-09T13:24:47Z</time>
      </trkpt>
      <trkpt lat="49.04549" lon="7.70105">
        <ele>335.6373291</ele>
        <time>2013-05-09T13:25:04Z</time>
      </trkpt>
      <trkpt lat="49.04535" lon="7.70092">
        <ele>332.2728271</ele>
        <time>2013-05-09T13:25:20Z</time>
      </trkpt>
      <trkpt lat="49.04522" lon="7.70082">
        <ele>329.8695068</ele>
        <time>2013-05-09T13:25:36Z</time>
      </trkpt>
      <trkpt lat="49.0451" lon="7.70076">
        <ele>327.4661865</ele>
        <time>2013-05-09T13:25:50Z</time>
      </trkpt>
      <trkpt lat="49.04491" lon="7.70066">
        <ele>324.5822754</ele>
        <time>2013-05-09T13:26:08Z</time>
      </trkpt>
      <trkpt lat="49.04473" lon="7.70059">
        <ele>321.6983643</ele>
        <time>2013-05-09T13:26:26Z</time>
      </trkpt>
      <trkpt lat="49.04473" lon="7.70059">
        <ele>321.6983643</ele>
        <time>2013-05-09T13:26:28Z</time>
      </trkpt>
      <trkpt lat="49.04469" lon="7.70056">
        <ele>320.7370605</ele>
        <time>2013-05-09T13:26:34Z</time>
      </trkpt>
      <trkpt lat="49.04457" lon="7.70048">
        <ele>318.8143311</ele>
        <time>2013-05-09T13:26:46Z</time>
      </trkpt>
      <trkpt lat="49.04454" lon="7.70045">
        <ele>317.8530273</ele>
        <time>2013-05-09T13:26:49Z</time>
      </trkpt>
      <trkpt lat="49.04442" lon="7.70036">
        <ele>315.4498291</ele>
        <time>2013-05-09T13:27:01Z</time>
      </trkpt>
      <trkpt lat="49.04431" lon="7.70034">
        <ele>312.5657959</ele>
        <time>2013-05-09T13:27:15Z</time>
      </trkpt>
      <trkpt lat="49.04418" lon="7.7003">
        <ele>310.6430664</ele>
        <time>2013-05-09T13:27:28Z</time>
      </trkpt>
      <trkpt lat="49.04397" lon="7.70019">
        <ele>307.7592773</ele>
        <time>2013-05-09T13:27:48Z</time>
      </trkpt>
      <trkpt lat="49.04381" lon="7.70016">
        <ele>305.8366699</ele>
        <time>2013-05-09T13:28:05Z</time>
      </trkpt>
      <trkpt lat="49.04365" lon="7.70003">
        <ele>303.9139404</ele>
        <time>2013-05-09T13:28:19Z</time>
      </trkpt>
      <trkpt lat="49.04362" lon="7.7">
        <ele>302.4719238</ele>
        <time>2013-05-09T13:28:27Z</time>
      </trkpt>
      <trkpt lat="49.04359" lon="7.69984">
        <ele>300.0687256</ele>
        <time>2013-05-09T13:28:42Z</time>
      </trkpt>
      <trkpt lat="49.04343" lon="7.69962">
        <ele>297.6654053</ele>
        <time>2013-05-09T13:28:59Z</time>
      </trkpt>
      <trkpt lat="49.04333" lon="7.69942">
        <ele>295.2619629</ele>
        <time>2013-05-09T13:29:14Z</time>
      </trkpt>
      <trkpt lat="49.04323" lon="7.69924">
        <ele>293.3393555</ele>
        <time>2013-05-09T13:29:30Z</time>
      </trkpt>
      <trkpt lat="49.04311" lon="7.6991">
        <ele>290.9361572</ele>
        <time>2013-05-09T13:29:44Z</time>
      </trkpt>
      <trkpt lat="49.0429" lon="7.69893">
        <ele>288.0522461</ele>
        <time>2013-05-09T13:30:04Z</time>
      </trkpt>
      <trkpt lat="49.04276" lon="7.69884">
        <ele>286.1295166</ele>
        <time>2013-05-09T13:30:21Z</time>
      </trkpt>
      <trkpt lat="49.04274" lon="7.69884">
        <ele>286.1295166</ele>
        <time>2013-05-09T13:30:23Z</time>
      </trkpt>
      <trkpt lat="49.04249" lon="7.69878">
        <ele>284.2069092</ele>
        <time>2013-05-09T13:30:40Z</time>
      </trkpt>
      <trkpt lat="49.04238" lon="7.69876">
        <ele>283.2456055</ele>
        <time>2013-05-09T13:30:48Z</time>
      </trkpt>
      <trkpt lat="49.0422" lon="7.69858">
        <ele>281.322998</ele>
        <time>2013-05-09T13:31:06Z</time>
      </trkpt>
      <trkpt lat="49.04208" lon="7.69852">
        <ele>279.4002686</ele>
        <time>2013-05-09T13:31:21Z</time>
      </trkpt>
      <trkpt lat="49.04186" lon="7.69834">
        <ele>276.9970703</ele>
        <time>2013-05-09T13:31:43Z</time>
      </trkpt>
      <trkpt lat="49.04164" lon="7.69818">
        <ele>275.5550537</ele>
        <time>2013-05-09T13:32:02Z</time>
      </trkpt>
      <trkpt lat="49.04147" lon="7.69807">
        <ele>273.6324463</ele>
        <time>2013-05-09T13:32:20Z</time>
      </trkpt>
      <trkpt lat="49.04134" lon="7.69805">
        <ele>272.1904297</ele>
        <time>2013-05-09T13:32:36Z</time>
      </trkpt>
      <trkpt lat="49.04127" lon="7.69803">
        <ele>271.7097168</ele>
        <time>2013-05-09T13:32:40Z</time>
      </trkpt>
      <trkpt lat="49.0411" lon="7.69794">
        <ele>269.3065186</ele>
        <time>2013-05-09T13:32:58Z</time>
      </trkpt>
      <trkpt lat="49.04097" lon="7.69782">
        <ele>268.3450928</ele>
        <time>2013-05-09T13:33:10Z</time>
      </trkpt>
      <trkpt lat="49.04078" lon="7.69771">
        <ele>267.3839111</ele>
        <time>2013-05-09T13:33:23Z</time>
      </trkpt>
      <trkpt lat="49.0406" lon="7.69766">
        <ele>266.4224854</ele>
        <time>2013-05-09T13:33:41Z</time>
      </trkpt>
      <trkpt lat="49.04043" lon="7.69758">
        <ele>264.9805908</ele>
        <time>2013-05-09T13:34:00Z</time>
      </trkpt>
      <trkpt lat="49.04025" lon="7.69754">
        <ele>263.5385742</ele>
        <time>2013-05-09T13:34:17Z</time>
      </trkpt>
      <trkpt lat="49.04004" lon="7.69758">
        <ele>261.6159668</ele>
        <time>2013-05-09T13:34:36Z</time>
      </trkpt>
      <trkpt lat="49.04001" lon="7.69755">
        <ele>260.654541</ele>
        <time>2013-05-09T13:34:47Z</time>
      </trkpt>
      <trkpt lat="49.03983" lon="7.69746">
        <ele>261.6159668</ele>
        <time>2013-05-09T13:35:08Z</time>
      </trkpt>
      <trkpt lat="49.03964" lon="7.69742">
        <ele>262.0965576</ele>
        <time>2013-05-09T13:35:28Z</time>
      </trkpt>
      <trkpt lat="49.03945" lon="7.69738">
        <ele>263.0578613</ele>
        <time>2013-05-09T13:35:49Z</time>
      </trkpt>
      <trkpt lat="49.03929" lon="7.69732">
        <ele>263.5385742</ele>
        <time>2013-05-09T13:36:12Z</time>
      </trkpt>
      <trkpt lat="49.03915" lon="7.69731">
        <ele>263.5385742</ele>
        <time>2013-05-09T13:36:24Z</time>
      </trkpt>
      <trkpt lat="49.03894" lon="7.69726">
        <ele>264.9805908</ele>
        <time>2013-05-09T13:36:43Z</time>
      </trkpt>
      <trkpt lat="49.03878" lon="7.69714">
        <ele>266.4224854</ele>
        <time>2013-05-09T13:37:04Z</time>
      </trkpt>
      <trkpt lat="49.03863" lon="7.69708">
        <ele>268.8258057</ele>
        <time>2013-05-09T13:37:23Z</time>
      </trkpt>
      <trkpt lat="49.0385" lon="7.697">
        <ele>270.2677002</ele>
        <time>2013-05-09T13:37:38Z</time>
      </trkpt>
      <trkpt lat="49.03839" lon="7.69689">
        <ele>271.7097168</ele>
        <time>2013-05-09T13:37:53Z</time>
      </trkpt>
      <trkpt lat="49.03828" lon="7.69672">
        <ele>273.6324463</ele>
        <time>2013-05-09T13:38:10Z</time>
      </trkpt>
      <trkpt lat="49.03814" lon="7.6965">
        <ele>275.0744629</ele>
        <time>2013-05-09T13:38:32Z</time>
      </trkpt>
      <trkpt lat="49.03812" lon="7.69648">
        <ele>275.0744629</ele>
        <time>2013-05-09T13:38:34Z</time>
      </trkpt>
      <trkpt lat="49.03794" lon="7.69609">
        <ele>274.59375</ele>
        <time>2013-05-09T13:39:03Z</time>
      </trkpt>
      <trkpt lat="49.03787" lon="7.69583">
        <ele>273.6324463</ele>
        <time>2013-05-09T13:39:21Z</time>
      </trkpt>
      <trkpt lat="49.03784" lon="7.69579">
        <ele>275.0744629</ele>
        <time>2013-05-09T13:39:25Z</time>
      </trkpt>
      <trkpt lat="49.03782" lon="7.69572">
        <ele>274.59375</ele>
        <time>2013-05-09T13:39:30Z</time>
      </trkpt>
      <trkpt lat="49.03772" lon="7.69537">
        <ele>273.6324463</ele>
        <time>2013-05-09T13:39:55Z</time>
      </trkpt>
      <trkpt lat="49.03769" lon="7.69528">
        <ele>273.1518555</ele>
        <time>2013-05-09T13:40:18Z</time>
      </trkpt>
      <trkpt lat="49.03761" lon="7.69503">
        <ele>273.1518555</ele>
        <time>2013-05-09T13:40:53Z</time>
      </trkpt>
      <trkpt lat="49.03748" lon="7.6947">
        <ele>271.7097168</ele>
        <time>2013-05-09T13:41:18Z</time>
      </trkpt>
      <trkpt lat="49.03736" lon="7.69434">
        <ele>270.2677002</ele>
        <time>2013-05-09T13:41:43Z</time>
      </trkpt>
      <trkpt lat="49.03728" lon="7.69394">
        <ele>269.7871094</ele>
        <time>2013-05-09T13:42:09Z</time>
      </trkpt>
      <trkpt lat="49.03724" lon="7.69353">
        <ele>268.8258057</ele>
        <time>2013-05-09T13:42:36Z</time>
      </trkpt>
      <trkpt lat="49.03724" lon="7.69333">
        <ele>267.864502</ele>
        <time>2013-05-09T13:42:48Z</time>
      </trkpt>
      <trkpt lat="49.03722" lon="7.69326">
        <ele>267.3839111</ele>
        <time>2013-05-09T13:42:52Z</time>
      </trkpt>
      <trkpt lat="49.03716" lon="7.69285">
        <ele>265.4613037</ele>
        <time>2013-05-09T13:43:14Z</time>
      </trkpt>
      <trkpt lat="49.03701" lon="7.69248">
        <ele>263.5385742</ele>
        <time>2013-05-09T13:43:38Z</time>
      </trkpt>
      <trkpt lat="49.03684" lon="7.69202">
        <ele>261.1352539</ele>
        <time>2013-05-09T13:44:08Z</time>
      </trkpt>
      <trkpt lat="49.0367" lon="7.69176">
        <ele>259.6933594</ele>
        <time>2013-05-09T13:44:34Z</time>
      </trkpt>
      <trkpt lat="49.03651" lon="7.69146">
        <ele>257.2900391</ele>
        <time>2013-05-09T13:45:00Z</time>
      </trkpt>
      <trkpt lat="49.0365" lon="7.69145">
        <ele>257.2900391</ele>
        <time>2013-05-09T13:45:01Z</time>
      </trkpt>
      <trkpt lat="49.03628" lon="7.69121">
        <ele>256.3287354</ele>
        <time>2013-05-09T13:45:24Z</time>
      </trkpt>
      <trkpt lat="49.03612" lon="7.69111">
        <ele>254.8865967</ele>
        <time>2013-05-09T13:45:40Z</time>
      </trkpt>
      <trkpt lat="49.03601" lon="7.6909">
        <ele>253.925415</ele>
        <time>2013-05-09T13:45:59Z</time>
      </trkpt>
      <trkpt lat="49.03597" lon="7.69088">
        <ele>253.925415</ele>
        <time>2013-05-09T13:46:03Z</time>
      </trkpt>
      <trkpt lat="49.03589" lon="7.69083">
        <ele>253.4447021</ele>
        <time>2013-05-09T13:46:12Z</time>
      </trkpt>
      <trkpt lat="49.03583" lon="7.69071">
        <ele>253.4447021</ele>
        <time>2013-05-09T13:46:22Z</time>
      </trkpt>
      <trkpt lat="49.03587" lon="7.69027">
        <ele>253.4447021</ele>
        <time>2013-05-09T13:46:50Z</time>
      </trkpt>
      <trkpt lat="49.03587" lon="7.69025">
        <ele>253.4447021</ele>
        <time>2013-05-09T13:46:51Z</time>
      </trkpt>
      <trkpt lat="49.03585" lon="7.69019">
        <ele>253.925415</ele>
        <time>2013-05-09T13:46:55Z</time>
      </trkpt>
      <trkpt lat="49.03584" lon="7.68984">
        <ele>252.9639893</ele>
        <time>2013-05-09T13:47:17Z</time>
      </trkpt>
      <trkpt lat="49.03587" lon="7.68939">
        <ele>253.4447021</ele>
        <time>2013-05-09T13:47:44Z</time>
      </trkpt>
      <trkpt lat="49.03587" lon="7.68924">
        <ele>253.4447021</ele>
        <time>2013-05-09T13:47:53Z</time>
      </trkpt>
      <trkpt lat="49.03585" lon="7.68913">
        <ele>253.4447021</ele>
        <time>2013-05-09T13:48:00Z</time>
      </trkpt>
      <trkpt lat="49.03578" lon="7.6887">
        <ele>252.9639893</ele>
        <time>2013-05-09T13:48:26Z</time>
      </trkpt>
      <trkpt lat="49.03579" lon="7.68856">
        <ele>252.9639893</ele>
        <time>2013-05-09T13:48:35Z</time>
      </trkpt>
      <trkpt lat="49.03591" lon="7.68813">
        <ele>252.9639893</ele>
        <time>2013-05-09T13:49:03Z</time>
      </trkpt>
      <trkpt lat="49.03599" lon="7.68771">
        <ele>252.4833984</ele>
        <time>2013-05-09T13:49:29Z</time>
      </trkpt>
      <trkpt lat="49.03601" lon="7.68761">
        <ele>252.4833984</ele>
        <time>2013-05-09T13:49:35Z</time>
      </trkpt>
      <trkpt lat="49.036" lon="7.68756">
        <ele>252.4833984</ele>
        <time>2013-05-09T13:49:38Z</time>
      </trkpt>
      <trkpt lat="49.03601" lon="7.6875">
        <ele>252.4833984</ele>
        <time>2013-05-09T13:49:42Z</time>
      </trkpt>
      <trkpt lat="49.03601" lon="7.68741">
        <ele>252.9639893</ele>
        <time>2013-05-09T13:49:48Z</time>
      </trkpt>
      <trkpt lat="49.03601" lon="7.68733">
        <ele>252.4833984</ele>
        <time>2013-05-09T13:49:53Z</time>
      </trkpt>
      <trkpt lat="49.03606" lon="7.68681">
        <ele>252.4833984</ele>
        <time>2013-05-09T13:50:25Z</time>
      </trkpt>
      <trkpt lat="49.03615" lon="7.68631">
        <ele>252.4833984</ele>
        <time>2013-05-09T13:50:57Z</time>
      </trkpt>
      <trkpt lat="49.03622" lon="7.686">
        <ele>252.4833984</ele>
        <time>2013-05-09T13:51:18Z</time>
      </trkpt>
      <trkpt lat="49.03633" lon="7.68568">
        <ele>252.9639893</ele>
        <time>2013-05-09T13:51:39Z</time>
      </trkpt>
      <trkpt lat="49.03633" lon="7.68567">
        <ele>252.0028076</ele>
        <time>2013-05-09T13:52:03Z</time>
      </trkpt>
      <trkpt lat="49.03638" lon="7.68546">
        <ele>252.4833984</ele>
        <time>2013-05-09T13:52:26Z</time>
      </trkpt>
      <trkpt lat="49.03647" lon="7.685">
        <ele>252.9639893</ele>
        <time>2013-05-09T13:52:52Z</time>
      </trkpt>
      <trkpt lat="49.03655" lon="7.68453">
        <ele>253.4447021</ele>
        <time>2013-05-09T13:53:22Z</time>
      </trkpt>
      <trkpt lat="49.03656" lon="7.6844">
        <ele>253.4447021</ele>
        <time>2013-05-09T13:53:30Z</time>
      </trkpt>
      <trkpt lat="49.03659" lon="7.68434">
        <ele>253.925415</ele>
        <time>2013-05-09T13:53:34Z</time>
      </trkpt>
      <trkpt lat="49.0367" lon="7.68379">
        <ele>255.3673096</ele>
        <time>2013-05-09T13:54:07Z</time>
      </trkpt>
      <trkpt lat="49.03675" lon="7.68357">
        <ele>255.3673096</ele>
        <time>2013-05-09T13:54:22Z</time>
      </trkpt>
    </trkseg>
  </trk>
</gpx>